[[{"header":{"parameterUnit":"m.s-1","parameterCategory":1,"la1":30.6,"la2":28.766,"lo1":-90.7593,"lo2":-88.6598,"dy":0.0162,"dx":0.0183,"nx":116,"ny":114,"refTime":"2023-04-04T06:00:00:Z","depth":0,"parameterNumber":2,"parameterNumberName":"U-component_of_WINDS"},"data":[0.0,0.0,0.0,0.0,0.0,0.0,0.0,0.0,0.0,0.0,0.0,0.0,0.0,0.0,0.0,0.0,0.0,0.0,0.0,0.0,0.0,0.0,0.0,0.0,0.0,0.0,0.0,0.0,0.0,0.0,0.0,0.0,0.0,0.0,0.0,0.0,0.0,0.0,0.0,0.0,0.0,0.0,0.0,0.0,0.0,0.0,0.0,0.0,0.0,0.0,0.0,0.0,0.0,0.0,0.0,0.0,0.0,0.0,0.0,0.0,0.0,0.0,0.0,0.0,0.0,0.0,0.0,0.0,0.0,0.0,0.0,0.0,0.0,0.0,0.0,0.0,0.0,0.0,0.0,0.0,0.0,0.0,0.0,0.0,0.0,0.0,0.0,0.0,0.0,0.0,0.0,0.0,0.0,0.0,0.0,0.0,0.0,0.0,0.0,0.0,0.0,0.0,0.0,0.0,0.0,0.0,0.0,0.0,0.0,0.0,0.0,0.0,0.0,0.0,0.0,0.0,0.0,0.0,0.0,0.0,0.0,0.0,0.0,0.0,0.0,0.0,0.0,0.0,0.0,0.0,0.0,0.0,0.0,0.0,0.0,0.0,0.0,0.0,0.0,0.0,0.0,0.0,0.0,0.0,0.0,0.0,0.0,0.0,0.0,0.0,0.0,0.0,0.0,0.0,0.0,0.0,0.0,0.0,0.0,0.0,0.0,0.0,0.0,0.0,0.0,0.0,0.0,0.0,0.0,0.0,0.0,0.0,0.0,0.0,0.0,0.0,0.0,0.0,0.0,0.0,0.0,0.0,0.0,0.0,0.0,0.0,0.0,0.0,0.0,0.0,0.0,0.0,0.0,0.0,0.0,0.0,0.0,0.0,0.0,0.0,0.0,0.0,0.0,0.0,0.0,0.0,0.0,0.0,0.0,0.0,0.0,0.0,0.0,0.0,0.0,0.0,0.0,0.0,0.0,0.0,0.0,0.0,0.0,0.0,0.0,0.0,0.0,0.0,0.0,0.0,0.0,0.0,0.0,0.0,0.0,0.0,0.0,0.0,0.0,0.0,0.0,0.0,0.0,0.0,0.0,0.0,0.0,0.0,0.0,0.0,0.0,0.0,0.0,0.0,0.0,0.0,0.0,0.0,0.0,0.0,0.0,0.0,0.0,0.0,0.0,0.0,0.0,0.0,0.0,0.0,0.0,0.0,0.0,0.0,0.0,0.0,0.0,0.0,0.0,0.0,0.0,0.0,0.0,0.0,0.0,0.0,0.0,0.0,0.0,0.0,0.0,0.0,0.0,0.0,0.0,0.0,0.0,0.0,0.0,0.0,0.0,0.0,0.0,0.0,0.0,0.0,0.0,0.0,0.0,0.0,0.0,0.0,0.0,0.0,0.0,0.0,0.0,0.0,0.0,0.0,0.0,0.0,0.0,0.0,0.0,0.0,0.0,0.0,0.0,0.0,0.0,0.0,0.0,0.0,0.0,0.0,0.0,0.0,0.0,0.0,0.0,0.0,0.0,0.0,0.0,0.0,0.0,0.0,0.0,0.0,0.0,0.0,0.0,0.0,0.0,0.0,0.0,0.0,0.0,0.0,0.0,0.0,0.0,0.0,0.0,0.0,0.0,0.0,0.0,0.0,0.0,0.0,0.0,0.0,0.0,0.0,0.0,0.0,0.0,0.0,0.0,0.0,0.0,0.0,0.0,0.0,0.0,0.0,0.0,0.0,0.0,0.0,0.0,0.0,0.0,0.0,0.0,0.0,0.0,0.0,0.0,0.0,0.0,0.0,0.0,0.0,0.0,0.0,0.0,0.0,0.0,0.0,0.0,0.0,0.0,0.0,0.0,0.0,0.0,0.0,0.0,0.0,0.0,0.0,0.0,0.0,0.0,0.0,0.0,0.0,0.0,0.0,0.0,0.0,0.0,0.0,0.0,0.0,0.0,0.0,0.0,0.0,0.0,0.0,0.0,0.0,0.0,0.0,0.0,0.0,0.0,0.0,0.0,0.0,0.0,0.0,0.0,0.0,0.0,0.0,0.0,0.0,0.0,0.0,0.0,0.0,0.0,0.0,0.0,0.0,0.0,0.0,0.0,0.0,0.0,0.0,0.0,0.0,0.0,0.0,0.0,0.0,0.0,0.0,0.0,0.0,0.0,0.0,0.0,0.0,0.0,0.0,0.0,0.0,0.0,0.0,0.0,0.0,0.0,0.0,0.0,0.0,0.0,0.0,0.0,0.0,0.0,0.0,0.0,0.0,0.0,0.0,0.0,0.0,0.0,0.0,0.0,0.0,0.0,0.0,0.0,0.0,0.0,0.0,0.0,0.0,0.0,0.0,0.0,0.0,0.0,0.0,0.0,0.0,0.0,0.0,0.0,0.0,0.0,0.0,0.0,0.0,0.0,0.0,0.0,0.0,0.0,0.0,0.0,0.0,0.0,0.0,0.0,0.0,0.0,0.0,0.0,0.0,0.0,0.0,0.0,0.0,0.0,0.0,0.0,0.0,0.0,0.0,0.0,0.0,0.0,0.0,0.0,0.0,0.0,0.0,0.0,0.0,0.0,0.0,0.0,0.0,0.0,0.0,0.0,0.0,0.0,0.0,0.0,0.0,0.0,0.0,0.0,0.0,0.0,0.0,0.0,0.0,0.0,0.0,0.0,0.0,0.0,0.0,0.0,0.0,0.0,0.0,0.0,0.0,0.0,0.0,0.0,0.0,0.0,0.0,0.0,0.0,0.0,0.0,0.0,0.0,0.0,0.0,0.0,0.0,0.0,0.0,0.0,0.0,0.0,0.0,0.0,0.0,0.0,0.0,0.0,0.0,0.0,0.0,0.0,0.0,0.0,0.0,0.0,0.0,0.0,0.0,0.0,0.0,0.0,0.0,0.0,0.0,0.0,0.0,0.0,0.0,0.0,0.0,0.0,0.0,0.0,0.0,0.0,0.0,0.0,0.0,0.0,0.0,0.0,0.0,0.0,0.0,0.0,0.0,0.0,0.0,0.0,0.0,0.0,0.0,0.0,0.0,0.0,0.0,0.0,0.0,0.0,0.0,0.0,0.0,0.0,0.0,0.0,0.0,0.0,0.0,0.0,0.0,0.0,0.0,0.0,0.0,0.0,0.0,0.0,0.0,0.0,0.0,0.0,0.0,0.0,0.0,0.0,0.0,0.0,0.0,0.0,0.0,0.0,0.0,0.0,0.0,0.0,0.0,0.0,0.0,0.0,0.0,0.0,0.0,0.0,0.0,0.0,0.0,0.0,0.0,0.0,0.0,0.0,0.0,0.0,0.0,0.0,0.0,0.0,0.0,0.0,0.0,0.0,0.0,0.0,0.0,0.0,0.0,0.0,0.0,0.0,0.0,0.0,0.0,0.0,0.0,0.0,0.0,0.0,0.0,0.0,0.0,0.0,0.0,0.0,0.0,0.0,0.0,0.0,0.0,0.0,0.0,0.0,0.0,0.0,0.0,0.0,0.0,0.0,0.0,0.0,0.0,0.0,0.0,0.0,0.0,0.0,0.0,0.0,0.0,0.0,0.0,0.0,0.0,0.0,0.0,0.0,0.0,0.0,0.0,0.0,0.0,0.0,0.0,0.0,0.0,0.0,0.0,0.0,0.0,0.0,0.0,0.0,0.0,0.0,0.0,0.0,0.0,0.0,0.0,0.0,0.0,0.0,0.0,0.0,0.0,0.0,0.0,0.0,0.0,0.0,0.0,0.0,0.0,0.0,0.0,0.0,0.0,0.0,0.0,0.0,0.0,0.0,0.0,0.0,0.0,0.0,0.0,0.0,0.0,0.0,0.0,0.0,0.0,0.0,0.0,0.0,0.0,0.0,0.0,0.0,0.0,0.0,0.0,0.0,0.0,0.0,0.0,0.0,0.0,0.0,0.0,0.0,0.0,0.0,0.0,0.0,0.0,0.0,0.0,0.0,0.0,0.0,0.0,0.0,0.0,0.0,0.0,0.0,0.0,0.0,0.0,0.0,0.0,0.0,0.0,0.0,0.0,0.0,0.0,0.0,0.0,0.0,0.0,0.0,0.0,0.0,0.0,0.0,0.0,0.0,0.0,0.0,0.0,0.0,0.0,0.0,0.0,0.0,0.0,0.0,0.0,0.0,0.0,0.0,0.0,0.0,0.0,0.0,0.0,0.0,0.0,0.0,0.0,0.0,0.0,0.0,0.0,0.0,0.0,0.0,0.0,0.0,0.0,0.0,0.0,0.0,0.0,0.0,0.0,0.0,0.0,0.0,0.0,0.0,0.0,0.0,0.0,0.0,0.0,0.0,0.0,0.0,0.0,0.0,0.0,0.0,0.0,0.0,0.0,0.0,0.0,0.0,0.0,0.0,0.0,0.0,0.0,0.0,0.0,0.0,0.0,0.0,0.0,0.0,0.0,0.0,0.0,0.0,0.0,0.0,0.0,0.0,0.0,0.0,0.0,0.0,0.0,0.0,0.0,0.0,0.0,0.0,0.0,0.0,0.0,0.0,0.0,0.0,0.0,0.0,0.0,0.0,0.0,0.0,0.0,0.0,0.0,0.0,0.0,0.0,0.0,0.0,0.0,0.0,0.0,0.0,0.0,0.0,0.0,0.0,0.0,0.0,0.0,0.0,0.0,0.0,0.0,0.0,0.0,0.0,0.0,0.0,0.0,0.0,0.0,0.0,0.0,0.0,0.0,0.0,0.0,0.0,0.0,0.0,0.0,0.0,0.0,0.0,0.0,0.0,0.0,0.0,0.0,0.0,0.0,0.0,0.0,0.0,0.0,0.0,0.0,0.0,0.0,0.0,0.0,0.0,0.0,0.0,0.0,0.0,0.0,0.0,0.0,0.0,0.0,0.0,0.0,0.0,0.0,0.0,0.0,0.0,0.0,0.0,0.0,0.0,0.0,0.0,0.0,0.0,0.0,0.0,0.0,0.0,0.0,0.0,0.0,0.0,0.0,0.0,0.0,0.0,0.0,0.0,0.0,0.0,0.0,0.0,0.0,0.0,0.0,0.0,0.0,0.0,0.0,0.0,0.0,0.0,0.0,0.0,0.0,0.0,0.0,0.0,0.0,0.0,0.0,0.0,0.0,0.0,0.0,0.0,0.0,0.0,0.0,0.0,0.0,0.0,0.0,0.0,0.0,0.0,0.0,0.0,0.0,0.0,0.0,0.0,0.0,0.0,0.0,0.0,0.0,0.0,0.0,0.0,0.0,0.0,0.0,0.0,0.0,0.0,0.0,0.0,0.0,0.0,0.0,0.0,0.0,0.0,0.0,0.0,0.0,0.0,0.0,0.0,0.0,0.0,0.0,0.0,0.0,0.0,0.0,0.0,0.0,0.0,0.0,0.0,0.0,0.0,0.0,0.0,0.0,0.0,0.0,0.0,0.0,0.0,0.0,0.0,0.0,0.0,0.0,0.0,0.0,0.0,0.0,0.0,0.0,0.0,0.0,0.0,0.0,0.0,0.0,0.0,0.0,0.0,0.0,0.0,0.0,0.0,0.0,0.0,0.0,0.0,0.0,0.0,0.0,0.0,0.0,0.0,0.0,0.0,0.0,0.0,0.0,0.0,0.0,0.0,0.0,0.0,0.0,0.0,0.0,0.0,0.0,0.0,0.0,0.0,0.0,0.0,0.0,0.0,0.0,0.0,0.0,0.0,0.0,0.0,0.0,0.0,0.0,0.0,0.0,0.0,0.0,0.0,0.0,0.0,0.0,0.0,0.0,0.0,0.0,0.0,0.0,0.0,0.0,0.0,0.0,0.0,0.0,0.0,0.0,0.0,0.0,0.0,0.0,0.0,0.0,0.0,0.0,0.0,0.0,0.0,0.0,0.0,0.0,0.0,0.0,0.0,0.0,0.0,0.0,0.0,0.0,0.0,0.0,0.0,0.0,0.0,0.0,0.0,0.0,0.0,0.0,0.0,0.0,0.0,0.0,0.0,0.0,0.0,0.0,0.0,0.0,0.0,0.0,0.0,0.0,0.0,0.0,0.0,0.0,0.0,0.0,0.0,0.0,0.0,0.0,0.0,0.0,0.0,0.0,0.0,0.0,0.0,0.0,0.0,0.0,0.0,0.0,0.0,0.0,0.0,0.0,0.0,0.0,0.0,0.0,-1.8467,-1.8257,0.0,0.0,0.0,0.0,0.0,0.0,0.0,0.0,0.0,0.0,0.0,0.0,0.0,0.0,0.0,0.0,0.0,0.0,0.0,0.0,0.0,0.0,0.0,0.0,0.0,0.0,0.0,0.0,0.0,0.0,0.0,0.0,0.0,0.0,0.0,0.0,0.0,0.0,-0.9007,-0.9219,-0.9249,-0.9985,-1.0541,-1.0953,0.0,0.0,0.0,0.0,0.0,0.0,0.0,0.0,0.0,0.0,0.0,0.0,0.0,0.0,0.0,0.0,0.0,0.0,0.0,0.0,0.0,0.0,0.0,0.0,0.0,0.0,0.0,0.0,0.0,0.0,0.0,0.0,0.0,0.0,0.0,0.0,0.0,0.0,0.0,0.0,0.0,0.0,0.0,0.0,0.0,0.0,0.0,0.0,0.0,0.0,0.0,0.0,0.0,0.0,0.0,0.0,0.0,0.0,0.0,0.0,0.0,0.0,0.0,0.0,0.0,0.0,0.0,0.0,0.0,0.0,-1.9828,-1.9359,0.0,0.0,0.0,0.0,0.0,0.0,0.0,0.0,0.0,0.0,0.0,0.0,0.0,0.0,0.0,0.0,0.0,0.0,0.0,0.0,0.0,0.0,0.0,0.0,-0.7558,-0.7981,-0.8275,-0.8308,0.0,0.0,0.0,0.0,0.0,0.0,0.0,-0.8553,-0.8413,-0.7979,-0.873,-0.9305,-0.9751,-0.9836,-1.0049,-1.0392,-1.1301,0.0,0.0,0.0,0.0,0.0,0.0,0.0,0.0,0.0,0.0,0.0,0.0,0.0,0.0,0.0,0.0,0.0,0.0,0.0,0.0,0.0,0.0,0.0,0.0,0.0,0.0,0.0,0.0,0.0,0.0,0.0,0.0,0.0,0.0,0.0,0.0,0.0,0.0,0.0,0.0,0.0,0.0,0.0,0.0,0.0,0.0,0.0,0.0,0.0,0.0,0.0,0.0,0.0,0.0,0.0,0.0,0.0,0.0,0.0,0.0,0.0,0.0,0.0,-2.1987,-2.2066,-2.209,-2.2628,-2.2462,-2.1741,-2.1719,-2.1055,-2.0024,-1.9872,0.0,0.0,0.0,0.0,0.0,0.0,0.0,0.0,0.0,0.0,0.0,0.0,0.0,0.0,0.0,0.0,0.0,0.0,0.0,0.0,0.0,-0.7118,-0.7391,-0.7328,-0.737,-0.7495,-0.7724,0.0,0.0,0.0,0.0,0.0,-0.7412,-0.7972,-0.8282,-0.8339,-0.8784,-0.9063,-0.912,-0.9585,-1.0066,-1.0576,-1.1352,-1.1983,-1.2433,0.0,0.0,0.0,0.0,0.0,0.0,0.0,0.0,0.0,0.0,0.0,0.0,0.0,0.0,0.0,0.0,0.0,0.0,0.0,0.0,0.0,0.0,0.0,0.0,0.0,0.0,0.0,0.0,0.0,0.0,0.0,0.0,0.0,0.0,0.0,0.0,0.0,0.0,0.0,0.0,0.0,-1.8821,-1.77,0.0,0.0,0.0,0.0,0.0,0.0,0.0,0.0,0.0,0.0,0.0,0.0,0.0,-2.1219,-2.2211,-2.1861,-2.1739,-2.1812,-2.2394,-2.2688,-2.2683,-2.3256,-2.3794,-2.431,-2.414,0.0,-2.0883,-2.0183,0.0,0.0,0.0,0.0,0.0,0.0,0.0,0.0,0.0,0.0,0.0,0.0,0.0,0.0,0.0,0.0,0.0,0.0,0.0,0.0,0.0,-0.6647,-0.6795,-0.7112,-0.7167,-0.7139,-0.6982,-0.6892,0.0,0.0,0.0,-0.719,-0.7138,-0.7975,-0.8712,-0.9304,-0.9213,-0.9316,-0.9632,-0.9984,-1.0551,-1.1316,-1.2162,-1.2787,-1.3132,-1.2246,0.0,0.0,0.0,0.0,0.0,0.0,0.0,0.0,0.0,0.0,0.0,0.0,0.0,0.0,0.0,0.0,0.0,0.0,0.0,0.0,0.0,0.0,0.0,0.0,0.0,0.0,0.0,0.0,0.0,0.0,0.0,0.0,0.0,0.0,0.0,0.0,0.0,0.0,0.0,-1.8122,-1.8396,-1.7059,-1.7546,-1.7285,0.0,0.0,0.0,0.0,0.0,0.0,0.0,0.0,0.0,-1.8645,-2.0138,-2.1249,-2.1859,-2.2339,-2.2885,-2.3427,-2.3731,-2.4036,-2.4331,-2.4552,-2.4871,-2.5182,-2.5118,-2.4331,-2.3081,-2.2384,-2.1489,-2.0459,0.0,0.0,0.0,0.0,-1.7884,-1.7611,0.0,0.0,0.0,0.0,0.0,0.0,0.0,0.0,0.0,0.0,0.0,0.0,-0.6443,-0.6215,-0.6263,-0.6866,-0.6832,-0.6624,-0.6301,-0.6437,0.0,0.0,-0.6738,-0.6834,-0.6941,-0.7988,-0.8996,-0.9976,-0.9821,-0.9977,-1.0454,-1.0642,-1.1147,-1.1958,-1.2957,-1.3522,-1.3649,-1.2761,-1.2624,-1.2867,0.0,0.0,0.0,0.0,0.0,0.0,0.0,0.0,0.0,0.0,0.0,0.0,0.0,0.0,0.0,0.0,0.0,0.0,0.0,0.0,0.0,0.0,0.0,0.0,0.0,0.0,0.0,0.0,0.0,0.0,0.0,0.0,0.0,0.0,0.0,0.0,0.0,-1.7908,-1.8302,-1.6379,-1.7496,-1.7593,0.0,0.0,0.0,0.0,0.0,0.0,-1.7252,-1.8273,-1.9036,-1.9449,-2.0881,-2.1834,-2.2282,-2.3296,-2.4155,-2.4895,-2.4895,-2.5127,-2.5481,-2.5288,-2.5299,-2.5504,-2.5435,-2.5247,-2.4834,-2.4086,-2.3055,-2.1892,-2.0896,-2.0064,-1.944,-1.9343,-1.9076,-1.8817,0.0,0.0,0.0,0.0,0.0,0.0,0.0,0.0,0.0,0.0,0.0,-0.6252,-0.5963,-0.5862,-0.597,-0.6389,-0.5923,-0.569,-0.5903,-0.583,-0.5974,-0.6487,-0.6346,-0.6338,-0.6534,-0.7708,-0.8826,-0.9888,-1.0591,-1.1076,-1.1329,-1.1533,-1.1833,-1.2227,-1.3435,-1.3876,-1.3721,-1.4251,-1.4179,-1.363,-1.2353,0.0,0.0,0.0,0.0,0.0,0.0,0.0,0.0,0.0,0.0,0.0,0.0,0.0,0.0,0.0,0.0,0.0,0.0,0.0,0.0,0.0,0.0,0.0,0.0,0.0,0.0,0.0,0.0,0.0,0.0,0.0,0.0,0.0,0.0,0.0,0.0,0.0,0.0,-1.6429,-1.8084,0.0,0.0,0.0,0.0,-1.7409,-1.7913,-1.8223,-1.8214,-1.9262,-2.028,-2.1248,-2.2958,-2.4306,-2.5249,-2.5355,-2.5401,-2.5447,-2.5447,-2.547,-2.5492,-2.4703,-2.4781,-2.5477,-2.5281,-2.5333,-2.5367,-2.4132,-2.3277,-2.2653,-2.1825,-2.1316,-2.1041,-2.1335,-2.0975,-2.0457,0.0,0.0,0.0,0.0,0.0,0.0,0.0,0.0,-0.606,-0.5739,-0.555,-0.5447,-0.544,-0.5346,-0.5422,-0.5715,-0.5563,-0.5408,-0.5321,-0.5483,-0.5663,-0.5837,-0.5839,-0.6347,-0.75,-0.8196,-0.9243,-1.0617,-1.1042,-1.1357,-1.1601,-1.1806,-1.2214,-1.292,-1.4497,-1.5247,-1.5274,-1.489,-1.4618,-1.4326,-1.3116,-1.2508,0.0,0.0,0.0,0.0,0.0,0.0,0.0,0.0,0.0,0.0,0.0,0.0,0.0,0.0,0.0,0.0,0.0,0.0,0.0,0.0,0.0,0.0,0.0,0.0,0.0,0.0,0.0,0.0,0.0,0.0,0.0,0.0,0.0,0.0,0.0,0.0,0.0,-1.8426,-1.9966,0.0,-1.8037,-1.8213,-1.8384,-1.8298,-1.91,-1.9719,-1.9976,-2.0969,-2.1886,-2.2555,-2.3165,-2.3802,-2.4446,-2.4457,-2.4607,-2.4855,-2.4855,-2.4855,-2.4855,-2.4565,-2.4607,-2.4866,-2.4787,-2.4807,-2.4834,-2.4379,-2.4142,-2.3974,-2.3295,-2.2681,-2.2197,-2.2381,-2.197,-2.1381,0.0,0.0,0.0,0.0,0.0,0.0,0.0,0.0,-0.5636,-0.5458,-0.5093,-0.4913,-0.5117,-0.5029,-0.5079,-0.5382,-0.5311,-0.5206,-0.5097,-0.5249,-0.5324,-0.5333,-0.5728,-0.6674,-0.8254,-0.8829,-0.9831,-1.1289,-1.1552,-1.1852,-1.219,-1.2374,-1.2826,-1.3515,-1.5152,-1.604,-1.6328,-1.6138,-1.5936,-1.5576,-1.4293,-1.3458,-1.2836,0.0,0.0,0.0,0.0,0.0,0.0,0.0,0.0,0.0,0.0,0.0,0.0,0.0,0.0,0.0,0.0,0.0,0.0,0.0,0.0,0.0,0.0,0.0,0.0,0.0,0.0,0.0,0.0,0.0,0.0,0.0,0.0,0.0,0.0,-1.8748,-2.0162,-1.9265,-2.0836,-2.1357,-1.9797,-1.9903,-2.0058,-1.9976,-2.1079,-2.1703,-2.1693,-2.2503,-2.3101,-2.3412,-2.3422,-2.3639,-2.4095,-2.4105,-2.425,-2.4497,-2.4497,-2.4497,-2.4497,-2.4497,-2.4497,-2.4497,-2.4497,-2.4497,-2.4497,-2.4497,-2.4564,-2.4585,-2.4205,-2.3688,-2.3207,-2.3377,-2.2979,-2.2402,0.0,0.0,0.0,0.0,0.0,0.0,0.0,-0.5744,-0.5498,-0.4982,-0.4791,-0.4775,-0.4976,-0.4942,-0.5036,-0.5361,-0.5087,-0.5013,-0.5261,-0.511,-0.5012,-0.5039,-0.6069,-0.7308,-0.8692,-0.9518,-1.0593,-1.1919,-1.214,-1.2526,-1.3147,-1.3338,-1.3621,-1.397,-1.5321,-1.6187,-1.6746,-1.8091,-1.8199,-1.7383,-1.5973,-1.5342,-1.4965,0.0,0.0,0.0,0.0,0.0,0.0,0.0,0.0,0.0,0.0,0.0,0.0,0.0,0.0,0.0,0.0,0.0,0.0,0.0,0.0,0.0,0.0,0.0,0.0,0.0,0.0,0.0,0.0,0.0,0.0,0.0,0.0,0.0,-1.6407,-1.9297,-2.0735,-1.8913,-2.0648,-2.1553,-2.0385,-2.1056,-2.1837,-2.2563,-2.3826,-2.4198,-2.3318,-2.3743,-2.3939,-2.3939,-2.3971,-2.4126,-2.4518,-2.4507,-2.4497,-2.4497,-2.4497,-2.4507,-2.4518,-2.4518,-2.4528,-2.4538,-2.4528,-2.4518,-2.4518,-2.4507,-2.4497,-2.4497,-2.4497,-2.4281,-2.395,-2.4342,-2.4091,-2.352,0.0,0.0,0.0,0.0,0.0,0.0,0.0,-0.5836,-0.5228,-0.5323,-0.4955,-0.4775,-0.4976,-0.4942,-0.4961,-0.5179,-0.5082,-0.5038,-0.5004,-0.4963,-0.5238,-0.5912,-0.7119,-0.8234,-0.9258,-1.0201,-1.1296,-1.249,-1.2739,-1.3199,-1.3899,-1.3938,-1.4227,-1.4663,-1.5921,-1.7082,-1.8091,-1.9071,-1.9724,-1.9991,-1.8373,-1.6905,-1.5631,0.0,0.0,0.0,0.0,0.0,0.0,0.0,0.0,0.0,0.0,0.0,0.0,0.0,0.0,0.0,0.0,0.0,0.0,0.0,0.0,0.0,0.0,0.0,0.0,0.0,0.0,0.0,0.0,0.0,0.0,0.0,-1.7845,-1.9503,-1.9107,-2.0835,-2.2311,-2.2795,-2.3701,-2.4294,-2.4321,-2.4516,-2.4766,-2.4933,-2.5295,-2.5399,-2.515,-2.5254,-2.5326,-2.5326,-2.5026,-2.4923,-2.5003,-2.4662,-2.4497,-2.4497,-2.4497,-2.4673,-2.5003,-2.5003,-2.5213,-2.5492,-2.5181,-2.5003,-2.4972,-2.4631,-2.4497,-2.4497,-2.4497,-2.4425,-2.4332,-2.4284,-2.4029,-2.3723,0.0,0.0,0.0,0.0,0.0,0.0,0.0,-0.5916,-0.5368,-0.5457,-0.5022,-0.475,-0.4866,-0.4973,-0.5081,-0.5202,-0.5148,-0.5092,-0.5101,-0.5346,-0.6004,-0.7183,-0.8187,-0.9316,-1.0574,-1.1323,-1.2209,-1.3216,-1.3428,-1.3836,-1.4385,-1.4464,-1.479,-1.5357,-1.6069,-1.7077,-1.8287,-1.9138,-2.003,-2.0818,-2.0207,-1.8919,-1.7255,-1.6657,-1.5744,-1.4744,-1.4478,-1.4639,-1.4883,-1.4375,0.0,0.0,0.0,0.0,0.0,0.0,0.0,0.0,0.0,0.0,0.0,0.0,0.0,0.0,0.0,0.0,0.0,0.0,0.0,0.0,0.0,0.0,0.0,0.0,-1.958,-2.1591,-2.2171,-2.3024,-2.3949,-2.4954,-2.5337,-2.5595,-2.5854,-2.6096,-2.6127,-2.5885,-2.6283,-2.6335,-2.5941,-2.6107,-2.6082,-2.593,-2.5637,-2.5502,-2.5502,-2.5233,-2.5099,-2.5099,-2.5099,-2.5244,-2.5502,-2.5502,-2.5637,-2.5854,-2.542,-2.5189,-2.5148,-2.4683,-2.4497,-2.4497,0.0,0.0,0.0,0.0,-2.4239,-2.4057,0.0,0.0,0.0,0.0,0.0,0.0,0.0,-0.6081,-0.5714,-0.5495,-0.5042,-0.475,-0.4783,-0.508,-0.533,-0.5506,-0.5275,-0.5201,-0.5422,-0.61,-0.7137,-0.8602,-0.9345,-1.0478,-1.2135,-1.259,-1.3188,-1.3998,-1.4163,-1.4421,-1.4765,-1.4928,-1.5338,-1.5972,-1.6009,-1.6684,-1.7811,-1.8749,-1.9684,-2.0622,-2.1531,-2.0928,-1.9385,-1.8139,-1.7586,-1.745,-1.689,-1.6558,-1.6326,-1.6105,0.0,0.0,0.0,0.0,0.0,0.0,0.0,0.0,0.0,0.0,0.0,0.0,0.0,0.0,0.0,0.0,0.0,0.0,0.0,0.0,0.0,0.0,0.0,0.0,-2.1192,-2.3207,-2.5096,-2.5385,-2.5585,-2.5962,-2.6003,-2.5978,-2.603,-2.6449,-2.6521,-2.6107,-2.6843,-2.6946,-2.6082,-2.647,0.0,0.0,0.0,-2.6003,-2.6003,-2.5951,-2.5875,-2.5875,-2.5875,-2.5951,-2.6003,-2.6003,-2.6003,-2.5937,-2.5492,-2.523,-2.5148,-2.4683,-2.4497,-2.4497,-2.4497,-2.4497,-2.4497,-2.4497,-2.4497,-2.4497,0.0,0.0,0.0,0.0,0.0,0.0,0.0,-0.6577,-0.5847,-0.5952,-0.5311,-0.5011,-0.538,-0.5498,-0.5714,-0.6178,-0.5583,-0.5346,-0.5698,-0.6906,-0.8221,-0.9659,-1.0513,-1.151,-1.274,-1.3089,-1.3656,-1.4444,-1.4477,-1.49,-1.5638,-1.5681,-1.5928,-1.6338,-1.6602,-1.7273,-1.8249,-1.9134,-2.0237,-2.1498,-2.1771,-2.1475,-2.0791,-2.0547,-2.0011,-1.9377,-1.9253,-1.9165,-1.9036,-1.8275,-1.812,-1.8087,-1.7481,-1.65,0.0,0.0,0.0,0.0,0.0,0.0,0.0,0.0,0.0,0.0,0.0,0.0,0.0,0.0,0.0,0.0,0.0,0.0,0.0,-2.0244,-2.3074,-2.5427,-2.6206,-2.6677,-2.6812,-2.6511,-2.648,-2.6625,-2.7009,-2.7123,-2.7133,-2.705,-2.7206,-2.7226,-2.705,-2.7123,-2.7133,-2.704,-2.6677,-2.648,-2.648,-2.6107,-2.5875,-2.5875,-2.5875,0.0,-2.648,-2.648,-2.648,-2.6459,-2.5947,-2.5554,-2.5148,-2.4683,-2.4497,-2.4497,-2.4497,-2.4497,-2.4497,-2.4497,-2.4497,-2.4454,0.0,0.0,0.0,0.0,0.0,0.0,0.0,-0.6958,-0.6242,-0.6243,-0.5619,-0.5147,-0.5147,-0.54,-0.5578,-0.5697,-0.5712,-0.5871,-0.6272,-0.781,-0.9261,-1.0502,-1.1428,-1.2452,-1.3651,-1.3753,-1.4177,-1.5018,-1.5177,-1.5472,-1.5921,-1.6074,-1.6309,-1.6668,-1.6829,-1.725,-1.7896,-1.9286,-2.0293,-2.1016,-2.2054,-2.234,-2.2097,-2.1719,-2.1289,-2.0898,-2.0898,-2.0762,-2.0469,-2.004,-1.9999,-1.9945,-1.9004,-1.8185,-1.7349,0.0,0.0,0.0,0.0,0.0,0.0,0.0,0.0,0.0,0.0,0.0,0.0,0.0,0.0,-1.6971,0.0,0.0,-2.1586,-2.2369,-2.4617,-2.6428,-2.6895,-2.7164,-2.7216,-2.6988,-2.6957,-2.705,-2.7289,-2.7309,-2.7309,-2.7309,-2.7309,-2.7309,-2.7309,-2.7309,-2.7309,-2.7309,-2.7081,-2.6957,-2.6957,-2.6739,-2.6615,-2.6615,-2.6615,-2.6739,-2.6957,-2.6957,-2.6832,-2.6604,-2.6366,-2.5844,-2.5148,-2.4683,-2.4497,-2.4497,-2.4497,-2.4497,-2.4497,-2.4497,-2.4497,-2.4497,0.0,0.0,0.0,0.0,0.0,0.0,0.0,-0.728,-0.6742,-0.6575,-0.597,-0.5441,-0.5148,-0.5395,-0.5424,-0.5037,-0.5852,-0.6537,-0.6909,-0.8685,-1.0217,-1.1294,-1.2177,-1.3236,-1.4489,-1.4348,-1.4656,-1.5484,-1.5789,-1.5979,-1.6104,-1.6352,-1.6683,-1.6991,-1.6991,-1.7222,-1.7692,-1.9467,-2.0322,-2.0638,-2.2413,-2.3091,-2.3023,-2.2383,-2.2129,-2.2119,-2.2041,-2.1562,-2.0976,-2.1229,-2.1272,-2.0984,-2.008,-1.9743,-1.9257,-1.705,-1.6165,0.0,0.0,0.0,0.0,0.0,0.0,0.0,0.0,0.0,-1.6988,-1.8647,-1.9276,-1.9757,-2.041,-2.2117,-2.3629,-2.4315,-2.5723,-2.6884,-2.7258,-2.7309,-2.7309,-2.7309,-2.7309,-2.7309,-2.7309,-2.7309,-2.7309,-2.7309,-2.7309,-2.7309,-2.7309,-2.7309,-2.7309,-2.7309,-2.7309,-2.7309,-2.7309,-2.7309,-2.7309,-2.7309,-2.7309,-2.7309,-2.7309,-2.7216,-2.6915,-2.647,-2.6248,-2.5761,-2.5024,-2.4652,-2.4497,-2.4497,-2.4497,-2.4497,-2.4497,-2.4497,-2.4497,-2.4497,0.0,0.0,0.0,0.0,0.0,0.0,0.0,0.0,-0.7134,-0.7112,-0.6534,-0.6241,-0.662,-0.6177,-0.5629,-0.5055,-0.6272,-0.7182,-0.7415,-0.9342,-1.0967,-1.2112,-1.2792,-1.3539,-1.4489,-1.4472,-1.4926,-1.5819,-1.5899,-1.6199,-1.6793,-1.6829,-1.6974,-1.7274,-1.7274,-1.7747,-1.8696,-1.9733,-2.0737,-2.1596,-2.2687,-2.3091,-2.3081,-2.2994,-2.2955,-2.2906,-2.2578,-2.1416,-2.0244,-2.1416,-2.083,-1.9789,-2.1182,-2.0681,-1.9338,-1.786,-1.6376,-1.4877,-1.3386,-1.3722,-1.4787,-1.5892,-1.6713,-1.7707,0.0,0.0,-1.9814,-2.0761,-2.1014,-2.1197,-2.1703,-2.3094,-2.4325,-2.4774,-2.6187,-2.7247,-2.7299,-2.7309,-2.7309,-2.7309,-2.7309,-2.7309,-2.7309,-2.7309,-2.7309,-2.7309,-2.7309,-2.7309,-2.7309,-2.7309,-2.7309,-2.7309,-2.7309,-2.7309,-2.7309,-2.7309,-2.7309,-2.7309,-2.7309,-2.7309,-2.7299,-2.6884,-2.6438,-2.5906,-2.5109,-2.4673,-2.4569,-2.4518,-2.4497,-2.4497,-2.4497,-2.4497,-2.4497,-2.4497,-2.4497,-2.4497,0.0,0.0,0.0,0.0,0.0,0.0,0.0,0.0,0.0,-0.7368,-0.6857,-0.6524,-0.6607,-0.604,-0.5681,-0.5701,-0.6486,-0.7321,-0.8207,-0.9847,-1.1236,-1.2253,-1.3006,-1.3724,-1.4496,-1.4511,-1.4853,-1.5593,-1.5783,-1.614,-1.6617,-1.6815,-1.7026,-1.7279,-1.7279,-1.7878,-1.888,-1.9778,-2.0782,-2.1784,-2.2731,-2.3091,-2.3042,-2.2598,-2.2246,-2.1902,-2.125,-2.0177,0.0,-1.9521,-1.9307,-1.9121,-2.0486,-2.009,-1.8898,-1.771,-1.6738,-1.5973,-1.5737,-1.6189,-1.699,-1.8112,-1.9197,-2.0262,-2.1302,-2.149,-2.1863,-2.3299,-2.3792,-2.4099,-2.4605,-2.542,-2.6094,0.0,-2.6879,-2.7309,-2.7309,-2.7309,-2.7206,-2.6936,-2.6905,-2.7009,-2.7278,-2.7309,-2.7309,-2.7309,-2.7309,-2.7309,-2.7309,-2.7309,-2.7309,-2.7309,-2.7309,-2.7175,-2.6905,-2.7175,-2.7164,-2.6905,-2.7175,-2.7164,-2.6895,-2.6708,-2.6366,-2.5823,-2.4933,-2.4652,-2.4879,-2.4611,-2.4497,-2.4497,-2.4497,-2.4497,-2.4497,-2.4497,-2.4497,-2.4497,0.0,0.0,0.0,0.0,0.0,0.0,0.0,0.0,0.0,0.0,-0.7258,-0.6866,-0.6621,-0.6185,-0.6048,-0.6358,-0.689,-0.7666,-0.875,-1.0186,-1.1333,-1.2053,-1.2895,-1.3623,-1.4225,-1.4328,-1.4692,-1.5389,-1.5749,-1.6159,-1.6558,-1.6929,-1.7249,-1.7572,-1.7382,-1.8064,-1.943,-1.9968,-2.0917,-2.2148,-2.2828,-2.2955,-2.2672,-2.1982,-2.0947,-1.9837,-1.9348,-1.8592,-1.7784,-1.7272,-1.7369,-1.79,-1.9002,-1.8993,-1.8387,-1.722,-1.6316,-1.5967,-1.7009,-1.777,-1.8637,-1.9996,-2.1455,-2.2718,-2.3298,-2.3525,-2.4033,-2.5492,-2.6041,-2.6407,-2.6739,-2.7081,-2.7309,-2.7309,-2.7309,-2.7309,-2.7309,-2.7195,-2.6988,-2.6656,-2.6501,-2.6563,-2.6895,-2.704,-2.7164,-2.7299,-2.7309,-2.7309,-2.7309,-2.7309,-2.7309,-2.7309,-2.7309,-2.7143,-2.6812,-2.7133,-2.7133,-2.6812,-2.7019,-2.6946,-2.6604,-2.631,-2.5947,-2.5471,-2.4776,-2.4683,-2.4972,-2.4631,-2.4497,-2.4497,-2.4497,-2.4497,-2.4497,-2.4497,-2.4497,-2.4497,0.0,0.0,0.0,0.0,0.0,0.0,0.0,0.0,0.0,0.0,0.0,0.0,0.0,-0.7013,-0.6926,-0.6885,-0.7726,-0.8431,-0.8874,-1.0348,-1.1326,-1.1622,-1.2511,-1.3177,-1.3514,-1.3836,-1.4465,-1.5389,-1.5854,-1.6404,-1.7007,-1.7325,-1.7756,-1.8237,-1.7603,-1.8657,-2.0898,-2.0421,-2.132,-2.3047,-2.3101,-2.2646,-2.1875,-2.1385,-1.935,-1.6799,-1.7145,-1.6725,-1.5863,-1.5147,-1.5156,-1.5694,-1.6843,-1.7624,-1.7845,-1.6455,-1.475,-1.375,-1.5723,-1.7114,-1.8609,-2.1112,-2.3071,-2.4642,-2.5575,-2.6169,-2.6635,-2.7143,-2.7258,-2.7268,-2.7289,-2.7299,-2.7309,-2.7309,-2.7309,-2.7309,-2.7309,-2.6915,-2.6635,-2.6615,-2.6221,-2.5951,-2.5962,-2.6366,-2.6822,-2.7278,-2.7309,-2.7309,-2.7309,-2.7309,-2.7309,-2.7309,-2.7309,-2.7299,-2.7289,-2.7299,-2.7299,-2.7278,-2.6843,-2.6625,-2.6584,-2.5668,-2.4972,-2.4538,-2.4507,-2.4507,-2.4518,-2.4507,-2.4497,-2.4497,-2.4497,-2.4497,-2.4497,-2.4497,-2.4497,-2.4497,0.0,0.0,0.0,0.0,0.0,0.0,0.0,0.0,0.0,0.0,0.0,0.0,0.0,0.0,0.0,0.0,-0.8333,-0.8733,-0.9767,-1.0512,-1.1138,-1.1646,-1.2324,-1.2943,-1.3484,-1.3601,-1.4033,-1.4794,-1.5443,-1.598,-1.6431,-1.7017,-1.7514,-1.7925,-1.8093,-1.9051,-2.0615,-2.0566,-2.1345,-2.2646,-2.1777,-2.126,-2.085,-1.8919,-1.7366,-1.5883,0.0,-1.293,-1.246,-1.2632,-1.2978,-1.3588,-1.5089,-1.5695,-1.566,-1.4696,-1.462,-1.5273,-1.7142,-1.9274,-2.1477,-2.3546,-2.4995,-2.6051,-2.6708,-2.6957,-2.7029,-2.6884,-2.5799,-2.4825,-2.4516,-2.4464,-2.4567,-2.4867,-2.5974,-2.6957,-2.7268,-2.7175,-2.6843,-2.6231,-2.6024,0.0,0.0,-2.6299,-2.6677,-2.6832,-2.7133,-2.7309,-2.7309,-2.7309,-2.7309,-2.7309,-2.7309,-2.7164,-2.6853,-2.6853,-2.6687,-2.6387,-2.5896,-2.5678,-2.5668,-2.5323,-2.4931,-2.4518,-2.4828,-2.4786,-2.4497,-2.4497,-2.4497,-2.4497,-2.4497,-2.4497,-2.4497,-2.4497,-2.4497,-2.4497,0.0,0.0,0.0,0.0,0.0,0.0,0.0,0.0,0.0,0.0,0.0,0.0,0.0,0.0,0.0,0.0,0.0,-0.9185,-1.0057,-1.0472,-1.0869,-1.1225,-1.1848,-1.2294,-1.2582,-1.2704,-1.2972,-1.3399,-1.4312,-1.4956,-1.5281,-1.6198,-1.6911,-1.7423,-1.7796,-1.8716,-2.0,-2.0017,-2.0365,-2.083,-2.0066,-1.9262,-1.8355,-1.667,-1.5381,0.0,-1.2011,-1.0894,-1.0518,-1.1016,-1.1733,-1.2609,-1.3752,-1.4328,-1.4527,-1.4388,-1.5339,-1.6922,0.0,-2.1383,-2.3432,-2.5254,-2.6268,-2.6946,-2.7237,-2.7185,-2.6926,-2.647,-2.4794,-2.3361,-2.3022,-2.2531,-2.2276,-2.2563,-2.3792,-2.5008,-2.5892,-2.5995,-2.6016,-2.6123,-2.5978,-2.5875,0.0,-2.6299,-2.6687,-2.6853,-2.7133,-2.7309,-2.7309,-2.7309,-2.7309,-2.7309,-2.7309,-2.7164,-2.6864,-2.6864,-2.6542,-2.5875,-2.544,-2.5096,-2.4941,-2.4941,-2.4786,-2.4518,-2.4817,-2.4776,-2.4497,-2.4497,-2.4497,-2.4497,-2.4497,-2.4497,-2.4497,-2.4497,-2.4497,-2.4497,0.0,0.0,0.0,0.0,0.0,0.0,0.0,0.0,0.0,0.0,0.0,0.0,0.0,0.0,0.0,0.0,0.0,0.0,-0.9818,-1.0246,-1.0466,-1.0411,-1.1141,-1.1376,-1.0947,-1.1324,-1.1502,-1.1447,-1.2683,-1.3472,-1.3785,-1.498,-1.6,-1.6793,-1.6728,-1.7618,-1.9065,-1.8794,-1.8371,-1.7881,-1.7967,-1.6717,-1.4774,-1.4678,-1.353,-1.1816,-1.1296,-1.0648,-1.0127,-1.0381,-1.1463,-1.2777,-1.3022,-1.371,-1.4635,-1.5577,-1.685,-1.8577,-2.1694,-2.3256,-2.4479,-2.621,-2.6978,-2.7299,-2.7278,-2.6915,-2.6418,-2.5813,-2.4176,-2.2766,0.0,0.0,-2.0639,-2.069,-2.1176,-2.2097,-2.368,-2.3812,-2.4481,0.0,0.0,0.0,0.0,0.0,-2.6812,-2.7309,-2.732,-2.7309,-2.7309,-2.7309,-2.7309,-2.7309,-2.7309,-2.7299,-2.7268,-2.7226,-2.675,-2.5802,-2.5399,-2.4921,-2.4497,-2.4518,-2.4518,-2.4497,-2.4528,-2.4518,-2.4497,-2.4497,-2.4497,-2.4497,-2.4497,-2.4497,-2.4497,-2.4497,-2.4497,-2.4497,0.0,0.0,0.0,0.0,0.0,0.0,0.0,0.0,0.0,0.0,0.0,0.0,0.0,0.0,0.0,0.0,0.0,0.0,-0.9943,-1.0204,-1.0385,-1.0472,-1.0862,-1.119,-1.1418,-1.1581,-1.1755,-1.2003,-1.2863,-1.3345,-1.3455,-1.436,-1.4885,-1.5119,-1.5551,-1.5916,-1.6188,-1.6548,-1.6479,-1.6096,-1.5623,-1.5056,-1.4306,-1.3267,-1.2488,-1.1905,-1.1376,-1.1178,-1.1209,-1.1273,-1.2662,-1.4568,-1.5615,-1.6128,-1.6562,0.0,0.0,-2.1104,-2.2604,-2.4458,-2.6117,-2.6926,-2.7216,-2.7216,-2.6874,-2.6438,-2.5544,-2.3598,-2.1632,-1.9788,-1.8331,-1.894,0.0,-2.0589,-2.2982,0.0,-2.6248,-2.6392,0.0,-2.6604,0.0,-2.6438,-2.6438,-2.6542,-2.69,-2.7696,-2.7448,-2.7309,-2.7309,-2.7309,-2.7309,-2.7309,-2.7309,-2.7143,-2.6801,-2.6082,-2.5461,-2.4881,-2.4724,-2.4611,-2.4507,-2.4859,-2.4828,-2.4518,-2.4859,-2.4817,-2.4497,-2.4497,-2.4497,-2.4497,-2.4497,-2.4497,-2.4497,-2.4497,-2.4497,-2.4497,0.0,0.0,0.0,0.0,0.0,0.0,0.0,0.0,0.0,0.0,0.0,0.0,0.0,0.0,0.0,0.0,0.0,0.0,0.0,-1.0015,-1.0155,-1.0325,-1.0525,-1.0686,-1.0808,-1.0881,-1.0921,-1.0966,-1.1769,-1.2199,-1.226,-1.3104,-1.359,-1.3774,-1.4349,-1.4594,-1.4591,-1.5044,-1.473,0.0,0.0,-1.3373,-1.2716,-1.2275,-1.2265,-1.2407,-1.2138,-1.2761,-1.3778,-1.3915,-1.4828,-1.6035,-1.7006,-1.7854,-1.8721,-1.9924,0.0,-2.3298,-2.4612,-2.5951,-2.7029,-2.7438,-2.7299,-2.6734,-2.5774,-2.5073,-2.3968,-2.1755,-1.9717,-1.8004,-1.6866,-1.7408,-1.8305,0.0,0.0,0.0,-2.5509,-2.5892,-2.6212,0.0,-2.6915,0.0,-2.7138,-2.7169,-2.7458,-2.8173,-2.781,-2.7552,-2.7552,-2.7552,-2.7458,-2.732,-2.7309,-2.7081,-2.6615,-2.5865,-2.5285,-2.4797,-2.459,-2.4497,-2.4507,-2.4766,-2.4745,-2.4507,-2.4776,-2.4735,-2.4497,-2.4497,-2.4497,-2.4497,-2.4497,-2.4497,-2.4497,-2.4497,-2.4497,-2.4497,0.0,0.0,0.0,0.0,0.0,0.0,0.0,0.0,0.0,0.0,-0.8732,0.0,0.0,0.0,0.0,0.0,0.0,0.0,0.0,0.0,-0.9892,-1.0088,-1.0244,-1.0203,-0.9938,-1.0009,-0.99,-0.9606,-1.036,-1.0795,-1.0907,-1.1663,-1.2207,-1.2563,-1.3017,-1.3292,-1.3439,-1.3679,-1.3086,-1.1993,-1.253,-1.2078,-1.1168,0.0,-1.2474,-1.2913,-1.3024,-1.4443,-1.6351,-1.6901,-1.7283,-1.7614,-1.8237,-1.9579,-2.1108,-2.2076,-2.3557,-2.5254,-2.6874,-2.7351,-2.7438,-2.7821,-2.72,-2.6123,-2.4574,-2.3432,-2.2143,-2.0062,-1.8275,-1.7004,-1.6743,-1.6684,-1.7005,-1.8005,0.0,-2.1433,-2.3834,-2.4471,-2.5348,-2.7076,-2.7309,-2.7486,-2.7883,-2.7924,-2.8061,-2.8576,-2.8245,-2.7986,-2.7875,-2.7924,-2.7717,-2.732,-2.7247,-2.6988,-2.6532,-2.602,-2.5575,-2.5096,-2.4693,-2.4497,-2.4497,-2.4497,-2.4497,-2.4497,-2.4497,-2.4497,-2.4497,-2.4497,-2.4497,-2.4497,-2.4497,-2.4497,-2.4497,-2.4497,-2.4497,-2.4497,0.0,0.0,0.0,0.0,0.0,0.0,0.0,0.0,0.0,0.0,-0.9056,-0.9036,0.0,0.0,0.0,0.0,0.0,0.0,0.0,0.0,0.0,-1.0088,-1.0293,-1.0466,-1.0634,-1.0701,-1.0701,-1.0644,-1.0778,-1.088,-1.0903,-1.1055,-1.1146,-1.1227,-1.1328,-1.1185,-1.088,-1.1405,-1.165,-1.1686,-1.1835,-1.2191,-1.2652,-1.2968,0.0,0.0,-1.2794,-1.3865,-1.5344,-1.7028,-1.8733,-2.0394,-2.1799,-2.2977,-2.396,-2.4912,-2.5937,-2.6905,-2.7216,-2.7521,-2.7821,-2.7903,-2.6951,-2.5647,-2.4058,-2.2756,0.0,-1.8184,-1.7294,-1.6644,-1.5409,-1.6751,-1.8648,-2.0387,-2.228,-2.4274,-2.6357,-2.6734,-2.69,0.0,-2.7309,-2.7486,-2.7883,-2.7924,0.0,-2.8576,-2.8535,-2.8328,-2.7945,-2.7924,-2.7717,-2.732,-2.6936,-2.6511,-2.6055,-2.5564,-2.5075,-2.4621,-2.4538,-2.4497,-2.4497,-2.4497,-2.4497,-2.4497,-2.4497,-2.4497,-2.4497,-2.4497,-2.4497,-2.4497,-2.4497,-2.4497,-2.4497,-2.4497,-2.4497,-2.4497,0.0,0.0,0.0,0.0,0.0,0.0,0.0,-0.7865,-0.8204,-0.8763,-0.9119,-0.9299,-0.9248,-0.9337,-0.9417,0.0,0.0,0.0,0.0,0.0,0.0,0.0,0.0,0.0,-1.0697,-1.0727,-1.0775,-1.0852,0.0,-1.0881,-1.091,-1.1157,-1.1398,-1.1632,-1.1629,-1.1768,-1.202,-1.2176,-1.246,-1.2815,-1.3144,-1.3503,-1.3922,0.0,0.0,0.0,0.0,-1.4773,-1.5987,-1.6678,-1.8638,-2.1081,-2.2694,-2.3981,-2.5034,-2.5978,-2.6594,-2.7102,-2.7769,-2.7779,-2.7634,-2.7862,-2.6724,-2.497,-2.288,0.0,0.0,-1.6782,-1.6196,-1.5939,-1.5253,-1.6523,-1.8201,-1.9835,-2.169,-2.3617,-2.576,-2.6346,-2.677,-2.7247,-2.7309,-2.7486,-2.7883,-2.7924,-2.8061,-2.8576,-2.8618,-2.8411,-2.7945,-2.7707,-2.7479,-2.732,-2.7092,-2.675,-2.6293,-2.5792,-2.5347,-2.4859,-2.4611,-2.4497,-2.4497,-2.4497,-2.4497,-2.4497,-2.4497,-2.4497,-2.4497,-2.4497,-2.4497,-2.4497,-2.4497,-2.4497,-2.4497,-2.4497,-2.4497,-2.4497,0.0,0.0,0.0,0.0,0.0,0.0,-0.7289,-0.7768,-0.8286,-0.8654,-0.9239,-0.9586,-0.9529,-0.9459,-0.9399,0.0,0.0,0.0,0.0,0.0,0.0,0.0,0.0,0.0,0.0,0.0,0.0,-1.0803,-1.0784,0.0,0.0,0.0,0.0,0.0,-1.2591,-1.3004,-1.3683,-1.3499,-1.3711,0.0,0.0,-1.4759,0.0,0.0,0.0,0.0,0.0,-1.5496,-1.6464,-1.6198,-1.7734,-2.008,-2.1674,-2.3298,-2.4776,-2.5675,-2.6123,-2.6599,-2.8069,-2.7945,-2.7458,-2.7717,-2.6423,-2.438,-2.1874,-2.0198,-1.8479,-1.6047,-1.5478,-1.541,-1.541,-1.6176,-1.7268,0.0,-2.0091,-2.192,-2.4403,-2.5224,-2.6041,-2.7262,-2.7372,0.0,-2.8017,-2.7976,0.0,-2.8442,-2.838,-2.8204,-2.7935,-2.75,-2.7309,-2.7309,-2.7309,-2.704,-2.647,-2.6154,-2.5761,-2.5179,-2.4817,-2.4652,-2.4642,-2.4549,-2.4497,-2.4497,-2.4497,-2.4497,-2.4497,-2.4497,-2.4497,-2.4497,-2.4497,-2.4497,-2.4497,-2.4497,-2.4497,-2.4497,0.0,0.0,0.0,0.0,0.0,0.0,-0.8018,-0.8052,-0.8422,-0.9527,-0.9687,-0.9824,-1.0176,-1.0,-0.9696,0.0,0.0,0.0,0.0,0.0,0.0,0.0,0.0,0.0,0.0,0.0,0.0,-1.0803,-1.0678,0.0,0.0,0.0,0.0,0.0,0.0,-1.3622,-1.3703,-1.3796,0.0,0.0,0.0,0.0,0.0,0.0,0.0,0.0,0.0,-1.4592,-1.5301,-1.5632,-1.6138,-1.6873,-1.8371,-2.0555,-2.2755,-2.368,0.0,0.0,-2.7452,-2.7924,-2.7769,-2.7455,-2.5947,-2.3989,-2.1803,0.0,-1.8154,-1.6412,-1.5693,-1.541,-1.541,-1.5831,-1.6678,-1.8208,-1.8879,-2.0451,-2.3861,-2.4418,-2.5273,-2.7555,0.0,0.0,-2.8462,-2.8173,-2.7945,-2.7937,-2.7614,-2.7541,-2.7903,-2.75,-2.7309,-2.7309,-2.7309,-2.6884,-2.5993,-2.6366,-2.6082,-2.5189,-2.5148,-2.5127,-2.5117,-2.4693,-2.4497,-2.4497,-2.4497,-2.4497,-2.4497,-2.4497,-2.4497,-2.4497,-2.4497,-2.4497,-2.4497,-2.4497,-2.4497,-2.4497,0.0,0.0,0.0,0.0,0.0,0.0,-0.7877,-0.8465,-0.9118,-0.9719,-1.0155,-1.0419,-1.037,-1.0553,-1.0476,-0.9942,0.0,0.0,0.0,0.0,0.0,0.0,0.0,0.0,0.0,0.0,-1.1128,-1.1404,-1.1667,0.0,0.0,0.0,0.0,0.0,0.0,0.0,-1.5314,-1.5038,0.0,0.0,0.0,0.0,0.0,0.0,0.0,0.0,0.0,0.0,-1.4913,-1.4465,-1.5216,-1.6202,-1.5427,-1.6768,-1.9192,-2.2463,-2.3587,-2.4337,-2.6879,-2.7521,-2.7417,-2.7009,-2.5176,-2.3094,-2.1336,0.0,-1.7252,-1.5949,-1.5527,-1.541,-1.541,-1.5557,-1.5958,-1.6876,-1.7466,0.0,-2.1173,-2.1835,-2.2992,-2.5427,-2.5585,-2.6104,0.0,0.0,-2.722,-2.75,-2.7413,-2.7382,-2.751,-2.7403,-2.7309,-2.7309,-2.7309,-2.7133,-2.676,-2.6387,-2.5978,-2.5616,-2.5313,-2.5044,-2.4776,-2.4869,-2.4766,-2.4497,-2.4497,-2.4497,-2.4497,-2.4497,-2.4497,-2.4497,-2.4497,-2.4497,-2.4497,-2.4497,-2.4497,-2.4497,0.0,0.0,0.0,0.0,0.0,-0.7964,-0.7915,-0.8708,-0.9477,-0.9924,-1.0378,-1.068,-1.0724,-1.0829,-1.0811,-1.0532,-1.0134,0.0,0.0,0.0,0.0,0.0,0.0,0.0,0.0,0.0,-1.1641,-1.1968,-1.2334,-1.2738,0.0,0.0,0.0,0.0,0.0,0.0,0.0,0.0,0.0,0.0,0.0,0.0,0.0,0.0,0.0,0.0,0.0,0.0,0.0,0.0,0.0,-1.5461,-1.3722,-1.4113,-1.5997,-2.0082,-2.1696,-2.2785,-2.5554,-2.6594,-2.6822,-2.649,-2.4557,-2.2358,0.0,0.0,-1.6732,-1.5791,-1.5498,-1.541,-1.541,-1.541,-1.5508,-1.585,0.0,-1.7189,-1.9129,-1.9711,-2.0926,-2.3586,0.0,-2.4446,-2.6568,-2.6806,-2.6957,-2.7289,-2.7309,-2.7309,-2.7309,-2.7309,-2.7309,-2.7309,-2.7309,-2.7247,-2.7102,-2.6594,-2.6144,-2.5875,-2.5709,-2.5316,-2.4714,-2.5034,-2.4931,-2.4497,-2.4497,-2.4497,-2.4497,-2.4497,-2.4497,-2.4497,-2.4497,-2.4497,-2.4497,-2.4497,-2.4497,-2.4497,0.0,0.0,0.0,0.0,0.0,0.0,-0.8374,-0.8683,-0.9262,-1.0271,-1.0225,-1.0469,-1.1387,-1.0721,-1.0425,-1.0942,-1.0329,0.0,0.0,0.0,0.0,0.0,0.0,0.0,0.0,0.0,-1.1264,-1.2382,-1.2335,-1.3078,-1.4586,-1.4446,-1.4985,-1.5988,0.0,0.0,0.0,0.0,0.0,0.0,0.0,0.0,0.0,0.0,0.0,0.0,0.0,0.0,0.0,0.0,0.0,0.0,0.0,-1.3258,-1.3616,-1.6032,-1.8418,-2.0769,-2.3247,-2.4881,-2.5885,-2.593,-2.4093,-2.2019,-2.0872,-1.8743,-1.6811,-1.6213,-1.5713,-1.541,-1.541,-1.541,-1.541,-1.542,-1.542,0.0,-1.8298,-1.8502,-1.953,0.0,-2.2381,-2.296,-2.5364,-2.662,-2.7299,-2.7309,-2.7309,-2.7309,-2.7309,-2.7309,-2.7309,-2.7309,-2.7309,-2.7092,-2.6625,-2.7071,-2.6832,-2.593,-2.6387,-2.6082,-2.5179,-2.5189,-2.4931,-2.4497,-2.4497,-2.4497,-2.4497,-2.4497,-2.4497,-2.4497,-2.4497,-2.4497,-2.4497,-2.4497,-2.4497,-2.4497,0.0,0.0,0.0,0.0,0.0,0.0,-0.8654,-0.9487,-1.0186,-1.0504,-1.0843,-1.0917,-1.0531,-1.0634,-1.0695,-1.0603,-1.0133,0.0,0.0,0.0,0.0,0.0,0.0,0.0,0.0,-1.2323,-1.2793,-1.3148,-1.3818,-1.4396,-1.4886,-1.5199,-1.5536,-1.5881,-1.5903,-1.5991,0.0,0.0,0.0,0.0,0.0,0.0,0.0,0.0,0.0,0.0,0.0,0.0,0.0,0.0,0.0,0.0,0.0,0.0,0.0,-1.507,-1.6554,-1.8359,-2.0824,-2.1979,-2.2467,-2.2477,-2.1056,-1.948,-1.8875,-1.7368,-1.6079,-1.5998,-1.5761,-1.5643,-1.573,-1.5812,-1.5821,-1.5624,-1.6108,0.0,0.0,0.0,0.0,-2.2057,-2.4251,-2.5815,0.0,-2.7421,-2.7935,-2.7351,-2.7541,-2.7583,-2.732,-2.7309,-2.7309,-2.7309,-2.7309,-2.7237,-2.7092,-2.6915,-2.6687,-2.6397,-2.6542,-2.6304,-2.5668,-2.5668,-2.543,-2.4952,-2.4631,-2.4497,-2.4497,-2.4497,-2.4497,-2.4497,-2.4497,-2.4497,-2.4497,-2.4497,-2.4497,-2.4497,0.0,0.0,0.0,0.0,0.0,0.0,-0.9132,-0.9799,-1.0405,-1.0781,-1.0672,-1.0488,-1.0291,-1.0255,-1.0228,-1.0181,-0.9874,0.0,0.0,0.0,0.0,0.0,0.0,0.0,-1.2198,-1.3059,-1.3505,-1.3505,-1.4321,-1.483,-1.5013,-1.5348,-1.56,-1.5792,-1.5792,-1.5859,0.0,0.0,0.0,0.0,0.0,0.0,-1.6358,0.0,0.0,0.0,0.0,0.0,0.0,0.0,0.0,0.0,0.0,0.0,0.0,0.0,-1.5097,-1.6279,-1.887,-2.0078,-2.0651,-2.0798,-1.946,0.0,-1.7936,-1.6888,-1.5979,-1.6126,-1.6168,-1.6228,-1.6407,-1.6437,-1.6324,-1.5989,-1.6545,-1.703,0.0,0.0,0.0,-2.2332,-2.4948,0.0,-2.6486,-2.7762,-2.838,-2.781,-2.7862,-2.78,-2.7521,-2.7392,-2.7309,-2.7309,-2.7309,-2.7309,-2.7309,-2.7019,-2.6791,-2.6615,-2.6615,-2.6237,-2.5637,-2.5637,-2.5482,-2.5158,-2.4693,-2.46,0.0,-2.4569,-2.4497,-2.4497,-2.4497,-2.4497,-2.4497,-2.4497,-2.4497,-2.4497,0.0,0.0,0.0,0.0,0.0,0.0,0.0,-0.9698,-1.0043,-1.0978,-0.9915,-0.942,-1.0407,-0.9643,-0.9243,-0.973,-0.966,0.0,0.0,0.0,0.0,0.0,0.0,0.0,-1.268,-1.3264,-1.3553,-1.3553,-1.4084,-1.4562,-1.5013,-1.4977,-1.5229,-1.5732,-1.5732,-1.5756,-1.5778,-1.5423,-1.5636,-1.6151,-1.5647,-1.5818,0.0,0.0,0.0,0.0,0.0,0.0,0.0,0.0,0.0,0.0,0.0,0.0,0.0,0.0,0.0,0.0,0.0,-1.8892,-1.9941,-2.0291,-1.8947,-1.7583,-1.7725,-1.6986,0.0,-1.6578,-1.6818,-1.7065,-1.7284,-1.7158,-1.6882,-1.6435,-1.6784,0.0,0.0,-1.9184,0.0,0.0,-2.49,-2.5952,-2.631,-2.7765,-2.8628,-2.8566,-2.8204,-2.7945,-2.7883,-2.7479,-2.7309,-2.7309,-2.7309,-2.7309,-2.7309,-2.7309,-2.7092,-2.6667,-2.6667,-2.6165,-2.5282,-2.5251,-2.522,-2.5158,-2.4693,-2.4745,-2.5106,-2.4673,-2.4497,-2.4497,-2.4497,-2.4497,-2.4497,-2.4497,-2.4497,-2.4497,0.0,0.0,0.0,0.0,0.0,0.0,0.0,0.0,0.0,0.0,-0.9859,-0.9396,-0.8854,-0.9145,-0.942,0.0,0.0,0.0,0.0,0.0,0.0,0.0,0.0,0.0,-1.2709,-1.3626,-1.4096,-1.4096,-1.4598,-1.4881,-1.5001,-1.4622,-1.4718,-1.5193,-1.5193,-1.542,-1.5814,-1.5922,-1.6,-1.6032,-1.5898,-1.6,0.0,0.0,0.0,0.0,-1.536,-1.488,0.0,0.0,0.0,0.0,0.0,0.0,0.0,0.0,-1.4728,-1.4783,-1.5427,0.0,-1.6605,-1.6951,-1.6597,-1.6198,0.0,0.0,0.0,0.0,0.0,0.0,0.0,-1.7376,-1.7241,-1.7016,-1.7628,-1.8288,-1.8694,-2.1575,0.0,-2.5702,-2.7053,-2.77,-2.7111,-2.8338,-2.8845,-2.8142,-2.8307,-2.8152,-2.7506,-2.7361,-2.7309,-2.7309,-2.7309,-2.7309,-2.7309,-2.7309,-2.7247,-2.7143,-2.7143,-2.6843,-2.6248,-2.5885,-2.5544,-2.5158,-2.4693,-2.4559,-2.4652,-2.4549,-2.4497,-2.4497,-2.4497,-2.4497,-2.4497,-2.4497,-2.4497,-2.4497,0.0,0.0,0.0,0.0,0.0,0.0,0.0,0.0,0.0,0.0,-0.9374,-0.9067,-0.9065,-0.9171,-0.9417,0.0,0.0,0.0,0.0,0.0,0.0,0.0,0.0,-1.2591,-1.2877,-1.3744,-1.4082,-1.3842,-1.4409,-1.4682,-1.4682,-1.4434,-1.4558,-1.5013,-1.5013,-1.5211,-1.5528,-1.5605,-1.5782,-1.5976,-1.5733,0.0,0.0,0.0,0.0,0.0,-1.523,-1.4755,0.0,-1.3875,-1.342,-1.3139,0.0,0.0,0.0,0.0,-1.478,-1.4933,-1.5149,-1.5167,-1.5192,-1.5491,-1.5517,-1.5567,-1.5911,-1.6265,0.0,0.0,0.0,0.0,0.0,-1.7938,-1.7817,-1.7562,-1.8429,0.0,0.0,0.0,-2.4382,-2.6651,-2.7307,-2.7796,-2.8462,-2.9001,-2.9094,-2.8597,-2.839,-2.8079,-2.7593,-2.7413,-2.7309,-2.7309,-2.7309,-2.7309,-2.7309,-2.7309,-2.7309,-2.7309,-2.7092,-2.675,-2.6283,-2.5782,-2.5451,-2.5158,-2.4693,-2.4621,-2.4797,-2.459,-2.4497,-2.4497,-2.4497,-2.4497,-2.4497,-2.4497,-2.4497,-2.4497,0.0,0.0,0.0,0.0,0.0,0.0,0.0,0.0,0.0,0.0,0.0,0.0,0.0,0.0,0.0,0.0,0.0,0.0,0.0,0.0,0.0,0.0,-1.2513,-1.2706,-1.3134,-1.38,-1.3887,-1.3409,-1.4013,-1.4309,-1.4309,-1.4309,-1.451,-1.4893,-1.4986,-1.5085,-1.5198,-1.5169,-1.548,-1.5952,-1.5481,0.0,0.0,0.0,0.0,0.0,0.0,0.0,0.0,-1.3745,-1.3358,-1.3099,-1.3142,0.0,0.0,0.0,0.0,0.0,-1.5364,-1.5258,-1.5093,-1.5386,-1.5441,-1.559,-1.6187,-1.6594,-1.6992,0.0,0.0,0.0,0.0,-1.8576,-1.8465,-1.8102,-1.9358,0.0,-2.3063,-2.3155,-2.4106,-2.7044,-2.7057,-2.7606,-2.9611,-2.9497,-2.927,-2.9208,-2.8411,-2.7893,-2.7821,-2.7469,-2.7309,-2.7309,-2.7309,-2.7309,-2.7309,-2.7309,-2.7268,-2.7195,-2.6801,-2.6335,-2.5771,-2.5399,-2.5148,-2.5065,-2.4662,-2.4724,-2.5055,-2.4662,-2.4497,-2.4497,-2.4497,-2.4497,-2.4497,-2.4497,-2.4497,-2.4497,0.0,0.0,0.0,0.0,0.0,0.0,0.0,0.0,0.0,0.0,0.0,0.0,0.0,0.0,0.0,0.0,0.0,0.0,0.0,0.0,0.0,-1.2789,-1.2979,-1.3127,-1.3272,-1.3926,-1.4165,-1.3974,-1.4193,-1.4309,-1.4309,-1.4309,-1.4337,-1.4434,-1.493,-1.5177,-1.5222,-1.5663,-1.5915,-1.5988,-1.5784,0.0,0.0,0.0,0.0,0.0,0.0,0.0,0.0,-1.272,-1.2774,-1.3085,-1.2968,0.0,0.0,0.0,0.0,0.0,-1.4476,-1.5238,-1.6213,-1.6481,-1.6554,-1.6676,-1.7165,-1.7205,-1.7314,0.0,0.0,0.0,0.0,-1.892,-1.9006,-1.871,-2.0788,-2.3125,-2.5158,-2.6698,-2.7658,-2.781,-2.8743,-2.925,-2.8866,-2.9114,-2.9145,-2.8752,-2.8224,-2.7759,-2.7423,-2.734,-2.7309,-2.7309,-2.7309,-2.7309,-2.7309,-2.7309,-2.7112,-2.6718,-2.6646,-2.6134,-2.5326,-2.522,-2.4972,-2.46,-2.4528,-2.4538,-2.46,-2.4528,-2.4497,-2.4497,-2.4497,-2.4497,-2.4497,-2.4497,-2.4497,-2.4497,0.0,0.0,0.0,0.0,0.0,0.0,0.0,0.0,0.0,0.0,0.0,0.0,0.0,0.0,0.0,0.0,0.0,0.0,0.0,0.0,-1.2137,-1.2452,-1.3155,-1.3537,-1.3568,-1.3982,-1.4161,-1.4093,-1.4241,-1.4434,-1.4682,-1.4434,-1.4309,-1.4321,-1.4583,-1.4712,-1.476,-1.5562,-1.5891,-1.5891,0.0,0.0,0.0,0.0,0.0,0.0,0.0,0.0,0.0,0.0,-1.3063,-1.3248,-1.3397,0.0,0.0,0.0,0.0,0.0,-1.4995,-1.5756,-1.6773,-1.7492,-1.7667,-1.7719,-1.7935,-1.8108,-1.8279,-1.8451,-1.8502,-1.8573,-1.8643,-1.9444,-2.0561,-2.1869,-2.2747,-2.3906,-2.5658,-2.6002,-2.6459,-2.7469,-2.8033,-2.8641,-2.9311,-2.9094,-2.8845,-2.8628,-2.7966,-2.7479,-2.732,-2.7309,-2.7309,-2.7309,-2.7309,-2.7309,-2.7309,-2.7061,-2.6832,-2.6615,-2.6615,-2.6103,-2.5189,-2.5189,-2.4931,-2.4497,-2.4497,-2.4497,-2.4497,-2.4497,-2.4497,-2.4497,-2.4497,-2.4497,-2.4528,-2.4776,-2.4869,-2.4869,0.0,0.0,0.0,0.0,0.0,0.0,0.0,0.0,0.0,0.0,0.0,0.0,0.0,0.0,0.0,0.0,0.0,0.0,0.0,-1.2137,-1.2249,-1.2279,-1.3116,-1.3604,-1.3624,-1.4068,-1.422,-1.4041,-1.4349,-1.4768,-1.5211,-1.459,-1.4381,-1.4498,-1.4357,-1.4381,-1.457,-1.544,-1.5814,-1.5859,0.0,0.0,0.0,0.0,0.0,0.0,0.0,0.0,0.0,0.0,0.0,0.0,0.0,0.0,0.0,-1.486,-1.5219,-1.5573,-1.5591,-1.6282,-1.7134,-1.7688,-1.7998,-1.8339,-1.8899,-1.9077,-1.9199,-1.9452,-1.9555,-1.9452,-1.9008,-2.0027,-2.1801,-2.4407,-2.451,-2.4864,-2.6475,-2.5946,-2.6008,-2.7738,-2.7806,-2.8262,-2.9704,-2.9094,-2.8566,-2.8462,-2.7717,-2.7309,-2.7309,-2.7309,-2.7309,-2.7309,-2.7309,-2.7309,-2.7309,-2.6843,-2.6563,-2.6449,-2.6299,-2.5844,-2.5024,-2.5024,-2.4828,-2.4497,-2.4497,-2.4497,-2.4497,-2.4497,-2.4497,-2.4507,-2.4621,-2.4662,-2.4704,-2.5055,-2.5189,-2.5199,0.0,0.0,0.0,0.0,0.0,0.0,0.0,0.0,0.0,0.0,0.0,0.0,0.0,0.0,0.0,0.0,0.0,0.0,0.0,-1.245,-1.2704,-1.2831,-1.2919,-1.2985,-1.3051,-1.4303,-1.4595,-1.3909,-1.473,-1.5417,-1.5894,-1.4812,-1.4595,-1.5113,-1.4546,-1.4615,-1.5153,-1.5618,-1.5869,-1.5979,-1.5859,0.0,0.0,0.0,0.0,0.0,0.0,0.0,0.0,0.0,0.0,0.0,0.0,0.0,-1.5144,-1.5172,-1.5586,-1.5942,-1.5452,-1.6449,-1.7389,-1.6323,-1.6829,-1.8159,-2.0395,-1.9965,-1.9585,-2.1259,-2.1232,-2.0798,-2.0339,-2.0726,-2.1842,-2.4166,-2.5595,-2.7003,-2.8804,-2.9373,-2.9653,-2.9787,-2.9798,-2.9684,-2.9384,-2.8907,-2.8442,-2.8007,-2.7531,-2.7309,-2.7309,-2.7309,-2.7309,-2.7309,-2.7309,-2.7309,-2.7309,-2.6843,-2.6397,-2.5972,-2.5523,-2.5024,-2.4549,-2.4549,-2.4528,-2.4497,-2.4497,-2.4497,-2.4497,-2.4497,-2.4497,-2.4538,-2.4972,-2.5137,-2.5137,-2.5179,-2.5189,-2.5241,0.0,0.0,0.0,0.0,0.0,0.0,0.0,0.0,0.0,0.0,0.0,0.0,0.0,0.0,0.0,0.0,0.0,0.0,0.0,-1.2774,-1.2701,-1.2298,-1.2678,-1.2927,-1.2993,-1.3866,-1.4393,-1.4577,-1.5323,-1.5837,-1.611,-1.5268,-1.5036,-1.5314,-1.4921,-1.5148,-1.5853,-1.6246,-1.6694,-1.7089,-1.661,-1.6572,0.0,0.0,0.0,0.0,0.0,0.0,0.0,0.0,-1.4268,-1.4347,-1.4545,-1.4956,-1.5357,-1.5481,-1.5658,-1.5825,-1.5825,-1.6788,-1.7766,-1.7502,-1.7902,-1.878,-2.0576,-2.1007,-2.1254,-2.2059,-2.2553,-2.2687,-2.2232,-2.2987,-2.4053,-2.5181,-2.6765,-2.8183,-2.9166,-2.9704,-2.9994,-2.9994,-2.9746,-2.9497,-2.9321,-2.8628,-2.811,-2.7886,-2.751,-2.7309,-2.7309,-2.7309,-2.7309,-2.7309,-2.7309,-2.7309,-2.7309,-2.6563,-2.6096,-2.5875,-2.5709,-2.5254,-2.4507,-2.4797,-2.4766,-2.4497,-2.4497,-2.4497,-2.4497,-2.4497,-2.4497,-2.4549,-2.5003,-2.5399,-2.5668,-2.5958,-2.6061,-2.6082,0.0,0.0,0.0,0.0,0.0,0.0,0.0,0.0,0.0,0.0,0.0,0.0,0.0,0.0,0.0,0.0,0.0,0.0,-1.2739,-1.2854,-1.2666,-1.1984,-1.2396,-1.2773,-1.3058,-1.363,-1.429,-1.5022,-1.5724,-1.6132,-1.6241,-1.5592,-1.5421,-1.571,-1.5466,-1.577,-1.6483,-1.6919,-1.7383,-1.7749,-1.7298,-1.7087,0.0,0.0,0.0,0.0,0.0,0.0,0.0,0.0,-1.4789,-1.4706,-1.503,-1.523,-1.5371,-1.5546,-1.5604,-1.5662,-1.5923,-1.6618,-1.7406,-1.7902,-1.8402,-1.9233,-2.1118,-2.1794,-2.2333,-2.3174,-2.3639,-2.3826,-2.365,-2.4385,-2.5158,-2.5782,-2.7293,-2.8607,-2.9218,-2.958,-2.9777,-2.9777,-2.9497,-2.9187,-2.8897,-2.8297,-2.7862,-2.7728,-2.7486,-2.7309,-2.7309,-2.7309,-2.7237,-2.7092,-2.7092,-2.7019,-2.6874,-2.6061,-2.5668,-2.5668,-2.5668,-2.5275,-2.4507,-2.4828,-2.4797,-2.4497,-2.4497,-2.4497,-2.4497,-2.4497,-2.4662,-2.4985,-2.5117,-2.5585,-2.6179,-2.6501,-2.6615,-2.6635,0.0,0.0,0.0,0.0,0.0,0.0,0.0,0.0,0.0,0.0,0.0,0.0,0.0,0.0,0.0,0.0,0.0,0.0,-1.228,-1.2646,-1.2647,-1.2118,-1.2095,-1.2447,-1.3198,-1.3753,-1.4375,-1.5106,-1.5844,-1.6275,-1.6392,-1.5731,-1.5768,-1.6405,-1.6265,-1.6507,-1.7048,-1.7589,-1.7823,-1.7823,-1.7798,-1.7749,-1.7573,0.0,0.0,0.0,0.0,0.0,0.0,0.0,-1.4926,-1.5167,-1.5044,-1.5098,-1.5235,-1.5362,-1.541,-1.5449,-1.5643,-1.5808,-1.6145,-1.7072,-1.7993,-1.9383,-2.2256,-2.2342,-2.247,-2.4724,-2.4529,-2.4033,-2.4425,-2.4518,-2.4807,-2.573,-2.7024,-2.8245,-2.9166,-2.9301,-2.9301,-2.9301,-2.929,-2.8928,-2.8007,-2.7914,-2.7738,-2.734,-2.7309,-2.7309,-2.7309,-2.7299,-2.7092,-2.6625,-2.6615,-2.6387,-2.5885,-2.5451,-2.5189,-2.5189,-2.5179,-2.4941,-2.4497,-2.4507,-2.4507,-2.4497,-2.4497,-2.4497,-2.4497,-2.4507,-2.5078,-2.5834,-2.5409,-2.5792,-2.6625,-2.6625,-2.6625,-2.6687,0.0,0.0,0.0,0.0,0.0,0.0,0.0,0.0,0.0,0.0,0.0,0.0,0.0,0.0,0.0,0.0,0.0,0.0,-1.2953,-1.3021,-1.2843,-1.2197,-1.2174,-1.2691,-1.3816,-1.5064,-1.5752,-1.5868,-1.6092,-1.6297,-1.6457,-1.6114,-1.638,-1.708,-1.6856,-1.7375,-1.8398,-1.8474,-1.8784,-1.9108,-1.8122,-1.7702,-1.7472,0.0,0.0,0.0,0.0,0.0,0.0,0.0,0.0,0.0,-1.5292,-1.5322,-1.5332,-1.5284,-1.5332,-1.5449,-1.5759,-1.6558,-1.7518,-1.8354,-1.9455,-2.0915,-2.3103,-2.3062,0.0,0.0,-2.5471,-2.5233,-2.5013,-2.5813,-2.6227,-2.5533,-2.6827,-2.8017,-2.8297,-2.8618,-2.8825,-2.8825,-2.8535,-2.8224,-2.7945,-2.7634,-2.7455,-2.732,-2.7309,-2.7309,-2.7309,-2.6998,-2.676,-2.6615,-2.6304,-2.6065,-2.5875,-2.5451,-2.5189,-2.5179,-2.4859,-2.4631,-2.4507,-2.4838,-2.4807,-2.4497,-2.4497,-2.4497,-2.4528,-2.4848,-2.5368,-2.5941,-2.6092,-2.6584,-2.7102,-2.7102,-2.7102,-2.7081,0.0,0.0,0.0,0.0,0.0,0.0,0.0,0.0,0.0,0.0,-0.9796,0.0,0.0,0.0,0.0,0.0,0.0,0.0,-1.2896,-1.2873,-1.2807,-1.2616,-1.2623,-1.3217,-1.4514,-1.5712,-1.6396,-1.6596,-1.6653,-1.6585,-1.6383,-1.6585,-1.6759,-1.6928,-1.7095,-1.7702,-1.8596,-1.8734,-1.9183,-1.9696,-1.8434,-1.7768,-1.7396,0.0,0.0,0.0,0.0,0.0,0.0,0.0,0.0,0.0,-1.5313,-1.5313,-1.5274,-1.5023,-1.5119,-1.54,-1.573,-1.6647,-1.7878,-1.9195,-2.0576,-2.2072,-2.3991,-2.4372,-2.4784,-2.6165,-2.6324,-2.6123,-2.6051,-2.6558,-2.6832,-2.6134,-2.6951,-2.7728,-2.7903,-2.8162,-2.8338,-2.8338,-2.809,-2.7852,-2.7676,-2.7417,-2.7309,-2.7309,-2.7309,-2.7309,-2.7309,-2.6864,-2.6532,-2.6345,-2.5854,-2.5533,-2.5347,-2.5044,-2.491,-2.491,-2.4631,-2.4497,-2.4507,-2.4786,-2.4766,-2.4497,-2.4497,-2.4497,-2.4518,-2.4797,-2.5326,-2.5951,-2.6231,-2.6739,-2.7309,-2.7309,-2.7309,-2.7268,0.0,0.0,0.0,0.0,0.0,0.0,0.0,0.0,0.0,0.0,-1.0043,-1.0703,0.0,0.0,0.0,0.0,0.0,0.0,0.0,-1.2413,-1.2655,-1.3193,-1.3376,-1.4033,-1.5215,-1.5933,-1.6596,-1.7192,-1.7357,-1.7075,-1.6404,-1.7072,-1.7025,-1.6404,-1.7135,-1.7706,-1.8112,-1.866,-1.9195,-1.9618,-1.8635,-1.7868,-1.7208,-1.6348,0.0,0.0,0.0,0.0,0.0,0.0,0.0,0.0,-1.5156,-1.5186,-1.5129,-1.4714,-1.4917,-1.5351,-1.5653,-1.6427,-1.7668,-1.9752,-2.1473,-2.3083,-2.4921,-2.602,-2.677,-2.7112,-2.6915,-2.6812,-2.7226,-2.6957,-2.6812,-2.7237,-2.7309,-2.7444,-2.781,-2.7862,-2.7862,-2.7862,-2.7862,-2.7707,-2.7351,-2.7268,-2.7247,-2.7247,-2.7247,-2.7226,-2.7185,-2.6781,-2.6335,-2.5834,-2.5399,-2.4921,-2.4507,-2.4497,-2.4497,-2.4497,-2.4497,-2.4497,-2.4497,-2.4497,-2.4497,-2.4497,-2.4497,-2.4497,-2.4507,-2.4549,-2.5088,-2.5823,-2.5906,-2.6501,-2.7247,-2.7289,-2.7278,-2.7237,0.0,0.0,0.0,0.0,0.0,0.0,0.0,0.0,0.0,0.0,0.0,0.0,0.0,0.0,0.0,0.0,0.0,0.0,0.0,-1.2455,-1.2728,-1.3269,-1.4237,-1.5016,-1.5509,-1.6576,-1.716,-1.7192,-1.7546,-1.7718,-1.777,-1.7422,-1.7389,-1.7641,-1.7895,-1.8245,-1.8685,-1.9321,-1.9312,-1.8874,-1.807,-1.7274,-1.6443,-1.5681,-1.5225,0.0,0.0,0.0,0.0,0.0,0.0,0.0,-1.4872,-1.499,-1.5129,-1.4714,-1.5303,-1.6039,-1.5887,-1.7153,-1.889,-2.0499,-2.304,-2.5347,-2.6113,-2.676,-2.6978,-2.6345,-2.6718,-2.7185,-2.7289,-2.7226,-2.7195,-2.7289,-2.7309,-2.734,-2.7434,-2.7455,-2.7455,-2.7455,-2.7455,-2.7413,-2.732,-2.6978,-2.677,-2.677,-2.677,-2.6604,-2.6241,-2.6127,-2.5823,-2.5388,-2.4879,-2.46,-2.4497,-2.4497,-2.4497,-2.4497,-2.4497,-2.4497,-2.4497,-2.4497,-2.4497,-2.4497,-2.4497,-2.4497,-2.4528,-2.489,-2.5148,-2.544,-2.6144,-2.6594,-2.6812,-2.7175,-2.7081,-2.6708,0.0,0.0,0.0,0.0,0.0,0.0,0.0,0.0,0.0,0.0,0.0,0.0,0.0,0.0,0.0,0.0,0.0,0.0,0.0,0.0,-1.3439,-1.4362,-1.5294,-1.5842,-1.5969,-1.7097,-1.7659,-1.7577,-1.8301,-1.8437,-1.8001,-1.8048,-1.8,-1.7918,-1.8097,-1.8227,-1.8295,-1.8638,-1.8541,-1.8097,-1.7219,-1.6613,-1.6102,-1.5274,-1.4931,-1.4843,-1.4666,0.0,0.0,0.0,0.0,0.0,0.0,0.0,-1.5129,-1.4714,-1.5215,-1.593,-1.6166,-1.7478,-1.9349,-2.1831,-2.3846,-2.5409,-2.6127,-2.647,-2.6511,-2.5978,-2.6656,-2.7309,-2.7309,-2.7309,-2.7309,-2.7309,-2.7309,-2.7309,-2.7309,-2.7309,-2.7309,-2.7309,-2.7309,-2.7309,-2.7309,-2.6884,-2.6615,-2.6615,-2.6407,-2.6179,-2.5885,-2.5689,-2.5461,-2.5199,-2.4735,-2.4497,-2.4497,-2.4497,-2.4497,-2.4497,-2.4497,-2.4497,-2.4497,-2.4497,-2.4497,-2.4497,-2.4497,-2.4497,-2.4518,-2.4755,-2.4993,-2.523,-2.5751,-2.6061,-2.6314,-2.6553,-2.649,-2.6252,0.0,0.0,0.0,0.0,0.0,0.0,0.0,0.0,0.0,0.0,0.0,0.0,0.0,0.0,0.0,0.0,0.0,0.0,0.0,0.0,0.0,-1.5525,-1.6085,-1.6371,-1.6414,-1.7476,-1.8037,-1.8037,-1.9082,-1.9081,-1.8117,-1.8734,-1.8635,-1.797,-1.8223,-1.8167,-1.7863,-1.7984,-1.7861,-1.7495,-1.6624,-1.6151,-1.5853,-1.5059,-1.4775,-1.4775,-1.4616,-1.4773,-1.5039,-1.497,0.0,0.0,0.0,0.0,-1.5013,-1.4627,-1.4963,-1.5546,-1.6087,-1.7456,-1.9554,-2.2854,-2.4033,0.0,-2.5564,-2.5771,-2.5792,-2.5865,-2.6532,-2.7071,-2.7071,-2.7071,-2.7092,-2.7175,-2.7185,-2.7216,-2.7299,-2.7309,-2.7309,-2.7309,-2.7309,-2.7278,-2.7195,-2.677,-2.647,-2.6341,-2.5978,-2.573,-2.5647,-2.5378,-2.5148,-2.5065,-2.4693,-2.4497,-2.4497,-2.4497,-2.4497,-2.4497,-2.4497,-2.4497,-2.4497,-2.4497,-2.4497,-2.4497,-2.4497,-2.4497,-2.4497,-2.4497,-2.4724,-2.5075,-2.5158,-2.5451,-2.5771,-2.5854,-2.5834,-2.5771,0.0,0.0,0.0,0.0,0.0,0.0,0.0,0.0,0.0,0.0,-1.2495,0.0,0.0,0.0,0.0,0.0,0.0,0.0,0.0,0.0,0.0,-1.5397,-1.5926,-1.6318,-1.6479,-1.7603,-1.8168,-1.8168,-1.9133,-1.9516,-1.9367,-1.9108,-1.8883,-1.866,-1.8833,-1.8722,-1.8508,-1.9101,-1.8587,-1.7407,-1.7146,-1.635,-1.5293,-1.5059,-1.5029,-1.5127,-1.497,-1.5039,-1.5127,-1.4843,-1.4872,0.0,0.0,0.0,-1.4617,-1.4264,-1.4888,-1.5514,-1.4872,-1.7032,-1.9965,0.0,-2.3329,-2.4209,0.0,0.0,-2.543,0.0,-2.5978,-2.6107,-2.6107,-2.6107,-2.6241,-2.6646,-2.6708,-2.6853,-2.7247,-2.7309,-2.7309,-2.7309,-2.7309,-2.7154,-2.675,-2.6293,-2.5813,-2.544,-2.5313,-2.5096,-2.4693,-2.5003,-2.5003,-2.4611,-2.4528,-2.4497,-2.4497,-2.4497,-2.4497,-2.4497,-2.4497,-2.4497,-2.4497,-2.4497,-2.4497,-2.4497,-2.4497,-2.4497,-2.4497,-2.4497,-2.4538,-2.4631,-2.5034,-2.522,-2.5357,-2.574,-2.5637,-2.5272,0.0,0.0,0.0,0.0,0.0,0.0,0.0,0.0,0.0,0.0,0.0,0.0,0.0,0.0,0.0,0.0,0.0,0.0,0.0,0.0,0.0,-1.5844,-1.6065,-1.6423,-1.6885,-1.7684,-1.8246,-1.8534,-1.9333,-1.9656,-1.9617,-1.9834,-1.9696,-1.9256,-1.9218,-1.8975,-1.8534,-1.8339,-1.7688,-1.6736,-1.6265,-1.6351,-1.6658,-1.5527,-1.5723,-1.6447,-1.5399,-1.5098,-1.5186,-1.5029,-1.5029,-1.5079,-1.4859,0.0,0.0,0.0,-1.4332,-1.4928,-1.5797,-1.7388,-1.9339,0.0,-2.2418,-2.2956,-2.3877,-2.4084,-2.4136,-2.4333,-2.4624,-2.5028,-2.574,-2.5875,-2.5993,-2.6144,-2.6231,-2.6304,-2.6501,-2.6532,-2.6532,-2.6532,-2.6532,-2.6449,-2.6252,-2.5782,-2.544,-2.5199,-2.4952,-2.4714,-2.4507,-2.4693,-2.4714,-2.4507,-2.4497,-2.4497,-2.4497,-2.4497,-2.4497,-2.4497,-2.4497,-2.4497,-2.4497,-2.4497,-2.4497,-2.4497,-2.4497,-2.4497,-2.4497,-2.4497,-2.4497,-2.4518,-2.4724,-2.4797,-2.4828,-2.5057,-2.4962,-2.4797,0.0,0.0,0.0,0.0,0.0,0.0,0.0,0.0,0.0,0.0,0.0,0.0,0.0,0.0,0.0,0.0,0.0,0.0,0.0,0.0,0.0,-1.6429,-1.6283,-1.6596,-1.7437,-1.7778,-1.825,-1.8846,-1.942,-1.9656,-1.9577,-2.0241,-2.0279,-1.9749,-1.9735,-1.9267,-1.8471,-1.7809,-1.7052,-1.6304,-1.6144,-1.6898,-1.7881,-1.6467,-1.6698,-1.7594,-1.5752,-1.5176,-1.5264,-1.5215,-1.5186,-1.508,-1.4649,-1.4363,0.0,0.0,0.0,-1.4153,-1.6177,0.0,-1.8156,-2.0324,-2.116,-2.1694,0.0,0.0,-2.3049,-2.3163,-2.3463,-2.4012,-2.5006,-2.5378,-2.5575,-2.5699,-2.572,-2.5751,-2.5865,-2.5875,-2.5875,-2.5875,-2.5875,-2.5834,-2.572,-2.542,-2.5137,-2.5024,-2.4693,-2.4497,-2.4497,-2.4497,-2.4497,-2.4497,-2.4497,-2.4497,-2.4497,-2.4497,-2.4497,-2.4497,-2.4497,-2.4497,-2.4497,-2.4497,-2.4497,-2.4497,-2.4497,-2.4497,-2.4497,-2.4497,-2.4497,-2.4497,-2.4497,-2.4497,-2.4497,-2.4497,-2.4497,-2.4497,0.0,0.0,0.0,0.0,0.0,0.0,0.0,0.0,0.0,0.0,0.0,0.0,-1.2567,-1.2544,-1.2746,-1.3228,-1.3845,0.0,0.0,0.0,0.0,-1.7107,-1.6525,0.0,-1.8118,-1.7941,-1.8202,-1.8983,-1.9291,-1.942,-1.9433,-1.9974,-2.0207,-2.0182,-2.048,-1.9848,-1.8498,-1.8444,-1.7605,-1.6441,-1.7978,-1.8438,-1.8178,-1.7933,-1.8004,-1.7929,-1.6058,-1.5381,-1.5362,-1.5235,-1.5127,-1.4933,-1.4373,-1.3923,-1.3494,0.0,0.0,0.0,-1.4807,-1.5644,0.0,-1.8013,-1.9449,-2.0705,0.0,0.0,-2.2656,-2.3101,-2.3205,-2.3246,-2.3318,-2.4033,-2.4714,-2.5148,-2.522,-2.5409,-2.5823,-2.5875,-2.5875,-2.5875,-2.5875,-2.572,-2.5261,-2.5199,-2.5003,-2.4569,-2.4507,-2.4497,-2.4497,-2.4497,-2.4497,-2.4497,-2.4497,-2.4497,-2.4497,-2.4497,-2.4497,-2.4497,-2.4497,-2.4497,-2.4497,-2.4497,-2.4497,-2.4497,-2.4497,-2.4497,-2.4497,-2.4497,-2.4497,-2.4497,-2.4497,-2.4497,-2.4497,-2.4497,-2.4497,-2.4497,0.0,0.0,0.0,0.0,0.0,0.0,0.0,0.0,0.0,0.0,0.0,0.0,0.0,-1.3344,-1.356,-1.4333,-1.5323,0.0,0.0,0.0,0.0,-1.7574,-1.7435,-1.7729,-1.8572,-1.84,-1.861,-1.9266,-1.9348,-1.9368,-1.9287,-1.9567,-1.9479,-1.9129,-1.9506,-1.9444,-1.8991,-1.7567,-1.6708,-1.6413,-1.7756,-1.8942,-1.9807,-1.8586,-1.9303,-2.0565,-1.7523,-1.6434,-1.6403,-1.626,-1.5688,-1.4886,-1.4128,-1.3652,-1.3302,-1.2846,-1.2618,-1.2823,0.0,0.0,0.0,-1.684,-1.8265,-1.9527,-1.9856,-2.0793,-2.1652,-2.1828,-2.2335,-2.2739,-2.2739,-2.3246,-2.3722,-2.3898,-2.3919,-2.3981,-2.4126,-2.4405,-2.4645,-2.4645,-2.484,-2.4964,-2.4766,-2.4745,-2.4673,-2.4507,-2.4497,-2.4497,-2.4497,-2.4497,-2.4497,-2.4497,-2.4497,-2.4497,-2.4497,-2.4497,-2.4497,-2.4497,-2.4497,-2.4497,-2.4497,-2.4497,-2.4497,-2.4497,-2.4497,-2.4497,-2.4497,-2.4497,-2.4497,-2.4497,-2.4497,-2.4497,-2.4497,-2.4497,-2.4497,-2.4497,0.0,0.0,0.0,0.0,0.0,0.0,0.0,0.0,0.0,-1.2836,0.0,0.0,0.0,0.0,-1.4338,-1.5329,-1.6485,-1.7152,-1.7198,-1.7707,-1.8076,-1.8202,-1.8064,-1.8349,-1.9121,-1.8771,-1.8905,-1.9539,-1.9251,-1.904,-1.8984,-1.8982,-1.8807,-1.8428,-1.8414,-1.8425,-1.8323,-1.6857,-1.6151,-1.6148,-1.806,-1.9619,-2.0618,-1.9446,-2.0161,-2.1441,-1.8346,-1.7131,-1.7072,-1.7444,-1.6885,-1.5819,-1.4469,-1.3468,-1.2747,-1.2391,0.0,0.0,-1.3394,0.0,0.0,0.0,-1.7224,-1.8461,-1.8834,-1.9774,-2.0679,-2.1015,-2.1611,-2.2087,-2.2242,-2.2511,-2.2822,-2.3143,-2.3184,-2.3184,-2.3184,-2.3453,-2.3691,-2.3691,-2.3908,-2.4146,-2.4259,-2.4322,-2.4332,-2.4487,-2.4497,-2.4497,-2.4497,-2.4497,-2.4497,-2.4497,-2.4497,-2.4497,-2.4497,-2.4497,-2.4425,-2.4322,-2.4425,-2.4425,-2.428,-2.4435,-2.4497,-2.4497,-2.4497,-2.4497,-2.4497,-2.4497,-2.4497,-2.4497,-2.4497,-2.4497,-2.4497,-2.4497,-2.4497,-2.4497,0.0,0.0,0.0,0.0,0.0,0.0,0.0,0.0,-1.2449,-1.2269,0.0,0.0,0.0,0.0,0.0,-1.6151,-1.722,-1.7883,-1.8039,-1.805,-1.8347,-1.9008,0.0,0.0,-1.9773,-1.9019,-1.8981,-1.9747,-1.8898,-1.8471,-1.8456,-1.8244,-1.8196,-1.8218,-1.7395,-1.6842,-1.6464,-1.6464,-1.6075,-1.5704,-1.9111,-2.05,-2.0511,-2.0543,-2.0576,-2.0377,-1.8497,-1.7521,-1.7342,-1.8708,-1.8671,-1.7666,-1.5353,-1.3378,-1.1902,-1.1902,0.0,0.0,0.0,0.0,0.0,0.0,0.0,0.0,-1.8553,0.0,-1.9741,-2.0839,-2.1025,-2.118,-2.1683,-2.1766,-2.2066,-2.2977,-2.3143,-2.3153,-2.3153,-2.3153,-2.3163,-2.3163,-2.3184,-2.336,-2.3857,-2.3857,-2.4033,-2.4425,-2.4476,-2.4476,-2.4456,-2.4476,-2.4487,-2.4497,-2.4497,-2.4497,-2.4497,-2.4487,-2.4312,-2.3888,-2.4322,-2.4291,-2.3898,-2.4333,-2.4497,-2.4497,-2.4497,-2.4497,-2.4497,-2.4497,-2.4497,-2.4497,-2.4497,-2.4497,-2.4497,-2.4497,-2.4497,-2.4497,0.0,0.0,0.0,0.0,0.0,-1.3465,-1.3657,-1.348,-1.3282,0.0,0.0,0.0,-1.4262,-1.5473,-1.6583,-1.7294,-1.8079,-1.8697,-1.9132,-1.9258,-1.9371,-1.9572,-1.9409,-1.9472,-1.9798,-1.895,-1.8622,-1.8871,-1.8,-1.7562,-1.7562,-1.7051,-1.6831,-1.6831,-1.6151,-1.581,-1.569,-1.569,-1.5762,-1.6166,-1.9248,-2.066,-2.1024,-2.1819,-2.2572,-2.301,-2.1176,-2.0455,-2.0317,-2.0258,-1.8883,-1.6689,-1.4028,-1.252,-1.1794,-1.1977,0.0,0.0,-1.248,0.0,0.0,0.0,0.0,0.0,-1.6336,0.0,-1.8452,-1.9336,-1.9739,-2.0134,-2.0684,-2.0803,-2.0963,-2.159,-2.1973,-2.219,-2.219,-2.248,-2.2687,-2.2687,-2.2987,-2.3236,-2.336,-2.3381,-2.3432,-2.3546,-2.3867,-2.3919,-2.3577,-2.3877,-2.4209,-2.4487,-2.4497,-2.4497,-2.4497,-2.4219,-2.4002,-2.3919,-2.4002,-2.4002,-2.3898,-2.4333,-2.4497,-2.4497,-2.4497,-2.4497,-2.4497,-2.4497,-2.4497,-2.4497,-2.4497,-2.4497,-2.4497,-2.4497,-2.4497,-2.4497,0.0,0.0,0.0,0.0,0.0,-1.4088,-1.4014,-1.4014,-1.4003,0.0,0.0,0.0,-1.5294,-1.6386,-1.7313,-1.7917,-1.8523,-1.9108,-1.9644,-1.9759,-1.9798,-1.9798,-1.9501,-1.9333,-1.9333,-1.854,-1.8135,-1.8135,-1.7313,-1.6905,-1.6894,-1.6179,-1.5864,-1.5911,-1.5497,-1.5362,-1.541,-1.5478,-1.5763,-1.6353,-1.9153,-2.0544,-2.101,-2.2119,-2.2931,-2.3334,-2.2263,-2.1771,-2.1647,-2.1937,-1.9989,-1.7077,-1.5108,-1.3467,-1.2234,-1.2047,0.0,0.0,0.0,0.0,0.0,0.0,0.0,0.0,-1.5753,-1.6555,-1.7513,-1.8498,-1.888,-1.9284,-2.0027,-2.0151,-2.0296,-2.0752,-2.1052,-2.13,-2.1487,-2.1921,-2.2139,-2.1942,-2.2325,-2.2687,-2.2884,-2.2904,-2.2977,-2.3174,-2.3432,-2.3557,-2.3484,-2.3908,-2.4281,-2.4487,-2.4497,-2.4497,-2.4497,-2.4105,-2.3784,-2.3588,-2.3826,-2.3815,-2.3619,-2.425,-2.4497,-2.4497,-2.4497,-2.4497,-2.4497,-2.4497,-2.4497,-2.4497,-2.4497,-2.4497,-2.4497,-2.4497,-2.4497,-2.4497,0.0,0.0,-1.5807,-1.4868,-1.509,-1.5037,-1.396,-1.4318,-1.4664,0.0,-1.5061,-1.5669,-1.6343,-1.6828,-1.7422,-1.8154,-1.8632,-1.9158,-1.9747,-1.9798,-1.9747,-1.9669,-1.9044,-1.8661,-1.8581,-1.7841,-1.7468,-1.7468,-1.6765,-1.6407,-1.6379,-1.5633,-1.5352,-1.5449,-1.5323,-1.5352,-1.5478,-1.5643,-1.598,-1.6579,-1.9032,-2.0248,-2.0744,-2.207,-2.2559,-2.2559,-2.2559,-2.2292,-2.2107,-2.3278,-2.1334,-1.8309,-1.7296,-1.539,-1.3286,-1.2244,-1.2228,0.0,0.0,0.0,0.0,0.0,-1.4649,0.0,-1.5998,-1.6327,-1.6799,-1.7987,-1.8226,-1.8495,-1.9409,-1.9564,-1.971,-2.012,-2.0199,-2.0452,-2.0969,-2.1393,-2.1497,-2.1093,-2.1445,-2.189,-2.2304,-2.2387,-2.2594,-2.3008,-2.3039,-2.3277,-2.3888,-2.4198,-2.4394,-2.4497,-2.4497,-2.4497,-2.4497,-2.4053,-2.3598,-2.3194,-2.3598,-2.3588,-2.3215,-2.4084,-2.4497,-2.4497,-2.4497,-2.4497,-2.4497,-2.4497,-2.4497,-2.4497,-2.4497,-2.4497,-2.4497,-2.4497,-2.4497,-2.4497,0.0,-1.5822,-1.5475,-1.5266,-1.5315,-1.5315,-1.5086,-1.5196,-1.5311,-1.5278,-1.5488,-1.5865,-1.6416,-1.6566,-1.7055,-1.8116,-1.8304,-1.8733,-1.9568,-1.9734,-1.9488,-1.8792,-1.8727,-1.8409,-1.7813,-1.709,-1.6708,-1.6708,-1.6142,-1.5865,-1.5836,-1.5798,-1.5769,-1.5788,-1.5769,-1.5769,-1.5827,-1.5827,-1.6718,-1.8248,-1.9626,-2.0358,-2.0845,-2.3166,-2.4062,-2.4062,-2.4062,-2.4,-2.3752,-2.2595,-2.1032,-1.9219,-1.7056,-1.6125,-1.5455,-1.3431,-1.3654,0.0,0.0,0.0,0.0,-1.382,-1.4109,0.0,-1.5264,-1.5527,-1.592,-1.691,-1.7113,-1.7308,-1.7998,-1.8091,-1.8268,-1.8702,-1.9129,-1.9624,-2.0441,-2.0602,-2.0622,-2.0529,-2.0932,-2.128,-2.1373,-2.1725,-2.1973,-2.2066,-2.2076,-2.2604,-2.3815,-2.3608,-2.3784,-2.4476,-2.4497,-2.4497,-2.4497,-2.3732,-2.3277,-2.3184,-2.3277,-2.3277,-2.3215,-2.4084,-2.4497,-2.4497,-2.4497,-2.4497,-2.4497,-2.4497,-2.4497,-2.4497,-2.4497,-2.4497,-2.4497,-2.4497,-2.4497,-2.4497,-1.6139,-1.5758,-1.543,-1.5521,-1.5542,-1.5521,-1.5472,-1.5757,-1.5994,-1.5952,-1.6044,-1.6321,-1.6886,-1.6948,-1.74,-1.8494,-1.8594,-1.8747,-1.9139,-1.9214,-1.8886,-1.8108,-1.777,-1.744,-1.7062,-1.6436,-1.6114,-1.6114,-1.5904,-1.5798,-1.5798,-1.5856,-1.5856,-1.5798,-1.5885,-1.5856,-1.5808,-1.6204,-1.7083,-1.8364,-1.9671,-2.0828,-2.1953,-2.3804,-2.4497,-2.4497,-2.4497,-2.4497,-2.431,-2.3238,-2.1681,-2.0028,-1.8714,-1.7638,-1.6504,-1.4801,-1.4638,-1.4816,-1.3649,-1.3328,-1.3427,-1.391,-1.4098,0.0,0.0,-1.5313,-1.5566,-1.6215,-1.6471,-1.6732,-1.7184,-1.7327,-1.7502,-1.7988,-1.8433,-1.8806,-1.9011,-1.9817,-2.0338,-2.012,-2.0493,-2.0736,-2.0736,-2.1186,-2.1559,-2.1787,-2.2025,-2.2553,-2.3484,-2.3536,-2.3846,-2.4476,-2.4497,-2.4394,-2.4209,-2.3525,-2.307,-2.2842,-2.308,-2.3184,-2.3215,-2.4084,-2.4497,-2.4497,-2.4497,-2.4497,-2.4497,-2.4497,-2.4497,-2.4497,-2.4497,-2.4497,-2.4497,-2.4497,-2.4497,-2.4497,-1.5979,-1.5652,-1.5389,-1.566,-1.5693,-1.569,-1.5678,-1.6148,-1.6479,-1.6414,-1.6557,-1.6861,-1.7303,-1.7652,-1.8292,-1.9384,-1.9444,-1.9344,-1.917,-1.8935,-1.8347,-1.7385,-1.6782,-1.6464,-1.635,-1.5923,-1.5701,-1.574,-1.5875,-1.5943,-1.5943,-1.6052,-1.6035,-1.5947,-1.6245,-1.6275,-1.6127,-1.6809,-1.7665,-1.8636,-1.9884,-2.1343,-2.2889,-2.4072,-2.4497,-2.4497,-2.4497,-2.4497,-2.4414,-2.3835,-2.2409,-2.075,-2.0185,-1.9031,-1.7541,-1.5993,-1.5554,-1.5293,-1.4173,-1.366,-1.3591,-1.4097,-1.4318,-1.4526,0.0,0.0,0.0,-1.5856,-1.6116,0.0,0.0,0.0,-1.6977,-1.7378,-1.7833,-1.7999,-1.7616,-1.8897,-1.9799,-1.9564,-2.0048,-2.0354,-2.0307,-2.071,-2.1207,-2.1766,-2.2066,-2.247,-2.3029,-2.3412,-2.3857,-2.4352,-2.429,-2.4157,-2.3919,-2.3329,-2.2863,-2.2501,-2.2967,-2.3184,-2.3215,-2.4084,-2.4497,-2.4497,-2.4497,-2.4497,-2.4497,-2.4497,-2.4497,-2.4497,-2.4497,-2.4497,-2.4497,-2.4497,-2.4497,-2.4497,-1.554,-1.5194,-1.5096,-1.5605,-1.5693,-1.5869,-1.6316,-1.645,-1.6479,-1.6414,-1.6917,-1.7277,-1.7237,-1.8607,-1.9974,-2.1104,-2.1064,-2.0878,-2.0736,-1.9742,-1.8338,-1.6531,-1.6482,-1.6275,-1.5817,-1.573,-1.5769,-1.5885,-1.6009,-1.6085,-1.6095,-1.662,-1.6875,-1.6876,-1.774,-1.7874,-1.7513,-1.8008,-1.9186,-2.0741,-2.0943,-2.1539,-2.2509,-2.3959,-2.4497,-2.4497,-2.4497,-2.4497,-2.432,-2.3165,-2.2301,-2.1377,-1.9294,-1.9341,-1.9627,-1.6562,-1.6581,-1.7125,-1.507,-1.4439,-1.4296,-1.4091,-1.4556,-1.5098,-1.5029,0.0,-1.5701,-1.5856,0.0,-1.6011,0.0,0.0,0.0,0.0,-1.6901,-1.7151,-1.7099,-1.7616,-1.8132,-1.8528,-1.9655,-2.0265,-1.9907,-2.0245,-2.0866,-2.1745,-2.1476,-2.1652,-2.2532,-2.2625,-2.3049,-2.3929,-2.3557,-2.3515,-2.3919,-2.3008,-2.2542,-2.2501,-2.2967,-2.3184,-2.3215,-2.4084,-2.4497,-2.4497,-2.4497,-2.4497,-2.4497,-2.4497,-2.4497,-2.4497,-2.4497,-2.4497,-2.4497,-2.4497,-2.4497,-2.4497,-1.5535,-1.4991,-1.4756,-1.5802,-1.5158,-1.4812,-1.5824,-1.5687,-1.5571,-1.5884,-1.5881,-1.5926,-1.6197,-1.7314,-1.8531,-1.9705,-2.0211,-2.0114,-1.9376,-1.9317,-1.8393,-1.6266,-1.681,-1.6789,-1.6049,-1.6507,-1.6638,-1.6434,-1.6847,-1.703,-1.703,-1.7296,-1.7348,-1.7328,-1.8349,-1.8659,-1.8428,-1.8992,-1.9934,-2.1135,-2.1414,-2.2028,-2.2938,-2.4073,-2.4497,-2.4497,-2.4497,-2.4497,-2.4435,-2.3874,-2.2757,-2.1544,-2.1585,-2.0637,-1.9314,-1.8294,-1.7797,0.0,-1.5666,-1.5405,-1.5482,-1.498,-1.5485,-1.6015,-1.5737,-1.5744,-1.5811,-1.5989,0.0,0.0,0.0,0.0,0.0,0.0,-1.66,-1.6835,-1.6665,-1.7254,-1.7864,-1.833,-1.8671,-1.9096,-1.9741,-2.0162,-2.0803,-2.1735,-2.1383,-2.1518,-2.2449,-2.2501,-2.2925,-2.3888,-2.3422,-2.3277,-2.3474,-2.2822,-2.2366,-2.2108,-2.2842,-2.3184,-2.3215,-2.4084,-2.4497,-2.4497,-2.4497,-2.4497,-2.4497,-2.4497,-2.4497,-2.4497,-2.4497,-2.4497,-2.4497,-2.4497,-2.4497,-2.4497,-1.473,-1.4252,-1.4117,-1.5261,-1.4423,-1.3977,-1.5151,-1.4969,-1.4847,-1.5251,-1.5085,-1.5113,-1.5583,-1.6994,-1.8402,-1.9542,-2.0443,-2.0434,-1.9222,-1.9405,-1.8693,-1.6807,-1.7305,-1.7409,-1.7018,-1.7337,-1.7349,-1.7042,-1.7503,-1.7699,-1.7699,-1.7823,-1.7843,-1.779,-1.8825,-1.93,-1.9363,-1.991,-2.0731,-2.1714,-2.2056,-2.2584,-2.3287,-2.4156,-2.4497,-2.4497,-2.4497,-2.4497,-2.4466,-2.408,-2.2951,-2.1835,-2.2737,-2.1435,-1.9584,-1.9736,0.0,0.0,-1.6509,-1.6369,-1.644,-1.5627,-1.6007,-1.6482,-1.6139,-1.5965,-1.5913,-1.5972,-1.591,0.0,0.0,0.0,0.0,0.0,0.0,-1.6502,0.0,-1.6844,0.0,-1.7957,-1.7957,-1.835,-1.9502,-1.9862,-2.0441,-2.1362,-2.1114,-2.1331,-2.2263,-2.2428,-2.2863,-2.366,-2.3236,-2.3122,-2.3381,-2.2666,-2.2263,-2.219,-2.2863,-2.3256,-2.3401,-2.4146,-2.4497,-2.4497,-2.4497,-2.4497,-2.4497,-2.4497,-2.4497,-2.4497,-2.4497,-2.4497,-2.4497,-2.4497,-2.4497,-2.4497,-1.2626,-1.2693,-1.2998,-1.35,-1.3604,-1.3843,-1.4526,-1.4663,-1.4653,-1.4549,-1.5089,-1.5594,-1.5961,-1.8859,-2.1173,-2.2173,-2.3083,-2.3068,-2.1858,-2.0596,-1.9414,-1.8371,-1.7866,-1.7968,-1.879,-1.7952,-1.7564,-1.7678,-1.7699,-1.7699,-1.7709,-1.8164,-1.8393,-1.8402,-1.9357,-1.9975,-2.0374,-2.0876,-2.1859,-2.3122,-2.3143,-2.3163,-2.3287,-2.4156,-2.4497,-2.4497,-2.4497,-2.4497,-2.432,-2.3093,-2.2635,-2.2362,-2.1184,-2.1271,-2.1538,-2.0355,-2.0295,-2.0079,-1.778,-1.7163,-1.6873,-1.5539,-1.5716,-1.6143,-1.5794,-1.5946,-1.6097,-1.5702,-1.5729,-1.5707,0.0,0.0,0.0,0.0,0.0,0.0,0.0,0.0,-1.6357,-1.6966,-1.7833,-1.859,-1.9077,-1.9139,-1.9489,-2.0364,-2.0416,-2.0819,-2.1776,-2.2252,-2.2718,-2.3194,-2.276,-2.2946,-2.3888,-2.2511,-2.2273,-2.3143,-2.3174,-2.3422,-2.3867,-2.4333,-2.4497,-2.4497,-2.4497,-2.4497,-2.4497,-2.4497,-2.4497,-2.4497,-2.4497,-2.4497,-2.4497,-2.4497,-2.4497,-2.4497,-1.1323,-1.1321,-1.1746,-1.2787,-1.2377,-1.2257,-1.3435,-1.3793,-1.4411,-1.5763,-1.6041,-1.6545,-1.7656,-1.9276,-2.059,-2.1345,-2.2191,-2.2105,-2.0684,-2.1101,-2.0643,-1.8889,-1.9078,-1.9261,-1.9301,-1.8798,-1.8432,-1.8164,-1.8464,-1.862,-1.862,-1.8797,-1.887,-1.8911,-1.9789,-2.0627,-2.1352,-2.1507,-2.2201,-2.3132,-2.2522,-2.2646,-2.3215,-2.3525,-2.3639,-2.3722,-2.428,-2.4497,-2.4445,-2.4008,-2.337,-2.2839,-2.3145,-2.2362,-2.135,-2.163,-2.1261,-2.0452,-1.9333,-1.9475,-1.9466,-1.7583,-1.7789,-1.8123,-1.6945,-1.6435,-1.6249,-1.6391,-1.6005,-1.5661,0.0,0.0,0.0,0.0,0.0,0.0,0.0,0.0,-1.6051,-1.6261,-1.7534,-1.833,-1.8195,-1.9036,-1.9813,-2.0343,-2.071,-2.1155,-2.1776,-2.2242,-2.2708,-2.3174,-2.3039,-2.3246,-2.3867,-2.3111,-2.2718,-2.2739,-2.335,-2.3567,-2.3443,-2.4156,-2.4497,-2.4497,-2.4497,-2.4497,-2.4497,-2.4497,-2.4497,-2.4497,-2.4497,-2.4497,-2.4497,-2.4497,-2.4497,-2.4497,-1.0257,-1.034,-1.0802,-1.1775,-1.16,-1.1703,-1.2893,-1.3473,-1.4414,-1.623,-1.6566,-1.7239,-1.8741,-1.9895,-2.0771,-2.1333,-2.2253,-2.2195,-2.0791,-2.181,-2.1761,-2.0219,-2.0569,-2.0855,-2.0806,-1.9978,-1.9406,-1.9106,-1.9108,-1.9108,-1.9108,-1.9108,-1.9108,-1.9129,-1.9686,-2.0638,-2.1807,-2.1807,-2.2522,-2.3577,-2.249,-2.2304,-2.2718,-2.2884,-2.3039,-2.3308,-2.4177,-2.4497,-2.4497,-2.4497,-2.4062,-2.3587,-2.4268,-2.3483,-2.2342,-2.288,-2.2463,-2.1679,-2.0827,-2.1041,-2.1098,-1.9348,-1.9457,-1.9612,-1.8112,-1.7367,-1.6958,-1.6774,-1.6303,-1.5905,-1.5827,0.0,0.0,0.0,0.0,0.0,0.0,-1.5856,-1.5885,-1.5885,-1.7032,-1.7791,-1.7647,-1.8494,-1.9292,-1.9893,-2.0369,-2.0834,-2.129,-2.2221,-2.2884,-2.3174,-2.335,-2.365,-2.4105,-2.3494,-2.3122,-2.2998,-2.3598,-2.3722,-2.3453,-2.4166,-2.4497,-2.4497,-2.4497,-2.4497,-2.4497,-2.4497,-2.4497,-2.4497,-2.4497,-2.4497,-2.4497,-2.4497,-2.4497,-2.4497,-0.9462,-0.9818,-1.0292,-1.0636,-1.1417,-1.223,-1.2917,-1.3806,-1.4835,-1.6031,-1.6839,-1.7891,-1.9389,-2.0859,-2.1914,-2.2355,-2.336,-2.3433,-2.2317,-2.2685,-2.2736,-2.2276,-2.2235,-2.252,-2.3184,-2.1373,-2.0385,-2.0385,-1.951,-1.9108,-1.9108,-1.9108,-1.9108,-1.9108,-1.9108,-2.0069,-2.1735,-2.1735,-2.277,-2.4249,-2.2987,-2.2201,-2.1859,-2.2346,-2.2801,-2.3308,-2.4177,-2.4497,-2.4497,-2.4497,-2.4497,-2.4497,-2.4497,-2.4497,-2.4414,-2.4033,-2.3908,-2.3629,-2.2221,-2.1899,-2.1749,-2.0742,-2.0625,-2.0438,-1.9171,-1.8739,-1.8234,-1.7035,-1.6697,-1.6492,-1.6019,0.0,0.0,0.0,0.0,0.0,0.0,0.0,-1.5905,-1.5885,-1.6394,-1.693,-1.74,-1.7575,-1.8102,-1.9036,-1.9533,-2.001,-2.0436,-2.218,-2.3163,-2.3184,-2.366,-2.4115,-2.4497,-2.3691,-2.3463,-2.3919,-2.3898,-2.3898,-2.3898,-2.4333,-2.4497,-2.4497,-2.4497,-2.4497,-2.4497,-2.4497,-2.4497,-2.4497,-2.4497,-2.4497,-2.4497,-2.4497,-2.4497,-2.4497,-1.0241,-1.0813,-1.153,-1.208,-1.2681,-1.316,-1.3343,-1.476,-1.6477,-1.841,-1.959,-2.0964,-2.296,-2.3505,-2.3794,-2.3918,-2.4187,-2.3897,-2.2797,-2.3309,-2.3361,-2.2766,-2.2508,-2.2678,-2.3174,-2.1373,-2.0385,-2.0385,-1.951,-1.9108,-1.9108,-1.9108,-1.9108,-1.9108,-1.9108,-1.9706,-2.0772,-2.0772,-2.1445,-2.248,-2.2128,-2.1911,-2.189,-2.2708,-2.3091,-2.3308,-2.4177,-2.4497,-2.4497,-2.4497,-2.4497,-2.4497,-2.4497,-2.4497,-2.4476,-2.4363,-2.4332,-2.4208,-2.3505,-2.3351,-2.3074,-2.1829,-2.154,-2.136,-2.0428,-1.9943,-1.9574,-1.9207,-1.8886,-1.8411,-1.7599,-1.7574,0.0,0.0,0.0,0.0,0.0,0.0,-1.593,-1.5576,-1.5888,-1.6213,-1.6451,-1.7205,-1.8102,-1.9036,-1.9533,-2.029,-2.1393,-2.2232,-2.2832,-2.3174,-2.396,-2.4383,-2.4497,-2.427,-2.4095,-2.3888,-2.4219,-2.4198,-2.3898,-2.4333,-2.4497,-2.4497,-2.4497,-2.4497,-2.4497,-2.4497,-2.4497,-2.4497,-2.4497,-2.4497,-2.4497,-2.4497,-2.4497,-2.4497,-1.1295,-1.1934,-1.256,-1.2901,-1.4229,-1.5125,-1.4836,-1.5581,-1.7062,-1.9387,-2.0528,-2.1747,-2.3443,-2.4135,-2.4497,-2.4497,-2.4497,-2.4155,-2.3392,-2.3867,-2.3918,-2.3361,-2.3371,-2.3515,-2.3774,-2.2366,-2.1435,-2.1031,-2.011,-1.9458,-1.9108,-1.9108,-1.9108,-1.9108,-1.9108,-1.9572,-2.0436,-2.129,-2.1694,-2.1859,-2.247,-2.2594,0.0,-2.3215,-2.3608,-2.3846,-2.4311,-2.4497,-2.4497,-2.4497,-2.4497,-2.4497,-2.4497,-2.4497,-2.4497,-2.4497,-2.4497,-2.4445,-2.4229,-2.4167,-2.4001,-2.3217,-2.3043,-2.2747,-2.174,-2.1283,-2.0956,-2.0541,-2.0031,-1.9541,-1.9211,-1.8685,0.0,0.0,0.0,0.0,0.0,0.0,-1.6037,-1.5821,-1.585,-1.5933,-1.6085,-1.6526,-1.7295,-1.8402,-1.8723,-1.921,-1.9986,-2.159,-2.2522,-2.2584,-2.367,-2.4301,-2.4497,-2.4353,-2.4126,-2.3888,-2.4333,-2.4312,-2.3898,-2.4333,-2.4497,-2.4497,-2.4497,-2.4497,-2.4497,-2.4497,-2.4497,-2.4497,-2.4497,-2.4497,-2.4497,-2.4497,-2.4497,-2.4497,-1.2597,-1.3072,-1.3479,-1.3507,-1.5733,-1.7372,-1.6945,-1.683,-1.7605,-1.9851,-2.0781,-2.1637,-2.2637,-2.3784,-2.4497,-2.4497,-2.4497,-2.4332,-2.3991,-2.4322,-2.4321,-2.3981,-2.429,-2.4497,-2.4497,-2.3598,-2.2677,-2.1807,-2.0824,-1.9903,-1.9108,-1.9108,-1.9075,-1.9008,-1.8931,-1.9356,-2.0309,-2.2061,-2.2428,-2.1921,-2.3256,-2.3546,-2.3246,-2.3764,-2.4209,-2.4497,-2.4497,-2.4497,-2.4497,-2.4497,-2.4497,-2.4497,-2.4497,-2.4497,-2.4497,-2.4497,-2.4497,-2.4497,-2.4497,-2.4497,-2.4497,-2.4497,-2.4497,-2.4205,-2.3113,-2.2705,-2.2341,-2.1549,-2.0904,-2.0586,-2.075,-1.971,0.0,0.0,0.0,0.0,-1.7203,-1.6862,-1.6581,-1.6535,-1.6257,0.0,-1.6095,-1.5917,-1.6322,-1.7606,-1.7647,-1.774,-1.8039,-2.0721,-2.2149,-2.1994,-2.3215,-2.4064,-2.4404,-2.4136,-2.3939,-2.3888,-2.4333,-2.4312,-2.3898,-2.4333,-2.4466,-2.4414,-2.4476,-2.4497,-2.4497,-2.4497,-2.4497,-2.4497,-2.4497,-2.4497,-2.4497,-2.4497,-2.4497,-2.4497,-1.4156,-1.4272,-1.4383,-1.4636,-1.6251,-1.7909,-1.9188,-2.0027,-2.0913,-2.1911,-2.2612,-2.334,-2.4084,-2.4352,-2.4497,-2.4497,-2.4497,-2.4466,-2.4394,-2.4456,-2.4466,-2.4383,-2.4456,-2.4497,-2.4497,-2.3277,-2.2356,-2.1807,-2.0549,-1.9637,-1.9108,-1.9108,-1.8908,-1.8573,-1.7969,-1.8209,-1.9165,-2.0388,-2.1248,-2.189,-2.2904,-2.3256,-2.3277,-2.4105,-2.4435,-2.4497,-2.4497,-2.4497,-2.4497,-2.4497,-2.4497,-2.4497,-2.4497,-2.4497,-2.4497,-2.4497,-2.4497,-2.4497,-2.4497,-2.4497,-2.4497,-2.4497,-2.4497,-2.4456,-2.4205,-2.4122,-2.3978,-2.3505,-2.3289,-2.2961,-2.2084,-2.0554,-1.9373,0.0,0.0,-1.9276,-1.9861,-1.952,-1.8827,-1.7765,-1.7377,-1.691,-1.6156,-1.6205,-1.6663,-1.7626,-1.7347,-1.7946,-1.9817,-2.0447,-2.1445,-2.2904,-2.3557,-2.3919,-2.3991,-2.4281,-2.424,-2.3888,-2.4333,-2.4312,-2.3898,-2.4333,-2.4301,-2.4012,-2.4342,-2.4497,-2.4497,-2.4497,-2.4497,-2.4497,-2.4497,-2.4497,-2.4497,-2.4497,-2.4497,-2.4497,-1.4532,-1.4675,-1.5038,-1.5894,-1.7576,-1.9294,-2.0815,-2.2176,-2.2929,-2.2563,-2.2793,-2.3114,-2.3422,-2.4073,-2.4497,-2.4497,-2.4497,-2.4497,-2.4497,-2.4497,-2.4394,-2.4209,-2.4198,-2.4198,-2.4198,-2.3557,-2.2749,-2.1807,-2.0997,-1.9976,-1.8774,-1.8607,-1.8182,-1.7647,-1.7954,-1.8481,-1.9178,-2.1059,-2.2118,-2.2604,-2.3525,-2.3888,-2.3939,-2.4332,-2.4497,-2.4497,-2.4497,-2.4497,-2.4497,-2.4497,-2.4497,-2.4497,-2.4497,-2.4497,-2.4497,-2.4497,-2.4497,-2.4497,-2.4497,-2.4497,-2.4497,-2.4497,-2.4497,-2.4497,-2.4497,-2.4497,-2.4435,-2.426,-2.4043,-2.3505,-2.2259,-2.126,-2.0514,-2.0364,-2.0012,-2.0052,-2.0848,-2.0555,-1.9985,-1.9184,-1.8379,-1.7625,-1.6979,-1.6624,-1.656,-1.6995,-1.6829,-1.7378,-1.8918,-1.9879,-2.1052,-2.2428,-2.3153,-2.3743,-2.4219,-2.4209,-2.4209,-2.4219,-2.4394,-2.4383,-2.4229,-2.4404,-2.4383,-2.4229,-2.4404,-2.4497,-2.4497,-2.4497,-2.4497,-2.4497,-2.4497,-2.4497,-2.4497,-2.4497,-2.4497,-2.4497,-1.4988,-1.5076,-1.5649,-1.7354,-1.9043,-2.0579,-2.1913,-2.3453,-2.4104,-2.307,-2.2936,-2.2936,-2.2936,-2.3856,-2.4497,-2.4497,-2.4497,-2.4497,-2.4497,-2.4497,-2.4342,-2.4033,-2.3971,-2.3919,-2.3919,-2.3784,-2.3101,-2.1807,-2.1438,-2.0276,-1.8408,0.0,-1.7415,-1.6742,-1.8076,-1.9008,-1.9783,-2.2196,-2.3298,-2.3536,-2.4208,-2.4497,-2.4497,-2.4497,-2.4497,-2.4497,-2.4497,-2.4497,-2.4497,-2.4497,-2.4497,-2.4497,-2.4497,-2.4497,-2.4497,-2.4497,-2.4497,-2.4497,-2.4497,-2.4497,-2.4497,-2.4497,-2.4497,-2.4497,-2.4497,-2.4497,-2.4497,-2.4497,-2.426,-2.365,-2.2341,-2.1934,-2.1649,-2.1187,-2.079,-2.0812,-2.1608,-2.1486,-2.1117,-2.0606,-1.936,-1.8387,-1.8029,-1.7026,-1.6527,-1.6817,-1.6715,-1.7108,-1.8081,-1.9569,-2.0819,-2.1776,-2.2708,-2.3484,-2.4063,-2.4043,-2.4146,-2.4363,-2.4456,-2.4456,-2.4363,-2.4456,-2.4445,-2.4363,-2.4456,-2.4497,-2.4497,-2.4497,-2.4497,-2.4497,-2.4497,-2.4497,-2.4497,-2.4497,-2.4497,-2.4497,-1.648,-1.6113,-1.6449,-1.9244,-2.0238,-2.1056,-2.2278,-2.3619,-2.4456,-2.4321,-2.4311,-2.4311,-2.4311,-2.4425,-2.4497,-2.4497,-2.4497,-2.4497,-2.4497,-2.4497,-2.4476,-2.4435,-2.4095,-2.3919,-2.3919,-2.3463,-2.278,-2.1807,-2.1346,-2.0105,-1.8104,0.0,-1.6919,-1.6315,-1.7661,-1.9155,-2.0758,-2.2463,-2.366,-2.4383,-2.4466,-2.4497,-2.4497,-2.4497,-2.4497,-2.4497,-2.4497,-2.4497,-2.4497,-2.4497,-2.4497,-2.4497,-2.4497,-2.4497,-2.4497,-2.4497,-2.4497,-2.4497,-2.4497,-2.4497,-2.4497,-2.4497,-2.4497,-2.4497,-2.4497,-2.4497,-2.4497,-2.4497,-2.4466,-2.4114,-2.3012,-2.2807,-2.2481,-2.1596,-2.2104,-2.2725,-2.2959,-2.334,-2.3092,-2.179,-2.0472,-1.9482,-1.9025,-1.7418,-1.691,-1.8134,-1.7833,-1.8185,-1.9533,-2.011,-2.0819,-2.1776,-2.2708,-2.3029,-2.2687,-2.3877,-2.4302,-2.395,-2.4353,-2.4333,-2.396,-2.4321,-2.428,-2.396,-2.4321,-2.4497,-2.4497,-2.4497,-2.4497,-2.4497,-2.4497,-2.4497,-2.4497,-2.4497,-2.4497,-2.4497,-1.7959,-1.8159,-1.8864,-2.0848,-2.1522,-2.22,-2.3505,-2.4146,-2.4497,-2.4497,-2.4497,-2.4497,-2.4497,-2.4497,-2.4497,-2.4497,-2.4497,-2.4497,-2.4497,-2.4497,-2.4259,-2.3753,-2.3557,-2.3329,-2.306,-2.2873,-2.2594,-2.2221,-2.1565,-2.0282,-1.8471,-1.8485,-1.8392,-1.8248,-1.958,-2.0705,-2.1693,-2.3297,-2.4166,-2.4497,-2.4497,-2.4497,-2.4497,-2.4497,-2.4497,-2.4497,-2.4497,-2.4497,-2.4497,-2.4497,-2.4497,-2.4497,-2.4497,-2.4497,-2.4497,-2.4497,-2.4497,-2.4497,-2.4497,-2.4497,-2.4497,-2.4497,-2.4497,-2.4497,-2.4497,-2.4497,-2.4497,-2.4497,-2.4497,-2.4383,-2.3927,-2.3412,-2.3114,-2.3299,-2.3176,-2.3289,-2.3877,-2.4157,-2.3764,-2.2387,-2.1,-1.9986,-1.9564,-1.7843,-1.745,-1.9119,-1.803,-1.7884,-1.9305,-1.9813,-2.0452,-2.1362,-2.2563,-2.3101,-2.2915,-2.396,-2.4404,-2.4281,-2.4414,-2.4404,-2.4281,-2.4425,-2.4404,-2.4291,-2.4425,-2.4497,-2.4497,-2.4497,-2.4497,-2.4497,-2.4497,-2.4497,-2.4497,-2.4497,-2.4497,-2.4497,-1.9634,-1.9992,-2.072,-2.2452,-2.2713,-2.3122,-2.4311,-2.4497,-2.4497,-2.4497,-2.4497,-2.4497,-2.4497,-2.4497,-2.4497,-2.4497,-2.4497,-2.4497,-2.4497,-2.4497,-2.4156,-2.3422,-2.3256,-2.2967,-2.2511,-2.2501,-2.2501,-2.2501,-2.1937,-2.0848,-1.9319,-1.8985,-1.9175,-1.987,-2.0754,-2.1719,-2.2723,-2.3954,-2.4497,-2.4497,-2.4497,-2.4497,-2.4497,-2.4497,-2.4497,-2.4497,-2.4497,-2.4497,-2.4497,-2.4497,-2.4497,-2.4497,-2.4497,-2.4497,-2.4497,-2.4497,-2.4497,-2.4497,-2.4497,-2.4497,-2.4497,-2.4497,-2.4497,-2.4497,-2.4497,-2.4497,-2.4497,-2.4497,-2.4497,-2.4497,-2.4497,-2.4022,-2.3712,-2.4084,-2.3826,-2.3722,-2.4053,-2.4332,-2.3991,-2.2656,-2.1393,-2.0503,-2.0228,-1.8506,-1.8195,-2.0052,-1.8837,-1.8484,-1.9613,-2.0145,-2.0659,-2.13,-2.2666,-2.3329,-2.3184,-2.4042,-2.4497,-2.4497,-2.4497,-2.4497,-2.4497,-2.4497,-2.4497,-2.4497,-2.4497,-2.4497,-2.4497,-2.4497,-2.4497,-2.4497,-2.4497,-2.4497,-2.4497,-2.4497,-2.4497,-2.4497,-2.1565,-2.1288,-2.1504,-2.4041,-2.3774,-2.3484,-2.4363,-2.4497,-2.4497,-2.4497,-2.4497,-2.4497,-2.4497,-2.4497,-2.4497,-2.4497,-2.4497,-2.4497,-2.4497,-2.4497,-2.4301,-2.3888,-2.3432,-2.2967,-2.2511,-2.2501,-2.2501,-2.2501,-2.249,-2.1898,-2.0753,-1.8481,-1.8545,-2.0586,-2.046,-2.1707,-2.3898,-2.4311,-2.4497,-2.4497,-2.4497,-2.4497,-2.4497,-2.4497,-2.4497,-2.4497,-2.4497,-2.4497,-2.4497,-2.4497,-2.4497,-2.4497,-2.4497,-2.4497,-2.4497,-2.4497,-2.4497,-2.4497,-2.4497,-2.4497,-2.4497,-2.4497,-2.4497,-2.4497,-2.4497,-2.4497,-2.4497,-2.4497,-2.4497,-2.4497,-2.4497,-2.4487,-2.4197,-2.335,-2.395,-2.4177,-2.3329,-2.3981,-2.3991,-2.2656,-2.1673,-2.1104,-2.1093,-1.9448,-1.9127,-2.0959,-2.0622,-2.055,-2.1062,-2.1528,-2.1787,-2.1797,-2.3143,-2.365,-2.3194,-2.4042,-2.4497,-2.4497,-2.4497,-2.4497,-2.4497,-2.4497,-2.4497,-2.4497,-2.4497,-2.4497,-2.4497,-2.4497,-2.4497,-2.4497,-2.4497,-2.4497,-2.4497,-2.4497,-2.4497,-2.4497,-2.2693,-2.3073,-2.3557,-2.4373,-2.4259,-2.4166,-2.4456,-2.4497,-2.4497,-2.4497,-2.4497,-2.4497,-2.4497,-2.4497,-2.4497,-2.4497,-2.4497,-2.4497,-2.4497,-2.4497,-2.4166,-2.3432,-2.3267,-2.2822,-2.2045,-2.2025,-2.2335,-2.2967,-2.2656,-2.2239,-2.1662,-2.0369,-2.062,-2.2142,-2.2884,-2.3616,-2.4301,-2.4435,-2.4239,-2.3807,-2.3807,-2.3807,-2.3754,-2.3246,-2.3647,-2.4454,-2.398,-2.411,-2.4497,-2.4497,-2.4497,-2.4497,-2.4497,-2.4497,-2.4497,-2.4497,-2.4497,-2.4497,-2.4497,-2.4497,-2.4497,-2.4497,-2.4497,-2.4497,-2.4497,-2.4497,-2.4497,-2.4497,-2.4497,-2.4497,-2.4497,-2.4497,-2.4404,-2.4115,-2.4311,-2.4394,-2.4115,-2.3826,-2.3225,-2.2149,-2.1207,-2.0736,-2.1083,-2.0027,-1.9979,-2.1476,-2.0866,-2.0591,-2.1093,-2.1859,-2.2128,-2.1818,-2.3153,-2.366,-2.3194,-2.4042,-2.4497,-2.4497,-2.4497,-2.4497,-2.4497,-2.4497,-2.4497,-2.4497,-2.4497,-2.4497,-2.4497,-2.4497,-2.4497,-2.4497,-2.4497,-2.4497,-2.4497,-2.4497,-2.4497,-2.4497,-2.3629,-2.4115,-2.4497,-2.4497,-2.4497,-2.4497,-2.4497,-2.4352,-2.4249,-2.4249,-2.4104,-2.4033,-2.4033,-2.4033,-2.4125,-2.4466,-2.4497,-2.4425,-2.4259,-2.4249,-2.3888,-2.2967,-2.2925,-2.2573,-2.1828,-2.1807,-2.217,-2.2925,-2.2736,-2.2624,-2.2597,-2.184,-2.2049,-2.3097,-2.3806,-2.4282,-2.4497,-2.4497,-2.4282,-2.3851,-2.359,-2.3503,-2.3416,-2.2668,-2.3115,-2.4067,-2.3634,-2.3937,-2.4497,-2.4497,-2.4497,-2.4497,-2.4497,-2.4497,-2.4497,-2.4497,-2.4497,-2.4497,-2.4497,-2.4497,-2.4497,-2.4497,-2.4497,-2.4497,-2.4497,-2.4497,-2.4497,-2.4497,-2.4497,-2.4497,-2.4497,-2.4497,-2.4497,-2.4497,-2.4497,-2.4383,-2.4084,-2.3546,-2.2842,-2.1921,-2.13,-2.1124,-2.159,-2.1114,-2.1217,-2.2242,-2.1952,-2.1849,-2.2139,-2.2366,-2.2522,-2.2584,-2.3588,-2.3991,-2.3701,-2.4218,-2.4497,-2.4497,-2.4497,-2.4497,-2.4497,-2.4497,-2.4497,-2.4497,-2.4497,-2.4497,-2.4497,-2.4497,-2.4497,-2.4497,-2.4497,-2.4497,-2.4497,-2.4497,-2.4497,-2.4497,-2.4228,-2.4435,-2.4466,-2.4497,-2.4497,-2.4487,-2.4456,-2.4146,-2.3909,-2.3878,-2.3484,-2.3225,-2.3194,-2.3215,-2.3567,-2.4332,-2.4404,-2.4239,-2.3898,-2.3919,-2.3515,-2.2584,-2.2542,-2.2315,-2.1818,-2.1807,-2.2035,-2.2501,-2.2661,-2.2962,-2.3367,-2.2702,-2.2721,-2.3363,-2.3503,-2.3894,-2.4411,-2.4497,-2.4454,-2.4325,-2.3667,-2.3406,-2.3276,-2.2536,-2.2721,-2.3406,-2.3406,-2.3851,-2.4454,-2.4497,-2.4497,-2.4497,-2.4497,-2.4497,-2.4497,-2.4497,-2.4497,-2.4497,-2.4497,-2.4497,-2.4497,-2.4497,-2.4497,-2.4497,-2.4497,-2.4497,-2.4497,-2.4497,-2.4497,-2.4497,-2.4497,-2.4497,-2.4497,-2.4497,-2.4445,-2.4115,-2.3308,-2.3132,-2.277,-2.1901,-2.1838,-2.2035,-2.2501,-2.2542,-2.2718,-2.3153,-2.3588,-2.3867,-2.3867,-2.3039,-2.3008,-2.3898,-2.428,-2.4497,-2.4497,-2.4497,-2.4497,-2.4497,-2.4497,-2.4497,-2.4497,-2.4497,-2.4497,-2.4497,-2.4497,-2.4497,-2.4497,-2.4497,-2.4497,-2.4497,-2.4497,-2.4497,-2.4497,-2.4497,-2.4497,-2.4497,-2.3401,-2.3795,-2.4146,-2.4435,-2.4497,-2.4383,-2.4084,-2.395,-2.3753,-2.3391,-2.3567,-2.3588,-2.3225,-2.3505,-2.366,-2.3515,-2.3505,-2.3619,-2.3857,-2.3919,-2.3619,-2.3049,-2.3018,-2.2646,-2.1828,-2.1807,-2.2035,-2.2501,-2.2134,-2.1997,-2.2145,-2.2286,-2.2227,-2.198,-2.357,-2.4067,-2.3764,-2.4282,-2.3874,-2.2887,-2.2711,-2.2369,-2.1802,-2.1087,-2.157,-2.2668,-2.2668,-2.3125,-2.3807,-2.4325,-2.4497,-2.4497,-2.4497,-2.4497,-2.4497,-2.4497,-2.4497,-2.4497,-2.4497,-2.4497,-2.4497,-2.4497,-2.4497,-2.4497,-2.4497,-2.4497,-2.4497,-2.4497,-2.4497,-2.4497,-2.4497,-2.4497,-2.4497,-2.4497,-2.3918,-2.3432,-2.3215,-2.2573,-2.2056,-2.1828,-2.2118,-2.2511,-2.2977,-2.3018,-2.307,-2.3184,-2.3287,-2.335,-2.335,-2.3474,-2.3805,-2.4321,-2.4445,-2.4497,-2.4497,-2.4497,-2.4497,-2.4497,-2.4497,-2.4497,-2.4497,-2.4497,-2.4497,-2.4497,-2.4497,-2.4497,-2.4497,-2.4497,-2.4497,-2.4497,-2.4497,-2.4497,-2.4497,-2.4497,-2.4497,-2.4497,-2.3412,-2.3867,-2.426,-2.4456,-2.4332,-2.4229,-2.4188,-2.3826,-2.3474,-2.3215,-2.3225,-2.307,-2.2604,-2.278,-2.2832,-2.2573,-2.2946,-2.3298,-2.3546,-2.336,-2.3143,-2.2884,-2.2666,-2.2325,-2.1818,-2.1807,-2.1871,-2.2037,-2.1445,-2.1095,-2.1028,-2.1603,-2.1491,-2.0945,-2.2873,-2.3539,-2.3249,-2.3803,-2.3787,-2.329,-2.2658,-2.2183,-2.1748,-2.069,-2.0997,-2.1961,-2.2315,-2.2853,-2.359,-2.4282,-2.4497,-2.4497,-2.4497,-2.4497,-2.4497,-2.4497,-2.4497,-2.4497,-2.4497,-2.4497,-2.4497,-2.4497,-2.4497,-2.4497,-2.4497,-2.4497,-2.4497,-2.4497,-2.4497,-2.4497,-2.4497,-2.4497,-2.4497,-2.4497,-2.3774,-2.3184,-2.3184,-2.2387,-2.1963,-2.2387,-2.2656,-2.307,-2.3743,-2.3805,-2.3805,-2.3805,-2.3805,-2.3805,-2.3805,-2.4043,-2.4249,-2.4487,-2.4497,-2.4497,-2.4497,-2.4497,-2.4497,-2.4497,-2.4497,-2.4497,-2.4497,-2.4497,-2.4497,-2.4497,-2.4497,-2.4497,-2.4497,-2.4497,-2.4497,-2.4497,-2.4497,-2.4497,-2.4497,-2.4497,-2.4497,-2.4497,-2.367,-2.4074,-2.4321,-2.4383,-2.4188,-2.4084,-2.4352,-2.3784,-2.3246,-2.3101,-2.2801,-2.2397,-2.1859,-2.1869,-2.188,-2.1818,-2.2532,-2.3039,-2.3184,-2.2749,-2.2532,-2.2594,-2.2159,-2.188,-2.1807,-2.1807,-2.1714,-2.157,-2.0832,-2.04,-2.0243,-2.081,-2.0671,-2.0141,-2.1872,-2.2618,-2.2637,-2.3219,-2.3721,-2.3927,-2.2843,-2.2262,-2.1961,-2.0781,-2.069,-2.1311,-2.2006,-2.2721,-2.345,-2.411,-2.4411,-2.4497,-2.4497,-2.4497,-2.4497,-2.4497,-2.4497,-2.4497,-2.4497,-2.4497,-2.4497,-2.4497,-2.4497,-2.4497,-2.4497,-2.4497,-2.4497,-2.4497,-2.4497,-2.4497,-2.4497,-2.4497,-2.4476,-2.4404,-2.3681,-2.308,-2.308,-2.2408,-2.2232,-2.3091,-2.3308,-2.3691,-2.4425,-2.4497,-2.4497,-2.4497,-2.4497,-2.4497,-2.4497,-2.4569,-2.4611,-2.4611,-2.4538,-2.4497,-2.4497,-2.4569,-2.4569,-2.4497,-2.4497,-2.4538,-2.46,-2.4528,-2.4538,-2.46,-2.4528,-2.4497,-2.4497,-2.4497,-2.4497,-2.4497,-2.4497,-2.4497,-2.4497,-2.4497,-2.4497,-2.4497,-2.3122,-2.335,-2.3525,-2.3908,-2.4229,-2.429,-2.4033,-2.3867,-2.3494,-2.2708,-2.2884,-2.2749,-2.1901,-2.2159,-2.2232,-2.1838,-2.1932,-2.2356,-2.3143,-2.2749,-2.2677,-2.306,-2.2635,-2.2211,-2.1818,-2.1807,-2.18,-2.1747,-2.0896,-2.0464,-2.0448,-2.0379,-1.9996,-1.9444,-2.1243,-2.1678,-2.1231,-2.2829,-2.2872,-2.1935,-2.2271,-2.1695,-2.06,-2.0374,-2.0382,-2.0555,-2.1311,-2.1971,-2.2668,-2.3396,-2.4024,-2.4497,-2.4497,-2.4497,-2.4497,-2.4497,-2.4497,-2.4497,-2.4497,-2.4497,-2.4497,-2.4497,-2.4497,-2.4497,-2.4497,-2.4497,-2.4497,-2.4497,-2.4497,-2.4497,-2.4497,-2.4497,-2.4373,-2.4043,-2.3205,-2.2604,-2.2604,-2.248,-2.2594,-2.3122,-2.3867,-2.4342,-2.4487,-2.4497,-2.4497,-2.4497,-2.4497,-2.4497,-2.4497,-2.4869,-2.5086,-2.5086,-2.4704,-2.4497,-2.4497,-2.489,-2.489,-2.4497,-2.4497,-2.4704,-2.5065,-2.4673,-2.4714,-2.5055,-2.4662,-2.4497,-2.4497,-2.4497,-2.4497,-2.4497,-2.4497,-2.4497,-2.4497,-2.4497,-2.4497,-2.4497,-2.3422,-2.3598,-2.3701,-2.4157,-2.4002,-2.3908,-2.4188,-2.4033,-2.3629,-2.2956,-2.306,-2.2832,-2.1901,-2.1994,-2.2035,-2.1828,-2.1807,-2.2097,-2.277,-2.2387,-2.2335,-2.2801,-2.2366,-2.2025,-2.1807,-2.1807,-2.1645,-2.1339,-2.0546,-2.0008,-1.9666,-1.9607,-1.9321,-1.8946,-2.0081,-2.0662,-2.0875,-2.2111,-2.2355,-2.1961,-2.2262,-2.1784,-2.0871,-2.0473,-2.0292,-2.0382,-2.1132,-2.1828,-2.2492,-2.3266,-2.3937,-2.4497,-2.4497,-2.4497,-2.4497,-2.4497,-2.4497,-2.4497,-2.4497,-2.4497,-2.4497,-2.4497,-2.4497,-2.4497,-2.4497,-2.4497,-2.4497,-2.4497,-2.4497,-2.4497,-2.4497,-2.4497,-2.4352,-2.395,-2.3308,-2.2956,-2.3205,-2.3029,-2.3132,-2.3836,-2.4249,-2.4497,-2.4497,-2.4497,-2.4497,-2.4497,-2.4724,-2.4869,-2.4869,-2.5337,-2.5585,-2.5585,-2.5378,-2.5264,-2.5264,-2.5471,-2.5471,-2.5264,-2.5264,-2.5378,-2.5575,-2.5357,-2.5254,-2.5179,-2.4962,-2.4724,-2.4497,-2.4497,-2.4497,-2.4497,-2.4497,-2.4497,-2.4497,-2.4497,-2.4497,-2.4497,-2.367,-2.3846,-2.395,-2.4146,-2.3826,-2.3732,-2.4394,-2.425,-2.3867,-2.3412,-2.3256,-2.2873,-2.2056,-2.1869,-2.1807,-2.1807,-2.1807,-2.1952,-2.2315,-2.2004,-2.2014,-2.248,-2.2056,-2.1807,-2.1807,-2.1807,-2.1568,-2.1098,-2.0304,-1.9678,-1.9183,-1.8922,-1.8672,-1.8459,-1.9032,-1.9716,-2.047,-2.1469,-2.1991,-2.2183,-2.2536,-2.2148,-2.1356,-2.0781,-2.0473,-2.0382,-2.1132,-2.1828,-2.2492,-2.3266,-2.3937,-2.4497,-2.4497,-2.4497,-2.4497,-2.4497,-2.4497,-2.4497,-2.4497,-2.4497,-2.4497,-2.4497,-2.4497,-2.4497,-2.4497,-2.4497,-2.4497,-2.4497,-2.4497,-2.4497,-2.4497,-2.4497,-2.4352,-2.395,-2.3588,-2.3474,-2.3867,-2.3567,-2.3681,-2.4549,-2.4662,-2.4704,-2.4797,-2.4807,-2.4807,-2.4807,-2.5181,-2.5378,-2.5378,-2.5802,-2.6127,-2.6196,-2.6138,-2.6034,-2.5875,-2.6034,-2.6034,-2.5875,-2.5875,-2.5982,-2.6086,-2.5927,-2.5699,-2.5378,-2.523,-2.4921,-2.4497,-2.4497,-2.4497,-2.4497,-2.4497,-2.4497,-2.4497,-2.4497,-2.4497,-2.4497,-2.3153,-2.3588,-2.3753,-2.336,-2.3929,-2.4425,-2.4487,-2.4466,-2.4333,-2.3888,-2.3453,-2.2998,-2.2501,-2.2066,-2.1807,-2.1807,-2.1807,-2.1818,-2.1859,-2.1828,-2.2014,-2.248,-2.2056,-2.1807,-2.1807,-2.1807,-2.1769,-2.1731,-2.0489,-1.9864,-1.9825,-1.8625,-1.8049,-1.8051,-1.8475,-1.8903,-1.9445,-2.1176,-2.1739,-2.1579,-2.2872,-2.2608,-2.1401,-2.1356,-2.0871,-2.0382,-2.1132,-2.1828,-2.2492,-2.3266,-2.3937,-2.4497,-2.4497,-2.4497,-2.4497,-2.4497,-2.4497,-2.4497,-2.4497,-2.4497,-2.4497,-2.4497,-2.4497,-2.4497,-2.4497,-2.4497,-2.4497,-2.4497,-2.4497,-2.4497,-2.4497,-2.4497,-2.4352,-2.395,-2.3888,-2.3836,-2.3919,-2.3888,-2.4167,-2.5024,-2.5137,-2.5337,-2.574,-2.5782,-2.5782,-2.5782,-2.5813,-2.5834,-2.5834,-2.6314,-2.676,-2.7195,-2.6791,-2.6356,-2.5885,-2.6345,-2.6345,-2.5875,-2.5875,-2.6148,-2.6553,-2.6117,-2.5854,-2.5802,-2.5409,-2.4921,-2.4497,-2.4497,-2.4497,-2.4497,-2.4497,-2.4497,-2.4497,-2.4497,-2.4497,-2.4497,-2.3463,-2.3525,-2.3484,-2.3598,-2.3908,-2.4219,-2.4456,-2.4497,-2.4342,-2.3939,-2.3722,-2.3443,-2.2977,-2.277,-2.2656,-2.2656,-2.2656,-2.2656,-2.2656,-2.2397,-2.218,-2.2076,-2.1901,-2.1807,-2.1807,-2.1807,-2.1807,-2.1807,-2.0934,-2.0498,-2.0498,-1.9599,-1.9101,-1.8929,-1.9277,-1.9696,-2.0251,-2.1085,-2.1678,-2.205,-2.2589,-2.2236,-2.1401,-2.1401,-2.1221,-2.0961,-2.0781,-2.1758,-2.3038,-2.2896,-2.356,-2.4497,-2.4497,-2.4497,-2.4497,-2.4497,-2.4497,-2.4497,-2.4497,-2.4497,-2.4497,-2.4497,-2.4497,-2.4497,-2.4497,-2.4497,-2.4497,-2.4497,-2.4497,-2.4497,-2.4497,-2.4497,-2.4352,-2.395,-2.4105,-2.4291,-2.4291,-2.454,-2.4943,-2.5554,-2.5627,-2.5699,-2.5865,-2.5875,-2.5875,-2.5875,-2.619,-2.6345,-2.6345,-2.6791,-2.7123,-2.7299,-2.7133,-2.6957,-2.6781,-2.6957,-2.6957,-2.6781,-2.6781,-2.6874,-2.704,-2.6864,-2.647,-2.5875,-2.5699,-2.5223,-2.4497,-2.4497,-2.4497,-2.4497,-2.4497,-2.4497,-2.4497,-2.4497,-2.4497,-2.4497,-2.3505,-2.3525,-2.3453,-2.3629,-2.3784,-2.4033,-2.4435,-2.4373,-2.4281,-2.4105,-2.396,-2.3764,-2.3432,-2.3277,-2.3184,-2.3184,-2.3184,-2.3184,-2.3184,-2.2749,-2.2294,-2.1828,-2.1807,-2.1807,-2.1807,-2.1807,-2.1807,-2.1807,-2.1185,-2.0905,-2.0905,-2.0216,-1.9699,-1.9372,-1.9531,-1.9905,-2.0425,-2.0988,-2.1749,-2.2573,-2.2926,-2.2677,-2.2069,-2.2069,-2.1935,-2.1659,-2.1401,-2.2255,-2.345,-2.3159,-2.3691,-2.4497,-2.4497,-2.4497,-2.4497,-2.4497,-2.4497,-2.4497,-2.4497,-2.4497,-2.4497,-2.4497,-2.4497,-2.4497,-2.4497,-2.4497,-2.4497,-2.4497,-2.4497,-2.4497,-2.4497,-2.4497,-2.4394,-2.4136,-2.4414,-2.4714,-2.4714,-2.5106,-2.5595,-2.6041,-2.6138,-2.62,-2.6345,-2.6356,-2.6356,-2.6356,-2.6656,-2.6832,-2.6832,-2.7133,-2.7309,-2.7309,-2.7309,-2.7309,-2.7309,-2.7309,-2.7309,-2.7309,-2.7309,-2.7309,-2.7309,-2.7309,-2.6884,-2.6127,-2.5937,-2.5451,-2.4704,-2.4559,-2.4497,-2.4497,-2.4497,-2.459,-2.4714,-2.4714,-2.4797,-2.49,-2.3101,-2.3598,-2.3732,-2.3267,-2.3567,-2.4033,-2.4435,-2.4167,-2.4043,-2.4435,-2.4157,-2.3888,-2.3888,-2.3474,-2.3194,-2.3194,-2.3194,-2.3194,-2.3184,-2.2749,-2.2294,-2.1828,-2.1807,-2.1807,-2.1807,-2.1807,-2.1807,-2.1807,-2.1213,-2.0905,-2.0905,-2.0226,-1.9599,-1.9002,-1.9002,-1.9209,-1.9579,-2.0776,-2.1881,-2.2879,-2.4055,-2.411,-2.3503,-2.3503,-2.3047,-2.2482,-2.3222,-2.3503,-2.3634,-2.4282,-2.4497,-2.4497,-2.4497,-2.4497,-2.4497,-2.4497,-2.4497,-2.4497,-2.4497,-2.4497,-2.4497,-2.4497,-2.4497,-2.4497,-2.4497,-2.4497,-2.4497,-2.4497,-2.4497,-2.4497,-2.4497,-2.4497,-2.4507,-2.4507,-2.489,-2.5189,-2.5199,-2.5606,-2.6096,-2.6563,-2.6625,-2.6801,-2.7258,-2.7309,-2.7309,-2.7309,-2.7309,-2.7309,-2.7309,-2.7309,-2.7309,-2.7309,-2.7309,-2.7309,-2.7309,-2.7309,-2.7309,-2.7309,-2.7309,-2.7309,-2.7309,-2.7309,-2.705,-2.6594,-2.6127,-2.5637,-2.5158,-2.4693,-2.4507,-2.4507,-2.4507,-2.4786,-2.5199,-2.5199,-2.5513,-2.5813,-2.3101,-2.3598,-2.3732,-2.3267,-2.3826,-2.4342,-2.4476,-2.4383,-2.4342,-2.4476,-2.4383,-2.4301,-2.4301,-2.4177,-2.4094,-2.4094,-2.4094,-2.3867,-2.3225,-2.306,-2.2625,-2.1838,-2.1807,-2.1807,-2.1807,-2.1807,-2.1807,-2.1807,-2.1606,-2.153,-2.153,-2.1328,-2.0653,-1.9638,-2.0118,-2.0089,-1.9697,-2.0795,-2.1881,-2.2911,-2.3531,-2.3677,-2.3503,-2.3503,-2.3363,-2.3135,-2.2809,-2.3343,-2.4153,-2.3894,-2.411,-2.4497,-2.4497,-2.4497,-2.4497,-2.4497,-2.4497,-2.4497,-2.4497,-2.4497,-2.4497,-2.4497,-2.4497,-2.4497,-2.4497,-2.4497,-2.4497,-2.4497,-2.4497,-2.4497,-2.4497,-2.4766,-2.4983,-2.4983,-2.5096,-2.5451,-2.6082,-2.5999,-2.6221,-2.7009,-2.7102,-2.7154,-2.7299,-2.7309,-2.7309,-2.7309,-2.7309,-2.7309,-2.7309,-2.7309,-2.7309,-2.7309,-2.7309,-2.7309,-2.7309,-2.7309,-2.7309,-2.7309,-2.7309,-2.7309,-2.7309,-2.7309,-2.705,-2.6604,-2.647,-2.6103,-2.5647,-2.5168,-2.5202,-2.5451,-2.5106,-2.5295,-2.5689,-2.5689,-2.5771,-2.5854,-2.3329,-2.3722,-2.3795,-2.3546,-2.3908,-2.4333,-2.4476,-2.4342,-2.4301,-2.4476,-2.4497,-2.4497,-2.4497,-2.4497,-2.4497,-2.4497,-2.4497,-2.4115,-2.3246,-2.3184,-2.277,-2.1849,-2.1807,-2.1807,-2.1807,-2.1807,-2.1807,-2.1807,-2.1807,-2.1807,-2.1807,-2.1807,-2.1252,-2.0294,-2.0702,-2.0625,-2.0219,-2.0991,-2.196,-2.308,-2.3493,-2.3733,-2.3894,-2.3894,-2.3894,-2.3851,-2.3387,-2.3787,-2.4454,-2.4024,-2.4153,-2.4497,-2.4497,-2.4497,-2.4497,-2.4497,-2.4497,-2.4497,-2.4497,-2.4497,-2.4497,-2.4497,-2.4497,-2.4497,-2.4497,-2.4497,-2.4497,-2.4497,-2.4497,-2.4497,-2.4497,-2.4724,-2.4972,-2.5158,-2.5378,-2.5678,-2.6216,-2.6418,-2.6615,-2.6988,-2.7195,-2.7309,-2.7309,-2.7309,-2.7309,-2.7309,-2.7309,-2.7309,-2.7309,-2.7309,-2.7309,-2.7309,-2.7309,-2.7309,-2.7309,-2.7309,-2.7309,-2.7309,-2.7309,-2.7309,-2.7309,-2.7309,-2.7154,-2.6884,-2.6698,-2.6459,-2.6159,-2.5668,-2.5544,-2.5616,-2.5523,-2.5647,-2.5906,-2.6127,-2.6314,-2.6449,-2.3712,-2.3908,-2.3929,-2.3929,-2.3908,-2.4074,-2.4435,-2.4198,-2.4084,-2.4445,-2.4497,-2.4497,-2.4497,-2.4497,-2.4497,-2.4497,-2.4497,-2.4115,-2.3246,-2.3184,-2.277,-2.1849,-2.1807,-2.1807,-2.1807,-2.1807,-2.1807,-2.1807,-2.1807,-2.1807,-2.1807,-2.1807,-2.1492,-2.0905,-2.0905,-2.0867,-2.0858,-2.1362,-2.2171,-2.3144,-2.3732,-2.4178,-2.4497,-2.4497,-2.4497,-2.4497,-2.4497,-2.4497,-2.4497,-2.4497,-2.4497,-2.4497,-2.4497,-2.4497,-2.4497,-2.4497,-2.4497,-2.4497,-2.4497,-2.4497,-2.4497,-2.4497,-2.4497,-2.4497,-2.4497,-2.4497,-2.4497,-2.4497,-2.4497,-2.4497,-2.4497,-2.4528,-2.4714,-2.5168,-2.5616,-2.5906,-2.5989,-2.6739,-2.7102,-2.6718,-2.705,-2.7309,-2.7309,-2.7309,-2.7309,-2.7309,-2.7309,-2.7309,-2.7309,-2.7309,-2.7309,-2.7309,-2.7309,-2.7309,-2.7309,-2.7309,-2.7309,-2.7309,-2.7309,-2.7309,-2.7309,-2.7309,-2.7309,-2.7289,-2.6864,-2.6677,-2.6646,-2.6179,-2.573,-2.5451,-2.5802,-2.6013,-2.6096,-2.6521,-2.6946,-2.7247,-2.3836,-2.4157,-2.4291,-2.3939,-2.4167,-2.4394,-2.4487,-2.4414,-2.4394,-2.4487,-2.4497,-2.4497,-2.4497,-2.4497,-2.4497,-2.4497,-2.4497,-2.4115,-2.3246,-2.3184,-2.277,-2.1849,-2.1807,-2.1807,-2.1807,-2.1807,-2.1807,-2.1807,-2.1807,-2.1807,-2.1807,-2.1807,-2.1492,-2.0905,-2.0905,-2.0624,-2.0186,-2.1519,-2.2198,-2.2522,-2.3853,-2.4414,-2.4497,-2.4497,-2.4497,-2.4497,-2.4497,-2.4497,-2.4497,-2.4497,-2.4497,-2.4497,-2.4497,-2.4497,-2.4497,-2.4497,-2.4497,-2.4497,-2.4497,-2.4497,-2.4497,-2.4497,-2.4497,-2.4497,-2.4497,-2.4497,-2.4497,-2.4497,-2.4497,-2.4497,-2.4497,-2.4797,-2.5179,-2.5668,-2.5813,-2.6179,-2.6905,-2.6864,-2.6864,-2.7123,-2.7247,-2.7309,-2.7309,-2.7309,-2.7309,-2.7309,-2.7309,-2.7309,-2.7309,-2.7309,-2.7309,-2.7309,-2.7309,-2.7309,-2.7309,-2.7309,-2.7309,-2.7309,-2.7309,-2.7309,-2.7309,-2.7309,-2.7309,-2.7299,-2.7195,-2.7154,-2.7123,-2.6656,-2.6579,-2.6843,-2.6573,-2.6687,-2.7019,-2.7123,-2.7216,-2.7299,-2.4157,-2.4342,-2.4425,-2.4229,-2.4342,-2.4497,-2.4497,-2.4497,-2.4497,-2.4497,-2.4497,-2.4425,-2.425,-2.4229,-2.4136,-2.3919,-2.4249,-2.4022,-2.2925,-2.306,-2.277,-2.1849,-2.1807,-2.1807,-2.1807,-2.1807,-2.1807,-2.1807,-2.1807,-2.1807,-2.1807,-2.1807,-2.1645,-2.1339,-2.1339,-2.1247,-2.1194,-2.199,-2.2595,-2.3082,-2.3907,-2.4311,-2.4497,-2.4497,-2.4497,-2.4497,-2.4497,-2.4497,-2.4497,-2.4497,-2.4497,-2.4497,-2.4497,-2.4497,-2.4497,-2.4497,-2.4497,-2.4497,-2.4497,-2.4497,-2.4497,-2.4497,-2.4497,-2.4497,-2.4497,-2.4497,-2.4497,-2.4497,-2.4497,-2.4497,-2.4497,-2.4693,-2.5075,-2.5771,-2.5875,-2.6169,-2.6884,-2.6957,-2.6957,-2.6978,-2.7175,-2.7309,-2.7309,-2.7309,-2.7309,-2.7309,-2.7309,-2.7309,-2.7309,-2.7309,-2.7309,-2.7309,-2.7309,-2.7309,-2.7309,-2.7309,-2.7309,-2.7309,-2.7309,-2.7309,-2.7309,-2.7309,-2.7309,-2.7309,-2.7309,-2.7309,-2.7289,-2.705,-2.6957,-2.6978,-2.6957,-2.6957,-2.7009,-2.7226,-2.7309,-2.7309,-2.4425,-2.4497,-2.4497,-2.4497,-2.4497,-2.4497,-2.4497,-2.4497,-2.4497,-2.4497,-2.4497,-2.4363,-2.4033,-2.3991,-2.3805,-2.335,-2.3991,-2.3867,-2.2697,-2.2904,-2.2687,-2.1849,-2.1807,-2.1807,-2.1807,-2.1807,-2.1807,-2.1807,-2.1807,-2.1807,-2.1807,-2.1807,-2.1807,-2.1807,-2.1807,-2.2066,-2.2501,-2.2584,-2.3111,-2.3929,-2.396,-2.4209,-2.4497,-2.4497,-2.4497,-2.4497,-2.4497,-2.4497,-2.4497,-2.4497,-2.4497,-2.4497,-2.4497,-2.4497,-2.4497,-2.4497,-2.4497,-2.4497,-2.4497,-2.4497,-2.4497,-2.4497,-2.4497,-2.4497,-2.4497,-2.4497,-2.4518,-2.46,-2.4559,-2.4518,-2.46,-2.4549,-2.4797,-2.573,-2.5875,-2.6107,-2.6656,-2.7061,-2.7164,-2.6781,-2.7071,-2.7309,-2.7309,-2.7309,-2.7309,-2.7309,-2.7309,-2.7309,-2.7309,-2.7309,-2.7309,-2.7309,-2.7309,-2.7309,-2.7309,-2.7309,-2.7309,-2.7309,-2.7309,-2.7309,-2.7309,-2.7309,-2.7309,-2.7309,-2.7309,-2.7309,-2.7309,-2.7309,-2.7081,-2.677,-2.7154,-2.7071,-2.6781,-2.7164,-2.7309,-2.7309,-2.4487,-2.4497,-2.4497,-2.4497,-2.4497,-2.4497,-2.4497,-2.4497,-2.4497,-2.4497,-2.4497,-2.4476,-2.4414,-2.4404,-2.4271,-2.3826,-2.3898,-2.3722,-2.3132,-2.278,-2.2356,-2.1828,-2.1807,-2.1807,-2.1807,-2.1807,-2.1807,-2.1807,-2.1807,-2.1807,-2.1807,-2.1807,-2.1807,-2.1807,-2.1807,-2.2066,-2.2522,-2.2925,-2.3391,-2.3919,-2.4291,-2.4445,-2.4497,-2.4497,-2.4497,-2.4497,-2.4497,-2.4497,-2.4497,-2.4497,-2.4497,-2.4497,-2.4497,-2.4497,-2.4497,-2.4497,-2.4497,-2.4497,-2.4497,-2.4497,-2.4497,-2.4497,-2.4497,-2.4497,-2.4497,-2.4497,-2.4611,-2.5013,-2.4776,-2.4621,-2.5024,-2.4766,-2.4797,-2.573,-2.5875,-2.6231,-2.7092,-2.7268,-2.7289,-2.7216,-2.7268,-2.7309,-2.7309,-2.7309,-2.7309,-2.7309,-2.7309,-2.7309,-2.7309,-2.7309,-2.7309,-2.7309,-2.7309,-2.7309,-2.7309,-2.7309,-2.7309,-2.7309,-2.7309,-2.7309,-2.7309,-2.7309,-2.7309,-2.7309,-2.7309,-2.7309,-2.7309,-2.7309,-2.7268,-2.7216,-2.7289,-2.7268,-2.7216,-2.7289,-2.7309,-2.7309,-2.4497,-2.4497,-2.4497,-2.4497,-2.4497,-2.4497,-2.4497,-2.4497,-2.4497,-2.4497,-2.4497,-2.4311,-2.3836,-2.3557,-2.3318,-2.3122,-2.335,-2.3184,-2.247,-2.247,-2.2294,-2.1828,-2.1807,-2.1807,-2.1807,-2.1807,-2.1807,-2.1807,-2.1807,-2.1807,-2.1807,-2.1807,-2.1807,-2.1807,-2.1807,-2.2066,-2.2532,-2.2987,-2.3453,-2.3961,-2.4321,-2.4497,-2.4497,-2.4497,-2.4497,-2.4497,-2.4497,-2.4497,-2.4497,-2.4497,-2.4497,-2.4497,-2.4497,-2.4497,-2.4497,-2.4497,-2.4497,-2.4497,-2.4497,-2.4497,-2.4497,-2.4497,-2.4497,-2.4569,-2.4828,-2.4879,-2.4941,-2.5148,-2.5024,-2.4941,-2.5148,-2.5024,-2.5096,-2.5771,-2.6138,-2.6542,-2.7216,-2.7309,-2.7309,-2.7309,-2.7309,-2.7309,-2.7309,-2.7309,-2.7309,-2.7309,-2.7309,-2.7309,-2.7309,-2.7309,-2.7309,-2.7309,-2.7309,-2.7309,-2.7309,-2.7309,-2.7309,-2.7309,-2.7309,-2.7309,-2.7309,-2.7309,-2.7309,-2.7309,-2.7309,-2.7309,-2.7309,-2.7309,-2.7309,-2.7309,-2.7309,-2.7309,-2.7309,-2.7309,-2.7309,-2.7309]},{"header":{"parameterUnit":"m.s-1","parameterCategory":1,"la1":30.6,"la2":28.766,"lo1":-90.7593,"lo2":-88.6598,"dy":0.0162,"dx":0.0183,"nx":116,"ny":114,"refTime":"2023-04-04T06:00:00:Z","depth":0,"parameterNumber":3,"parameterNumberName":"V-component_of_WINDS"},"data":[0.0,0.0,0.0,0.0,0.0,0.0,0.0,0.0,0.0,0.0,0.0,0.0,0.0,0.0,0.0,0.0,0.0,0.0,0.0,0.0,0.0,0.0,0.0,0.0,0.0,0.0,0.0,0.0,0.0,0.0,0.0,0.0,0.0,0.0,0.0,0.0,0.0,0.0,0.0,0.0,0.0,0.0,0.0,0.0,0.0,0.0,0.0,0.0,0.0,0.0,0.0,0.0,0.0,0.0,0.0,0.0,0.0,0.0,0.0,0.0,0.0,0.0,0.0,0.0,0.0,0.0,0.0,0.0,0.0,0.0,0.0,0.0,0.0,0.0,0.0,0.0,0.0,0.0,0.0,0.0,0.0,0.0,0.0,0.0,0.0,0.0,0.0,0.0,0.0,0.0,0.0,0.0,0.0,0.0,0.0,0.0,0.0,0.0,0.0,0.0,0.0,0.0,0.0,0.0,0.0,0.0,0.0,0.0,0.0,0.0,0.0,0.0,0.0,0.0,0.0,0.0,0.0,0.0,0.0,0.0,0.0,0.0,0.0,0.0,0.0,0.0,0.0,0.0,0.0,0.0,0.0,0.0,0.0,0.0,0.0,0.0,0.0,0.0,0.0,0.0,0.0,0.0,0.0,0.0,0.0,0.0,0.0,0.0,0.0,0.0,0.0,0.0,0.0,0.0,0.0,0.0,0.0,0.0,0.0,0.0,0.0,0.0,0.0,0.0,0.0,0.0,0.0,0.0,0.0,0.0,0.0,0.0,0.0,0.0,0.0,0.0,0.0,0.0,0.0,0.0,0.0,0.0,0.0,0.0,0.0,0.0,0.0,0.0,0.0,0.0,0.0,0.0,0.0,0.0,0.0,0.0,0.0,0.0,0.0,0.0,0.0,0.0,0.0,0.0,0.0,0.0,0.0,0.0,0.0,0.0,0.0,0.0,0.0,0.0,0.0,0.0,0.0,0.0,0.0,0.0,0.0,0.0,0.0,0.0,0.0,0.0,0.0,0.0,0.0,0.0,0.0,0.0,0.0,0.0,0.0,0.0,0.0,0.0,0.0,0.0,0.0,0.0,0.0,0.0,0.0,0.0,0.0,0.0,0.0,0.0,0.0,0.0,0.0,0.0,0.0,0.0,0.0,0.0,0.0,0.0,0.0,0.0,0.0,0.0,0.0,0.0,0.0,0.0,0.0,0.0,0.0,0.0,0.0,0.0,0.0,0.0,0.0,0.0,0.0,0.0,0.0,0.0,0.0,0.0,0.0,0.0,0.0,0.0,0.0,0.0,0.0,0.0,0.0,0.0,0.0,0.0,0.0,0.0,0.0,0.0,0.0,0.0,0.0,0.0,0.0,0.0,0.0,0.0,0.0,0.0,0.0,0.0,0.0,0.0,0.0,0.0,0.0,0.0,0.0,0.0,0.0,0.0,0.0,0.0,0.0,0.0,0.0,0.0,0.0,0.0,0.0,0.0,0.0,0.0,0.0,0.0,0.0,0.0,0.0,0.0,0.0,0.0,0.0,0.0,0.0,0.0,0.0,0.0,0.0,0.0,0.0,0.0,0.0,0.0,0.0,0.0,0.0,0.0,0.0,0.0,0.0,0.0,0.0,0.0,0.0,0.0,0.0,0.0,0.0,0.0,0.0,0.0,0.0,0.0,0.0,0.0,0.0,0.0,0.0,0.0,0.0,0.0,0.0,0.0,0.0,0.0,0.0,0.0,0.0,0.0,0.0,0.0,0.0,0.0,0.0,0.0,0.0,0.0,0.0,0.0,0.0,0.0,0.0,0.0,0.0,0.0,0.0,0.0,0.0,0.0,0.0,0.0,0.0,0.0,0.0,0.0,0.0,0.0,0.0,0.0,0.0,0.0,0.0,0.0,0.0,0.0,0.0,0.0,0.0,0.0,0.0,0.0,0.0,0.0,0.0,0.0,0.0,0.0,0.0,0.0,0.0,0.0,0.0,0.0,0.0,0.0,0.0,0.0,0.0,0.0,0.0,0.0,0.0,0.0,0.0,0.0,0.0,0.0,0.0,0.0,0.0,0.0,0.0,0.0,0.0,0.0,0.0,0.0,0.0,0.0,0.0,0.0,0.0,0.0,0.0,0.0,0.0,0.0,0.0,0.0,0.0,0.0,0.0,0.0,0.0,0.0,0.0,0.0,0.0,0.0,0.0,0.0,0.0,0.0,0.0,0.0,0.0,0.0,0.0,0.0,0.0,0.0,0.0,0.0,0.0,0.0,0.0,0.0,0.0,0.0,0.0,0.0,0.0,0.0,0.0,0.0,0.0,0.0,0.0,0.0,0.0,0.0,0.0,0.0,0.0,0.0,0.0,0.0,0.0,0.0,0.0,0.0,0.0,0.0,0.0,0.0,0.0,0.0,0.0,0.0,0.0,0.0,0.0,0.0,0.0,0.0,0.0,0.0,0.0,0.0,0.0,0.0,0.0,0.0,0.0,0.0,0.0,0.0,0.0,0.0,0.0,0.0,0.0,0.0,0.0,0.0,0.0,0.0,0.0,0.0,0.0,0.0,0.0,0.0,0.0,0.0,0.0,0.0,0.0,0.0,0.0,0.0,0.0,0.0,0.0,0.0,0.0,0.0,0.0,0.0,0.0,0.0,0.0,0.0,0.0,0.0,0.0,0.0,0.0,0.0,0.0,0.0,0.0,0.0,0.0,0.0,0.0,0.0,0.0,0.0,0.0,0.0,0.0,0.0,0.0,0.0,0.0,0.0,0.0,0.0,0.0,0.0,0.0,0.0,0.0,0.0,0.0,0.0,0.0,0.0,0.0,0.0,0.0,0.0,0.0,0.0,0.0,0.0,0.0,0.0,0.0,0.0,0.0,0.0,0.0,0.0,0.0,0.0,0.0,0.0,0.0,0.0,0.0,0.0,0.0,0.0,0.0,0.0,0.0,0.0,0.0,0.0,0.0,0.0,0.0,0.0,0.0,0.0,0.0,0.0,0.0,0.0,0.0,0.0,0.0,0.0,0.0,0.0,0.0,0.0,0.0,0.0,0.0,0.0,0.0,0.0,0.0,0.0,0.0,0.0,0.0,0.0,0.0,0.0,0.0,0.0,0.0,0.0,0.0,0.0,0.0,0.0,0.0,0.0,0.0,0.0,0.0,0.0,0.0,0.0,0.0,0.0,0.0,0.0,0.0,0.0,0.0,0.0,0.0,0.0,0.0,0.0,0.0,0.0,0.0,0.0,0.0,0.0,0.0,0.0,0.0,0.0,0.0,0.0,0.0,0.0,0.0,0.0,0.0,0.0,0.0,0.0,0.0,0.0,0.0,0.0,0.0,0.0,0.0,0.0,0.0,0.0,0.0,0.0,0.0,0.0,0.0,0.0,0.0,0.0,0.0,0.0,0.0,0.0,0.0,0.0,0.0,0.0,0.0,0.0,0.0,0.0,0.0,0.0,0.0,0.0,0.0,0.0,0.0,0.0,0.0,0.0,0.0,0.0,0.0,0.0,0.0,0.0,0.0,0.0,0.0,0.0,0.0,0.0,0.0,0.0,0.0,0.0,0.0,0.0,0.0,0.0,0.0,0.0,0.0,0.0,0.0,0.0,0.0,0.0,0.0,0.0,0.0,0.0,0.0,0.0,0.0,0.0,0.0,0.0,0.0,0.0,0.0,0.0,0.0,0.0,0.0,0.0,0.0,0.0,0.0,0.0,0.0,0.0,0.0,0.0,0.0,0.0,0.0,0.0,0.0,0.0,0.0,0.0,0.0,0.0,0.0,0.0,0.0,0.0,0.0,0.0,0.0,0.0,0.0,0.0,0.0,0.0,0.0,0.0,0.0,0.0,0.0,0.0,0.0,0.0,0.0,0.0,0.0,0.0,0.0,0.0,0.0,0.0,0.0,0.0,0.0,0.0,0.0,0.0,0.0,0.0,0.0,0.0,0.0,0.0,0.0,0.0,0.0,0.0,0.0,0.0,0.0,0.0,0.0,0.0,0.0,0.0,0.0,0.0,0.0,0.0,0.0,0.0,0.0,0.0,0.0,0.0,0.0,0.0,0.0,0.0,0.0,0.0,0.0,0.0,0.0,0.0,0.0,0.0,0.0,0.0,0.0,0.0,0.0,0.0,0.0,0.0,0.0,0.0,0.0,0.0,0.0,0.0,0.0,0.0,0.0,0.0,0.0,0.0,0.0,0.0,0.0,0.0,0.0,0.0,0.0,0.0,0.0,0.0,0.0,0.0,0.0,0.0,0.0,0.0,0.0,0.0,0.0,0.0,0.0,0.0,0.0,0.0,0.0,0.0,0.0,0.0,0.0,0.0,0.0,0.0,0.0,0.0,0.0,0.0,0.0,0.0,0.0,0.0,0.0,0.0,0.0,0.0,0.0,0.0,0.0,0.0,0.0,0.0,0.0,0.0,0.0,0.0,0.0,0.0,0.0,0.0,0.0,0.0,0.0,0.0,0.0,0.0,0.0,0.0,0.0,0.0,0.0,0.0,0.0,0.0,0.0,0.0,0.0,0.0,0.0,0.0,0.0,0.0,0.0,0.0,0.0,0.0,0.0,0.0,0.0,0.0,0.0,0.0,0.0,0.0,0.0,0.0,0.0,0.0,0.0,0.0,0.0,0.0,0.0,0.0,0.0,0.0,0.0,0.0,0.0,0.0,0.0,0.0,0.0,0.0,0.0,0.0,0.0,0.0,0.0,0.0,0.0,0.0,0.0,0.0,0.0,0.0,0.0,0.0,0.0,0.0,0.0,0.0,0.0,0.0,0.0,0.0,0.0,0.0,0.0,0.0,0.0,0.0,0.0,0.0,0.0,0.0,0.0,0.0,0.0,0.0,0.0,0.0,0.0,0.0,0.0,0.0,0.0,0.0,0.0,0.0,0.0,0.0,0.0,0.0,0.0,0.0,0.0,0.0,0.0,0.0,0.0,0.0,0.0,0.0,0.0,0.0,0.0,0.0,0.0,0.0,0.0,0.0,0.0,0.0,0.0,0.0,0.0,0.0,0.0,0.0,0.0,0.0,0.0,0.0,0.0,0.0,0.0,0.0,0.0,0.0,0.0,0.0,0.0,0.0,0.0,0.0,0.0,0.0,0.0,0.0,0.0,0.0,0.0,0.0,0.0,0.0,0.0,0.0,0.0,0.0,0.0,0.0,0.0,0.0,0.0,0.0,0.0,0.0,0.0,0.0,0.0,0.0,0.0,0.0,0.0,0.0,0.0,0.0,0.0,0.0,0.0,0.0,0.0,0.0,0.0,0.0,0.0,0.0,0.0,0.0,0.0,0.0,0.0,0.0,0.0,0.0,0.0,0.0,0.0,0.0,0.0,0.0,0.0,0.0,0.0,0.0,0.0,0.0,0.0,0.0,0.0,0.0,0.0,0.0,0.0,0.0,0.0,0.0,0.0,0.0,0.0,0.0,0.0,0.0,0.0,0.0,0.0,0.0,0.0,0.0,0.0,0.0,0.0,0.0,0.0,0.0,0.0,0.0,0.0,0.0,0.0,0.0,0.0,0.0,0.0,0.0,0.0,0.0,0.0,0.0,0.0,0.0,0.0,0.0,0.0,0.0,0.0,0.0,0.0,0.0,0.0,0.0,0.0,0.0,0.0,0.0,0.0,0.0,0.0,0.0,0.0,0.0,0.0,0.0,0.0,0.0,0.0,0.0,0.0,0.0,0.0,0.0,0.0,0.0,0.0,0.0,0.0,0.0,0.0,0.0,0.0,0.0,0.0,0.0,0.0,0.0,0.0,0.0,0.0,0.0,0.0,0.0,0.0,0.0,0.0,0.0,0.0,0.0,0.0,0.0,0.0,0.0,0.0,0.0,0.0,0.0,0.0,0.0,0.0,0.0,0.0,0.0,0.0,0.0,0.0,0.0,0.0,0.0,0.0,0.0,0.0,0.0,0.0,0.0,0.0,0.0,0.0,0.0,0.0,0.0,0.0,0.0,0.0,0.0,0.0,0.0,0.0,0.0,0.0,0.0,0.0,0.0,0.0,0.0,0.0,0.0,0.0,0.0,0.0,0.0,0.0,0.0,0.0,0.0,0.0,0.0,0.0,0.0,0.0,0.0,0.0,0.0,0.0,0.0,0.0,0.0,0.0,0.0,0.0,0.0,0.0,0.0,2.4013,2.4393,0.0,0.0,0.0,0.0,0.0,0.0,0.0,0.0,0.0,0.0,0.0,0.0,0.0,0.0,0.0,0.0,0.0,0.0,0.0,0.0,0.0,0.0,0.0,0.0,0.0,0.0,0.0,0.0,0.0,0.0,0.0,0.0,0.0,0.0,0.0,0.0,0.0,0.0,2.017,2.0952,2.179,2.2493,2.2734,2.2582,0.0,0.0,0.0,0.0,0.0,0.0,0.0,0.0,0.0,0.0,0.0,0.0,0.0,0.0,0.0,0.0,0.0,0.0,0.0,0.0,0.0,0.0,0.0,0.0,0.0,0.0,0.0,0.0,0.0,0.0,0.0,0.0,0.0,0.0,0.0,0.0,0.0,0.0,0.0,0.0,0.0,0.0,0.0,0.0,0.0,0.0,0.0,0.0,0.0,0.0,0.0,0.0,0.0,0.0,0.0,0.0,0.0,0.0,0.0,0.0,0.0,0.0,0.0,0.0,0.0,0.0,0.0,0.0,0.0,0.0,2.4983,2.5002,0.0,0.0,0.0,0.0,0.0,0.0,0.0,0.0,0.0,0.0,0.0,0.0,0.0,0.0,0.0,0.0,0.0,0.0,0.0,0.0,0.0,0.0,0.0,0.0,1.9127,1.8976,1.8807,1.8771,0.0,0.0,0.0,0.0,0.0,0.0,0.0,1.866,1.8895,1.9442,2.1012,2.2465,2.3761,2.3894,2.353,2.2802,2.3042,0.0,0.0,0.0,0.0,0.0,0.0,0.0,0.0,0.0,0.0,0.0,0.0,0.0,0.0,0.0,0.0,0.0,0.0,0.0,0.0,0.0,0.0,0.0,0.0,0.0,0.0,0.0,0.0,0.0,0.0,0.0,0.0,0.0,0.0,0.0,0.0,0.0,0.0,0.0,0.0,0.0,0.0,0.0,0.0,0.0,0.0,0.0,0.0,0.0,0.0,0.0,0.0,0.0,0.0,0.0,0.0,0.0,0.0,0.0,0.0,0.0,0.0,0.0,2.7031,2.7067,2.7098,2.7944,2.7676,2.6551,2.6821,2.6352,2.54,2.5321,0.0,0.0,0.0,0.0,0.0,0.0,0.0,0.0,0.0,0.0,0.0,0.0,0.0,0.0,0.0,0.0,0.0,0.0,0.0,0.0,0.0,1.9295,1.9192,1.9154,1.9138,1.9089,1.8998,0.0,0.0,0.0,0.0,0.0,1.9121,1.8895,1.957,2.1171,2.2884,2.3843,2.4072,2.4647,2.515,2.5533,2.4554,2.3968,2.3694,0.0,0.0,0.0,0.0,0.0,0.0,0.0,0.0,0.0,0.0,0.0,0.0,0.0,0.0,0.0,0.0,0.0,0.0,0.0,0.0,0.0,0.0,0.0,0.0,0.0,0.0,0.0,0.0,0.0,0.0,0.0,0.0,0.0,0.0,0.0,0.0,0.0,0.0,0.0,0.0,0.0,2.2832,2.1857,0.0,0.0,0.0,0.0,0.0,0.0,0.0,0.0,0.0,0.0,0.0,0.0,0.0,2.6145,2.7428,2.7057,2.6905,2.6996,2.7531,2.7769,2.7824,2.9368,2.9713,2.9165,3.0212,0.0,2.5788,2.5374,0.0,0.0,0.0,0.0,0.0,0.0,0.0,0.0,0.0,0.0,0.0,0.0,0.0,0.0,0.0,0.0,0.0,0.0,0.0,0.0,0.0,2.0307,2.0834,2.0728,2.1575,2.1728,2.0792,2.0823,0.0,0.0,0.0,1.8977,1.8474,1.9676,2.1632,2.4316,2.5142,2.577,2.6196,2.6439,2.687,2.7404,2.661,2.5859,2.5092,2.3461,0.0,0.0,0.0,0.0,0.0,0.0,0.0,0.0,0.0,0.0,0.0,0.0,0.0,0.0,0.0,0.0,0.0,0.0,0.0,0.0,0.0,0.0,0.0,0.0,0.0,0.0,0.0,0.0,0.0,0.0,0.0,0.0,0.0,0.0,0.0,0.0,0.0,0.0,0.0,2.1789,2.2119,2.1019,2.1428,2.1489,0.0,0.0,0.0,0.0,0.0,0.0,0.0,0.0,0.0,2.6261,2.7278,2.8326,2.9406,2.9779,3.037,3.116,3.142,3.1753,3.2142,3.2879,3.308,3.2893,3.3408,3.2509,3.0491,2.814,2.6655,2.5778,0.0,0.0,0.0,0.0,2.5364,2.5744,0.0,0.0,0.0,0.0,0.0,0.0,0.0,0.0,0.0,0.0,0.0,0.0,2.0127,2.1584,2.2585,2.2634,2.3825,2.3884,2.225,2.1906,0.0,0.0,1.8831,1.8463,1.7964,2.0742,2.3744,2.686,2.7353,2.7981,2.8723,2.8654,2.8943,2.9505,2.9016,2.7956,2.643,2.4448,2.3371,2.2858,0.0,0.0,0.0,0.0,0.0,0.0,0.0,0.0,0.0,0.0,0.0,0.0,0.0,0.0,0.0,0.0,0.0,0.0,0.0,0.0,0.0,0.0,0.0,0.0,0.0,0.0,0.0,0.0,0.0,0.0,0.0,0.0,0.0,0.0,0.0,0.0,0.0,2.2065,2.2551,2.1011,2.1946,2.2367,0.0,0.0,0.0,0.0,0.0,0.0,2.5043,2.6402,2.7632,2.8699,2.9751,3.0823,3.1822,3.266,3.3631,3.4662,3.4662,3.4904,3.5395,3.5534,3.555,3.5427,3.5741,3.5395,3.4417,3.1248,2.9377,2.8401,2.7294,2.6992,2.7254,2.7561,2.8149,2.8907,0.0,0.0,0.0,0.0,0.0,0.0,0.0,0.0,0.0,0.0,0.0,2.1105,2.206,2.2975,2.3834,2.4594,2.4911,2.4284,2.242,2.157,2.025,1.8257,1.7436,1.7355,1.8074,2.2072,2.5364,2.7827,2.9297,3.043,3.1231,3.1157,3.1545,3.2273,3.1747,3.0014,2.7445,2.611,2.519,2.44,2.2228,0.0,0.0,0.0,0.0,0.0,0.0,0.0,0.0,0.0,0.0,0.0,0.0,0.0,0.0,0.0,0.0,0.0,0.0,0.0,0.0,0.0,0.0,0.0,0.0,0.0,0.0,0.0,0.0,0.0,0.0,0.0,0.0,0.0,0.0,0.0,0.0,0.0,0.0,2.3355,2.4327,0.0,0.0,0.0,0.0,2.6491,2.7258,2.7662,2.7715,2.8965,3.0352,3.1725,3.2636,3.3763,3.5153,3.5221,3.5284,3.5348,3.5348,3.5379,3.5411,3.5943,3.5889,3.5471,3.6612,3.6433,3.5237,3.3911,3.2937,3.2277,3.183,3.116,3.0544,3.1408,3.1391,3.1055,0.0,0.0,0.0,0.0,0.0,0.0,0.0,0.0,1.9592,1.9688,2.0533,2.1448,2.2335,2.4242,2.5784,2.66,2.7808,2.7501,2.5166,2.363,2.1997,2.0107,1.8105,1.8368,2.1254,2.3225,2.5921,2.937,3.0442,3.1097,3.134,3.1263,3.1923,3.3116,3.2371,3.1786,3.123,2.8603,2.6644,2.5129,2.348,2.2566,0.0,0.0,0.0,0.0,0.0,0.0,0.0,0.0,0.0,0.0,0.0,0.0,0.0,0.0,0.0,0.0,0.0,0.0,0.0,0.0,0.0,0.0,0.0,0.0,0.0,0.0,0.0,0.0,0.0,0.0,0.0,0.0,0.0,0.0,0.0,0.0,0.0,2.6748,2.8317,0.0,2.8109,2.8112,2.8513,2.9354,3.0418,3.1252,3.1737,3.3073,3.4272,3.5235,3.5585,3.6218,3.7198,3.7214,3.7443,3.791,3.791,3.791,3.791,3.8099,3.8072,3.7927,3.8351,3.8291,3.7878,3.7451,3.5876,3.3688,3.3115,3.2924,3.3064,3.3974,3.4403,3.4635,0.0,0.0,0.0,0.0,0.0,0.0,0.0,0.0,1.982,2.0193,2.1113,2.2277,2.3692,2.5724,2.7404,2.852,2.9189,2.8434,2.577,2.3923,2.1861,1.9478,1.8448,1.966,2.3391,2.4762,2.7287,3.1017,3.1524,3.2017,3.2496,3.2447,3.3089,3.4309,3.3832,3.3723,3.3758,3.1672,2.9351,2.6979,2.5327,2.4093,2.292,0.0,0.0,0.0,0.0,0.0,0.0,0.0,0.0,0.0,0.0,0.0,0.0,0.0,0.0,0.0,0.0,0.0,0.0,0.0,0.0,0.0,0.0,0.0,0.0,0.0,0.0,0.0,0.0,0.0,0.0,0.0,0.0,0.0,0.0,2.7024,2.8728,2.9384,3.1037,3.1888,3.1226,3.1621,3.21,3.2518,3.4064,3.4987,3.497,3.61,3.697,3.7466,3.7483,3.7831,3.856,3.8576,3.8808,3.9299,3.9299,3.9299,3.9299,3.9299,3.9299,3.9299,3.9299,3.9299,3.9299,3.9299,3.8007,3.6023,3.555,3.5451,3.5651,3.6518,3.6953,3.7192,0.0,0.0,0.0,0.0,0.0,0.0,0.0,1.9707,2.0081,2.116,2.2064,2.3604,2.6211,2.733,2.8563,3.0212,2.8852,2.6721,2.398,2.2133,1.9644,1.6228,1.8338,2.1074,2.4209,2.6694,2.9504,3.2638,3.2577,3.3392,3.4932,3.486,3.5253,3.6039,3.6314,3.5829,3.4815,3.5127,3.3345,3.0108,2.7877,2.6911,2.6451,0.0,0.0,0.0,0.0,0.0,0.0,0.0,0.0,0.0,0.0,0.0,0.0,0.0,0.0,0.0,0.0,0.0,0.0,0.0,0.0,0.0,0.0,0.0,0.0,0.0,0.0,0.0,0.0,0.0,0.0,0.0,0.0,0.0,2.6321,2.9644,3.1853,3.1245,3.249,3.3348,3.3184,3.4445,3.5547,3.6108,3.8129,3.8725,3.7317,3.7904,3.8311,3.8311,3.8268,3.8609,3.9332,3.9315,3.9299,3.9299,3.9299,3.9315,3.9332,3.9332,3.9348,3.9365,3.9348,3.9332,3.9332,3.9315,3.9299,3.9299,3.9299,3.8858,3.8328,3.905,3.893,3.857,0.0,0.0,0.0,0.0,0.0,0.0,0.0,1.9701,2.0214,2.1056,2.2008,2.3604,2.6211,2.733,2.8319,2.9371,2.8456,2.6697,2.4055,2.1605,1.9464,1.767,2.0457,2.3253,2.5874,2.8316,3.0827,3.3405,3.3959,3.4724,3.5627,3.5612,3.6002,3.6753,3.7057,3.716,3.7093,3.6929,3.614,3.4714,3.1904,2.9504,2.7487,0.0,0.0,0.0,0.0,0.0,0.0,0.0,0.0,0.0,0.0,0.0,0.0,0.0,0.0,0.0,0.0,0.0,0.0,0.0,0.0,0.0,0.0,0.0,0.0,0.0,0.0,0.0,0.0,0.0,0.0,0.0,2.9335,3.1594,3.1104,3.2626,3.4603,3.6746,3.7838,3.8596,3.9017,3.9425,3.973,3.9901,4.0481,4.0647,4.0249,4.0415,4.0531,4.0531,4.005,3.9885,4.0111,3.9564,3.9299,3.9299,3.9299,3.958,4.0111,4.0111,4.0348,4.0796,4.0299,4.0111,4.0061,3.9514,3.9299,3.9299,3.9299,3.9183,3.9033,3.9339,3.9404,3.9384,0.0,0.0,0.0,0.0,0.0,0.0,0.0,1.9656,2.0298,2.1486,2.2193,2.3609,2.6252,2.6669,2.7086,2.7898,2.6178,2.4216,2.2315,2.0304,1.9487,2.0144,2.2959,2.577,2.8471,3.0589,3.2655,3.4655,3.5097,3.5693,3.6401,3.637,3.6955,3.8011,3.8203,3.847,3.8775,3.8384,3.797,3.7365,3.5445,3.2852,3.0114,2.9218,2.7828,2.6328,2.6052,2.594,2.5778,2.4898,0.0,0.0,0.0,0.0,0.0,0.0,0.0,0.0,0.0,0.0,0.0,0.0,0.0,0.0,0.0,0.0,0.0,0.0,0.0,0.0,0.0,0.0,0.0,0.0,3.2188,3.5148,3.5915,3.658,3.7774,3.9934,4.0547,4.0961,4.1375,4.1662,4.1711,4.1425,4.196,4.2042,4.1413,4.1678,4.174,4.1397,4.1028,4.0812,4.0812,4.0382,4.0166,4.0166,4.0166,4.0398,4.0812,4.0812,4.1028,4.1375,4.068,4.0409,4.0343,3.9597,3.9299,3.9299,0.0,0.0,0.0,0.0,3.9458,3.9547,0.0,0.0,0.0,0.0,0.0,0.0,0.0,1.9585,2.0346,2.2141,2.2509,2.3609,2.6287,2.5833,2.5623,2.6325,2.3197,2.0765,1.9717,1.8985,2.0016,2.3161,2.5676,2.8402,3.1409,3.3013,3.4582,3.6112,3.6069,3.6492,3.7364,3.7299,3.8082,3.9532,3.9623,3.9788,4.0003,3.9529,3.9159,3.8784,3.8152,3.6248,3.3575,3.1656,3.0847,3.0609,3.0006,2.9342,2.871,2.8611,0.0,0.0,0.0,0.0,0.0,0.0,0.0,0.0,0.0,0.0,0.0,0.0,0.0,0.0,0.0,0.0,0.0,0.0,0.0,0.0,0.0,0.0,0.0,0.0,3.4751,3.7685,4.026,4.0724,4.0945,4.1446,4.1513,4.1574,4.1657,4.2224,4.234,4.1678,4.2853,4.3019,4.174,4.2258,0.0,0.0,0.0,4.1513,4.1513,4.143,4.1409,4.1409,4.1409,4.143,4.1513,4.1513,4.1513,4.1508,4.0796,4.0475,4.0343,3.9597,3.9299,3.9299,3.9299,3.9299,3.9299,3.9299,3.9299,3.9299,0.0,0.0,0.0,0.0,0.0,0.0,0.0,1.9445,2.0308,2.2022,2.2447,2.3575,2.6151,2.6287,2.618,2.6236,2.3145,2.0486,1.8784,2.02,2.2511,2.5664,2.8118,3.0581,3.3081,3.4097,3.5344,3.6903,3.6869,3.7584,3.895,3.8933,3.9423,4.0311,4.0963,4.1066,4.0749,4.0341,4.0258,4.022,3.8578,3.7195,3.6101,3.5678,3.4747,3.3647,3.3516,3.3363,3.3055,3.1893,3.1306,3.0783,2.9166,2.686,0.0,0.0,0.0,0.0,0.0,0.0,0.0,0.0,0.0,0.0,0.0,0.0,0.0,0.0,0.0,0.0,0.0,0.0,0.0,3.3362,3.7469,4.079,4.1939,4.2589,4.2804,4.2324,4.2274,4.2506,4.3118,4.33,4.3317,4.3184,4.3433,4.3466,4.3184,4.33,4.3317,4.3168,4.2589,4.2274,4.2274,4.1678,4.1409,4.1409,4.1409,0.0,4.2274,4.2274,4.2274,4.2241,4.1524,4.0895,4.0343,3.9597,3.9299,3.9299,3.9299,3.9299,3.9299,3.9299,3.9299,3.9325,0.0,0.0,0.0,0.0,0.0,0.0,0.0,1.9312,2.0026,2.1332,2.1727,2.2405,2.3705,2.3389,2.2905,2.2432,2.0772,1.9507,1.895,2.1828,2.4771,2.7538,2.9965,3.2333,3.4654,3.5139,3.6105,3.7642,3.8041,3.8659,3.9405,3.9786,4.0365,4.1126,4.1524,4.1774,4.1905,4.1241,4.1038,4.1024,3.9583,3.8792,3.8369,3.7618,3.6874,3.6197,3.6197,3.596,3.5543,3.4798,3.4122,3.3359,3.1942,3.0042,2.8104,0.0,0.0,0.0,0.0,0.0,0.0,0.0,0.0,0.0,0.0,0.0,0.0,0.0,0.0,2.7763,0.0,0.0,3.4968,3.6504,3.9684,4.2191,4.2936,4.3367,4.3449,4.3085,4.3035,4.3184,4.3565,4.3598,4.3598,4.3598,4.3598,4.3598,4.3598,4.3598,4.3598,4.3598,4.3234,4.3035,4.3035,4.2688,4.2489,4.2489,4.2489,4.2688,4.3035,4.3035,4.2837,4.2473,4.2092,4.1359,4.0343,3.9597,3.9299,3.9299,3.9299,3.9299,3.9299,3.9299,3.9299,3.9299,0.0,0.0,0.0,0.0,0.0,0.0,0.0,1.9214,1.9719,2.0618,2.0821,2.0945,2.114,2.0311,1.9311,1.8162,1.849,1.8984,1.9578,2.3464,2.679,2.9138,3.1414,3.36,3.575,3.5849,3.6735,3.8444,3.9079,3.955,3.9858,4.0474,4.1162,4.1922,4.1922,4.2228,4.2711,4.1867,4.1437,4.1281,4.0434,4.0096,3.9977,3.8768,3.8328,3.8311,3.8176,3.7347,3.6423,3.6863,3.5933,3.458,3.4346,3.3184,3.1424,2.8945,2.7789,0.0,0.0,0.0,0.0,0.0,0.0,0.0,0.0,0.0,2.7385,2.9987,3.0999,3.185,3.3306,3.5741,3.7998,3.9388,4.1365,4.292,4.3515,4.3598,4.3598,4.3598,4.3598,4.3598,4.3598,4.3598,4.3598,4.3598,4.3598,4.3598,4.3598,4.3598,4.3598,4.3598,4.3598,4.3598,4.3598,4.3598,4.3598,4.3598,4.3598,4.3598,4.3598,4.3449,4.2969,4.2258,4.2005,4.1226,4.0144,3.9547,3.9299,3.9299,3.9299,3.9299,3.9299,3.9299,3.9299,3.9299,0.0,0.0,0.0,0.0,0.0,0.0,0.0,0.0,1.9601,2.0438,2.0036,1.9945,2.0603,2.0047,1.8703,1.6407,1.8744,2.0352,2.0372,2.474,2.8385,3.0747,3.2474,3.4152,3.575,3.582,3.6942,3.9278,3.9351,4.0093,4.1433,4.1524,4.2013,4.2755,4.2755,4.2582,4.2239,4.1721,4.1253,4.0832,4.0303,4.0096,4.0079,3.9926,3.9859,3.9774,3.9106,3.7094,3.5064,3.7094,3.5898,3.4018,3.6597,3.5374,3.2584,3.0395,2.7801,2.5193,2.3011,2.3471,2.4792,2.5744,2.7073,2.8824,0.0,0.0,3.2572,3.4213,3.4631,3.4931,3.5766,3.7686,3.9405,4.023,4.2112,4.3499,4.3582,4.3598,4.3598,4.3598,4.3598,4.3598,4.3598,4.3598,4.3598,4.3598,4.3598,4.3598,4.3598,4.3598,4.3598,4.3598,4.3598,4.3598,4.3598,4.3598,4.3598,4.3598,4.3598,4.3598,4.3582,4.292,4.2208,4.1458,4.0183,3.958,3.9415,3.9332,3.9299,3.9299,3.9299,3.9299,3.9299,3.9299,3.9299,3.9299,0.0,0.0,0.0,0.0,0.0,0.0,0.0,0.0,0.0,1.964,1.9099,1.8616,1.8401,1.7296,1.6325,1.5717,1.7759,1.9845,2.1661,2.5404,2.8615,3.1007,3.2599,3.4184,3.5768,3.5804,3.6761,3.8716,3.9187,3.9948,4.0999,4.1488,4.214,4.2901,4.2901,4.2634,4.2157,4.17,4.123,4.0754,4.0279,4.0096,4.0011,3.914,3.8531,3.8031,3.6806,3.5035,0.0,3.3812,3.344,3.3119,3.5217,3.4363,3.2163,2.9916,2.7995,2.6518,2.5998,2.6547,2.759,2.8986,3.0796,3.2663,3.434,3.4728,3.5416,3.7743,3.8541,3.9039,3.9761,4.0978,4.1962,0.0,4.3015,4.3598,4.3598,4.3598,4.3433,4.3002,4.2953,4.3118,4.3549,4.3598,4.3598,4.3598,4.3598,4.3598,4.3598,4.3598,4.3598,4.3598,4.3598,4.3383,4.2953,4.3383,4.3367,4.2953,4.3383,4.3367,4.2936,4.2638,4.2092,4.1326,3.9901,3.9547,3.9912,3.9481,3.9299,3.9299,3.9299,3.9299,3.9299,3.9299,3.9299,3.9299,0.0,0.0,0.0,0.0,0.0,0.0,0.0,0.0,0.0,0.0,1.8427,1.7657,1.6809,1.5701,1.5209,1.5737,1.727,1.94,2.2142,2.5291,2.8051,3.0308,3.2117,3.3719,3.5098,3.5351,3.6363,3.8209,3.8737,3.9498,4.0474,4.1251,4.1901,4.2423,4.2754,4.2555,4.1906,4.163,4.1162,4.058,4.0246,3.9859,3.9368,3.8075,3.6372,3.4532,3.3596,3.2364,3.0959,2.9991,3.0161,3.1004,3.242,3.2244,3.1059,2.873,2.7087,2.6248,2.7487,2.8647,2.9971,3.2,3.4336,3.6357,3.7284,3.7649,3.846,4.0796,4.1674,4.2158,4.2688,4.3234,4.3598,4.3598,4.3598,4.3598,4.3598,4.3416,4.3085,4.2555,4.2307,4.2406,4.2936,4.3168,4.3367,4.3582,4.3598,4.3598,4.3598,4.3598,4.3598,4.3598,4.3598,4.3333,4.2804,4.3317,4.3317,4.2804,4.3135,4.3019,4.2473,4.2104,4.1524,4.0763,3.9746,3.9597,4.0061,3.9514,3.9299,3.9299,3.9299,3.9299,3.9299,3.9299,3.9299,3.9299,0.0,0.0,0.0,0.0,0.0,0.0,0.0,0.0,0.0,0.0,0.0,0.0,0.0,1.6522,1.6517,1.647,1.7874,1.9506,2.1227,2.4231,2.6764,2.8587,3.0966,3.2614,3.3447,3.4244,3.5802,3.8209,3.8039,3.8762,4.0309,4.1065,4.1328,4.1203,4.2367,4.2277,4.1237,4.141,4.0955,4.0121,4.0113,3.9225,3.7889,3.7134,3.3685,2.9317,2.9997,2.9337,2.7895,2.6302,2.6251,2.7114,2.8523,2.9331,2.9335,2.7117,2.4427,2.2772,2.5595,2.7996,3.0516,3.3951,3.7011,3.9531,4.0928,4.1778,4.2522,4.3333,4.3515,4.3532,4.3565,4.3582,4.3598,4.3598,4.3598,4.3598,4.3598,4.2969,4.2522,4.2489,4.186,4.143,4.1446,4.2092,4.282,4.3549,4.3598,4.3598,4.3598,4.3598,4.3598,4.3598,4.3598,4.3582,4.3565,4.3582,4.3582,4.3549,4.2853,4.2506,4.244,4.1077,4.0061,3.9365,3.9315,3.9315,3.9332,3.9315,3.9299,3.9299,3.9299,3.9299,3.9299,3.9299,3.9299,3.9299,0.0,0.0,0.0,0.0,0.0,0.0,0.0,0.0,0.0,0.0,0.0,0.0,0.0,0.0,0.0,0.0,1.747,1.8728,2.0767,2.3541,2.5847,2.752,3.003,3.2035,3.3375,3.3665,3.4733,3.6616,3.6941,3.7647,3.8708,3.937,3.9921,4.038,4.0519,4.0509,4.0351,3.9718,3.9416,3.9225,3.7719,3.6823,3.6022,3.2852,3.023,2.7861,0.0,2.2912,2.2078,2.1935,2.2367,2.33,2.5112,2.5864,2.568,2.3865,2.3683,2.468,2.7566,3.107,3.4622,3.7774,4.0001,4.169,4.2638,4.3035,4.3151,4.292,4.1387,3.9922,3.9425,3.9342,3.9508,3.9989,4.1669,4.3035,4.3532,4.3383,4.2853,4.1877,4.1546,0.0,0.0,4.2088,4.2589,4.2837,4.3317,4.3598,4.3598,4.3598,4.3598,4.3598,4.3598,4.3367,4.287,4.287,4.2605,4.2125,4.1442,4.1094,4.1077,4.0625,3.9995,3.9332,3.9829,3.9763,3.9299,3.9299,3.9299,3.9299,3.9299,3.9299,3.9299,3.9299,3.9299,3.9299,0.0,0.0,0.0,0.0,0.0,0.0,0.0,0.0,0.0,0.0,0.0,0.0,0.0,0.0,0.0,0.0,0.0,1.8423,2.0171,2.2141,2.3851,2.5212,2.7412,2.8963,2.9732,3.002,3.084,3.2249,3.3113,3.409,3.5248,3.6488,3.7431,3.8121,3.8164,3.8374,3.8625,3.7646,3.6835,3.6079,3.458,3.3195,3.1712,2.8873,2.6843,0.0,2.1502,1.9553,1.8734,1.908,2.0018,2.1247,2.2497,2.3266,2.3648,2.3137,2.4547,2.7081,0.0,3.422,3.75,4.0415,4.2038,4.3019,4.3482,4.34,4.2986,4.2258,3.9873,3.7751,3.7294,3.6588,3.6263,3.6729,3.8541,4.0315,4.1536,4.1702,4.1735,4.1806,4.1574,4.1409,0.0,4.2088,4.2605,4.287,4.3317,4.3598,4.3598,4.3598,4.3598,4.3598,4.3598,4.3367,4.2886,4.2886,4.2373,4.1409,4.0713,4.026,4.0011,4.0011,3.9763,3.9332,3.9812,3.9746,3.9299,3.9299,3.9299,3.9299,3.9299,3.9299,3.9299,3.9299,3.9299,3.9299,0.0,0.0,0.0,0.0,0.0,0.0,0.0,0.0,0.0,0.0,0.0,0.0,0.0,0.0,0.0,0.0,0.0,0.0,1.9373,2.0163,2.0992,2.1888,2.3423,2.3917,2.3277,2.3942,2.4807,2.5861,2.7122,2.8564,3.0249,3.2494,3.3829,3.4336,3.517,3.5628,3.5763,3.4977,3.3228,3.097,3.0808,2.8665,2.5525,2.5423,2.3672,2.1208,2.0536,1.9309,1.799,1.7935,1.9316,2.1055,2.1043,2.1995,2.3421,2.4928,2.6965,2.9801,3.4717,3.7218,3.908,4.1844,4.3069,4.3582,4.3549,4.2969,4.2175,4.1309,3.8877,3.6879,0.0,0.0,3.4013,3.4096,3.4898,3.6235,3.8266,3.8574,3.9561,0.0,0.0,0.0,0.0,0.0,4.2804,4.3598,4.3615,4.3598,4.3598,4.3598,4.3598,4.3598,4.3598,4.3582,4.3532,4.3466,4.2704,4.1293,4.0647,3.9978,3.9299,3.9332,3.9332,3.9299,3.9348,3.9332,3.9299,3.9299,3.9299,3.9299,3.9299,3.9299,3.9299,3.9299,3.9299,3.9299,0.0,0.0,0.0,0.0,0.0,0.0,0.0,0.0,0.0,0.0,0.0,0.0,0.0,0.0,0.0,0.0,0.0,0.0,1.836,1.9812,2.0771,2.0946,2.2582,2.3659,2.4005,2.4144,2.4645,2.5522,2.63,2.6912,2.7359,2.8413,2.8979,2.9121,2.9093,2.9162,2.928,2.8808,2.8329,2.7739,2.6522,2.5496,2.4532,2.2922,2.1905,2.1203,2.0469,1.9909,1.9464,1.9427,2.1125,2.3485,2.5111,2.5873,2.6569,0.0,0.0,3.3773,3.6174,3.9046,4.1695,4.2986,4.3449,4.3449,4.2903,4.2208,4.0878,3.8041,3.5214,3.261,3.0433,3.1366,0.0,3.3929,3.7319,0.0,4.2005,4.2237,0.0,4.2473,0.0,4.2208,4.2208,4.2373,4.3048,4.4324,4.3926,4.3598,4.3598,4.3598,4.3598,4.3598,4.3598,4.3333,4.2787,4.174,4.0746,3.9818,3.9663,3.9481,3.9315,3.9879,3.9829,3.9332,3.9879,3.9812,3.9299,3.9299,3.9299,3.9299,3.9299,3.9299,3.9299,3.9299,3.9299,3.9299,0.0,0.0,0.0,0.0,0.0,0.0,0.0,0.0,0.0,0.0,0.0,0.0,0.0,0.0,0.0,0.0,0.0,0.0,0.0,1.8985,1.9507,1.9418,2.0327,2.086,2.0929,2.0847,2.109,2.1638,2.2608,2.3309,2.374,2.4709,2.5358,2.5702,2.5363,2.547,2.5855,2.5162,2.4394,0.0,0.0,2.2201,2.132,2.0787,2.077,2.0958,2.0505,2.0722,2.142,2.2763,2.4197,2.5724,2.7282,2.8641,3.0033,3.1885,0.0,3.7284,3.9388,4.143,4.3151,4.391,4.3582,4.2783,4.1448,4.032,3.8638,3.5414,3.2493,3.0037,2.8419,2.9187,3.054,0.0,0.0,0.0,4.0923,4.1536,4.205,0.0,4.2969,0.0,4.3429,4.3479,4.3943,4.5086,4.4506,4.4092,4.4092,4.4092,4.3943,4.3615,4.3598,4.3234,4.2489,4.1392,4.0464,3.9779,3.9448,3.9299,3.9315,3.973,3.9696,3.9315,3.9746,3.968,3.9299,3.9299,3.9299,3.9299,3.9299,3.9299,3.9299,3.9299,3.9299,3.9299,0.0,0.0,0.0,0.0,0.0,0.0,0.0,0.0,0.0,0.0,1.862,0.0,0.0,0.0,0.0,0.0,0.0,0.0,0.0,0.0,1.8031,1.7922,1.7833,1.7451,1.6746,1.6658,1.6723,1.6893,1.8172,1.9227,2.0036,2.1314,2.2308,2.2959,2.266,2.2907,2.3454,2.2542,2.1095,1.9475,2.0199,1.9376,1.7872,0.0,2.0256,2.0766,2.0742,2.1615,2.3243,2.6401,2.7592,2.7984,2.9185,3.1409,3.3862,3.533,3.7698,4.0415,4.2903,4.3664,4.391,4.4522,4.3529,4.1806,3.9711,3.8051,3.6046,3.3061,3.049,2.8723,2.8424,2.8254,2.8654,3.0264,0.0,3.5062,3.8515,3.9545,4.0862,4.333,4.3598,4.388,4.4622,4.4688,4.5017,4.5732,4.5202,4.4787,4.4718,4.4688,4.4357,4.3615,4.3499,4.3085,4.2357,4.164,4.0928,4.026,3.9613,3.9299,3.9299,3.9299,3.9299,3.9299,3.9299,3.9299,3.9299,3.9299,3.9299,3.9299,3.9299,3.9299,3.9299,3.9299,3.9299,3.9299,0.0,0.0,0.0,0.0,0.0,0.0,0.0,0.0,0.0,0.0,1.8465,1.8475,0.0,0.0,0.0,0.0,0.0,0.0,0.0,0.0,0.0,1.7922,1.7783,1.7591,1.7353,1.7334,1.7334,1.7369,1.7631,1.7843,1.8012,1.8262,1.8458,1.8592,1.8531,1.8252,1.7843,1.8207,1.7982,1.749,1.8443,1.8818,1.8935,1.9921,0.0,0.0,2.1773,2.2243,2.3127,2.6922,2.9124,3.0886,3.4466,3.6771,3.8437,3.9868,4.1508,4.2953,4.3449,4.4042,4.4522,4.4655,4.3131,4.1044,3.8973,3.6862,0.0,3.0339,2.9141,2.8255,2.6489,2.8509,3.1267,3.3846,3.6536,3.9322,4.2282,4.2783,4.3048,0.0,4.3598,4.388,4.4622,4.4688,0.0,4.5732,4.5665,4.5334,4.4721,4.4688,4.4357,4.3615,4.3002,4.2324,4.1595,4.0912,4.0227,3.9497,3.9365,3.9299,3.9299,3.9299,3.9299,3.9299,3.9299,3.9299,3.9299,3.9299,3.9299,3.9299,3.9299,3.9299,3.9299,3.9299,3.9299,3.9299,0.0,0.0,0.0,0.0,0.0,0.0,0.0,1.7257,1.7746,1.8476,1.8391,1.83,1.8348,1.8325,1.8284,0.0,0.0,0.0,0.0,0.0,0.0,0.0,0.0,0.0,1.7542,1.7547,1.7541,1.7493,0.0,1.7498,1.7503,1.7855,1.7934,1.7784,1.8343,1.8208,1.7571,1.8009,1.8003,1.7801,1.8598,1.9061,1.9338,0.0,0.0,0.0,0.0,2.2005,2.3045,2.6242,2.8907,3.1625,3.5795,3.8377,4.016,4.1574,4.2456,4.3267,4.444,4.4456,4.4224,4.4589,4.2767,4.0155,3.7336,0.0,0.0,2.8491,2.7703,2.74,2.6353,2.819,3.067,3.3175,3.5568,3.8258,4.1526,4.2265,4.2738,4.3499,4.3598,4.388,4.4622,4.4688,4.5017,4.5732,4.5798,4.5467,4.4721,4.434,4.3976,4.3615,4.3251,4.2704,4.1976,4.1276,4.0564,3.9879,3.9481,3.9299,3.9299,3.9299,3.9299,3.9299,3.9299,3.9299,3.9299,3.9299,3.9299,3.9299,3.9299,3.9299,3.9299,3.9299,3.9299,3.9299,0.0,0.0,0.0,0.0,0.0,0.0,1.6467,1.685,1.747,1.8506,1.8133,1.7886,1.816,1.8218,1.8249,0.0,0.0,0.0,0.0,0.0,0.0,0.0,0.0,0.0,0.0,0.0,0.0,1.75,1.7512,0.0,0.0,0.0,0.0,0.0,1.9023,1.9099,1.8618,1.8752,1.8743,0.0,0.0,1.9497,0.0,0.0,0.0,0.0,0.0,2.1526,2.2609,2.5182,2.777,3.0555,3.4268,3.7284,3.9746,4.1188,4.1806,4.2568,4.492,4.4721,4.3943,4.4357,4.2286,3.9302,3.5959,3.3367,3.0754,2.7586,2.681,2.6691,2.6691,2.7737,2.9316,0.0,3.3272,3.5771,3.9724,4.0663,4.1674,4.3628,4.3698,0.0,4.4837,4.4771,0.0,4.5516,4.5417,4.5135,4.4705,4.4009,4.3598,4.3598,4.3598,4.3168,4.2258,4.1856,4.1226,4.0393,3.9812,3.9547,3.9531,3.9381,3.9299,3.9299,3.9299,3.9299,3.9299,3.9299,3.9299,3.9299,3.9299,3.9299,3.9299,3.9299,3.9299,3.9299,0.0,0.0,0.0,0.0,0.0,0.0,1.6081,1.6151,1.6664,1.7918,1.7297,1.7016,1.776,1.7949,1.8093,0.0,0.0,0.0,0.0,0.0,0.0,0.0,0.0,0.0,0.0,0.0,0.0,1.75,1.7554,0.0,0.0,0.0,0.0,0.0,0.0,1.8663,1.8603,1.8559,0.0,0.0,0.0,0.0,0.0,0.0,0.0,0.0,0.0,2.1231,2.1402,2.4245,2.589,2.7135,2.94,3.3056,3.6771,3.8266,0.0,0.0,4.4039,4.4688,4.444,4.383,4.1524,3.8671,3.5842,0.0,3.0288,2.8142,2.7182,2.6691,2.6691,2.735,2.8598,3.0757,3.1812,3.4035,3.8842,3.9555,4.084,4.4205,0.0,0.0,4.5549,4.5086,4.4721,4.4818,4.4191,4.4075,4.4655,4.4009,4.3598,4.3598,4.3598,4.292,4.1496,4.2092,4.174,4.0409,4.0343,4.031,4.0293,3.9613,3.9299,3.9299,3.9299,3.9299,3.9299,3.9299,3.9299,3.9299,3.9299,3.9299,3.9299,3.9299,3.9299,3.9299,0.0,0.0,0.0,0.0,0.0,0.0,1.615,1.684,1.7515,1.7947,1.7456,1.7255,1.7693,1.7607,1.7653,1.7982,0.0,0.0,0.0,0.0,0.0,0.0,0.0,0.0,0.0,0.0,1.6853,1.7068,1.7503,0.0,0.0,0.0,0.0,0.0,0.0,0.0,1.9339,1.9554,0.0,0.0,0.0,0.0,0.0,0.0,0.0,0.0,0.0,0.0,2.1102,2.265,2.4116,2.5249,2.5113,2.7429,3.1166,3.6124,3.8024,3.9329,4.3015,4.4042,4.3876,4.3118,4.0486,3.7411,3.5075,0.0,2.9143,2.7485,2.6894,2.6691,2.6691,2.6945,2.757,2.8866,2.9652,0.0,3.5151,3.5983,3.7519,4.1089,4.1244,4.1979,0.0,0.0,4.3562,4.4009,4.3764,4.3714,4.4026,4.3747,4.3598,4.3598,4.3598,4.3317,4.2721,4.2125,4.1574,4.0994,4.0608,4.0177,3.9746,3.9895,3.973,3.9299,3.9299,3.9299,3.9299,3.9299,3.9299,3.9299,3.9299,3.9299,3.9299,3.9299,3.9299,3.9299,0.0,0.0,0.0,0.0,0.0,1.6238,1.6501,1.7045,1.7546,1.7857,1.7188,1.6886,1.7457,1.7162,1.7011,1.7186,1.7378,0.0,0.0,0.0,0.0,0.0,0.0,0.0,0.0,0.0,1.6741,1.7132,1.7615,1.8023,0.0,0.0,0.0,0.0,0.0,0.0,0.0,0.0,0.0,0.0,0.0,0.0,0.0,0.0,0.0,0.0,0.0,0.0,0.0,0.0,0.0,2.347,2.2447,2.3488,2.6298,3.2453,3.506,3.6821,4.0895,4.2456,4.282,4.2291,3.9491,3.6396,0.0,0.0,2.8476,2.7283,2.6843,2.6691,2.6691,2.6691,2.686,2.7384,0.0,2.9181,3.2073,3.2885,3.457,3.8301,0.0,3.9698,4.2725,4.2899,4.3035,4.3565,4.3598,4.3598,4.3598,4.3598,4.3598,4.3598,4.3598,4.3499,4.3267,4.2456,4.1839,4.1409,4.1143,4.0514,3.9647,4.016,3.9995,3.9299,3.9299,3.9299,3.9299,3.9299,3.9299,3.9299,3.9299,3.9299,3.9299,3.9299,3.9299,3.9299,0.0,0.0,0.0,0.0,0.0,0.0,1.7168,1.6331,1.6123,1.7524,1.6088,1.5484,1.6962,1.6628,1.6169,1.5847,1.6253,0.0,0.0,0.0,0.0,0.0,0.0,0.0,0.0,0.0,1.6621,1.7891,1.7947,1.8548,1.9578,1.9657,1.984,2.01,0.0,0.0,0.0,0.0,0.0,0.0,0.0,0.0,0.0,0.0,0.0,0.0,0.0,0.0,0.0,0.0,0.0,0.0,0.0,2.2065,2.2944,2.6551,3.0129,3.3727,3.7293,3.9818,4.1425,4.1397,3.8745,3.5756,3.4397,3.1348,2.861,2.7941,2.7215,2.6691,2.6691,2.6691,2.6691,2.6708,2.6708,0.0,3.0453,3.0945,3.2584,0.0,3.6702,3.7745,4.1289,4.2808,4.3582,4.3598,4.3598,4.3598,4.3598,4.3598,4.3598,4.3598,4.3598,4.3251,4.2506,4.3218,4.2837,4.1397,4.2125,4.174,4.0393,4.0409,3.9995,3.9299,3.9299,3.9299,3.9299,3.9299,3.9299,3.9299,3.9299,3.9299,3.9299,3.9299,3.9299,3.9299,0.0,0.0,0.0,0.0,0.0,0.0,1.6985,1.7028,1.7121,1.7568,1.6898,1.6454,1.6611,1.6219,1.5708,1.5108,1.531,0.0,0.0,0.0,0.0,0.0,0.0,0.0,0.0,1.6465,1.7016,1.7409,1.8421,1.9061,1.94,1.9898,2.0156,2.0235,2.0218,2.0148,0.0,0.0,0.0,0.0,0.0,0.0,0.0,0.0,0.0,0.0,0.0,0.0,0.0,0.0,0.0,0.0,0.0,0.0,0.0,2.4713,2.7079,2.9959,3.3487,3.5345,3.6306,3.6323,3.4445,3.234,3.1336,2.912,2.7228,2.6958,2.6758,2.6623,2.6572,2.7045,2.7266,2.6725,2.7483,0.0,0.0,0.0,0.0,3.626,3.9382,4.1515,0.0,4.3989,4.4705,4.3664,4.4075,4.4141,4.3615,4.3598,4.3598,4.3598,4.3598,4.3482,4.3251,4.2969,4.2605,4.2142,4.2373,4.1993,4.1077,4.1077,4.0696,4.0028,3.9514,3.9299,3.9299,3.9299,3.9299,3.9299,3.9299,3.9299,3.9299,3.9299,3.9299,3.9299,0.0,0.0,0.0,0.0,0.0,0.0,1.6733,1.676,1.6897,1.7422,1.6591,1.6035,1.6231,1.5604,1.4916,1.4306,1.4401,0.0,0.0,0.0,0.0,0.0,0.0,0.0,1.5578,1.664,1.7208,1.7208,1.833,1.9024,1.9302,1.9734,2.0058,2.0304,2.0304,2.0252,0.0,0.0,0.0,0.0,0.0,0.0,1.98,0.0,0.0,0.0,0.0,0.0,0.0,0.0,0.0,0.0,0.0,0.0,0.0,0.0,2.4696,2.6629,3.0493,3.2525,3.3617,3.3939,3.2307,0.0,2.985,2.8315,2.6992,2.6904,2.7175,2.7412,2.7305,2.7765,2.7922,2.7145,2.8019,2.8912,0.0,0.0,0.0,3.6801,4.0513,0.0,4.2593,4.4536,4.5417,4.4506,4.4589,4.4489,4.4042,4.3731,4.3598,4.3598,4.3598,4.3598,4.3598,4.3135,4.2771,4.2489,4.2489,4.1988,4.1028,4.1028,4.0779,4.0359,3.9613,3.9464,0.0,3.9415,3.9299,3.9299,3.9299,3.9299,3.9299,3.9299,3.9299,3.9299,0.0,0.0,0.0,0.0,0.0,0.0,0.0,1.5864,1.5764,1.7067,1.5452,1.4609,1.5761,1.4814,1.3931,1.3547,1.3669,0.0,0.0,0.0,0.0,0.0,0.0,0.0,1.6193,1.6901,1.727,1.727,1.7946,1.8638,1.9302,1.9256,1.958,2.0227,2.0227,2.0258,2.0241,1.9477,1.9482,1.9945,1.9322,1.936,0.0,0.0,0.0,0.0,0.0,0.0,0.0,0.0,0.0,0.0,0.0,0.0,0.0,0.0,0.0,0.0,0.0,3.0754,3.254,3.3356,3.1612,2.9628,2.9499,2.8552,0.0,2.7522,2.8198,2.8755,2.8624,2.8768,2.8659,2.7902,2.8422,0.0,0.0,3.2085,0.0,0.0,4.0634,4.2142,4.2724,4.4649,4.5814,4.5715,4.5135,4.4721,4.4622,4.3976,4.3598,4.3598,4.3598,4.3598,4.3598,4.3598,4.3251,4.2572,4.2572,4.1872,4.0558,4.0509,4.0459,4.0359,3.9613,3.9696,4.0276,3.958,3.9299,3.9299,3.9299,3.9299,3.9299,3.9299,3.9299,3.9299,0.0,0.0,0.0,0.0,0.0,0.0,0.0,0.0,0.0,0.0,1.5626,1.4856,1.4845,1.4252,1.3836,0.0,0.0,0.0,0.0,0.0,0.0,0.0,0.0,0.0,1.6194,1.7362,1.7961,1.7961,1.8684,1.9132,1.9287,1.8715,1.8838,1.9533,1.9533,1.9826,2.0287,1.9928,1.9891,2.0065,1.9897,1.9891,0.0,0.0,0.0,0.0,2.0291,2.067,0.0,0.0,0.0,0.0,0.0,0.0,0.0,0.0,2.38,2.4064,2.5113,0.0,2.7231,2.8072,2.7829,2.7362,0.0,0.0,0.0,0.0,0.0,0.0,0.0,2.9206,2.949,2.8602,2.9556,3.0663,3.1422,3.573,0.0,4.1332,4.3505,4.4437,4.3492,4.5351,4.6162,4.5036,4.5301,4.5052,4.3913,4.3681,4.3598,4.3598,4.3598,4.3598,4.3598,4.3598,4.3499,4.3333,4.3333,4.2853,4.2005,4.1425,4.0878,4.0359,3.9613,3.9398,3.9547,3.9381,3.9299,3.9299,3.9299,3.9299,3.9299,3.9299,3.9299,3.9299,0.0,0.0,0.0,0.0,0.0,0.0,0.0,0.0,0.0,0.0,1.4893,1.4301,1.4649,1.4258,1.4027,0.0,0.0,0.0,0.0,0.0,0.0,0.0,0.0,1.6483,1.6781,1.779,1.8146,1.7837,1.8485,1.8792,1.8792,1.8391,1.8592,1.9302,1.9302,1.9469,1.9742,1.9706,1.984,2.0085,1.9779,0.0,0.0,0.0,0.0,0.0,2.012,2.0543,0.0,2.152,2.1899,2.225,0.0,0.0,0.0,0.0,2.3768,2.4132,2.4481,2.463,2.4913,2.5782,2.6017,2.6101,2.635,2.7003,0.0,0.0,0.0,0.0,0.0,3.0076,3.0171,2.93,3.067,0.0,0.0,0.0,3.9691,4.2651,4.3807,4.4699,4.5549,4.6411,4.656,4.5765,4.5433,4.4937,4.4158,4.3764,4.3598,4.3598,4.3598,4.3598,4.3598,4.3598,4.3598,4.3598,4.3251,4.2704,4.196,4.1259,4.0729,4.0359,3.9613,3.9497,3.9779,3.9448,3.9299,3.9299,3.9299,3.9299,3.9299,3.9299,3.9299,3.9299,0.0,0.0,0.0,0.0,0.0,0.0,0.0,0.0,0.0,0.0,0.0,0.0,0.0,0.0,0.0,0.0,0.0,0.0,0.0,0.0,0.0,0.0,1.6567,1.6862,1.7469,1.8067,1.8098,1.7554,1.7976,1.8191,1.8191,1.8191,1.853,1.9148,1.9224,1.9221,1.9107,1.9329,1.968,2.0054,1.9506,0.0,0.0,0.0,0.0,0.0,0.0,0.0,0.0,2.1627,2.1959,2.2183,2.2089,0.0,0.0,0.0,0.0,0.0,2.4647,2.4597,2.463,2.5481,2.5698,2.5882,2.6479,2.7146,2.7796,0.0,0.0,0.0,0.0,3.0992,3.0808,2.9978,3.198,0.0,3.7453,3.7786,3.9242,4.328,4.3617,4.461,4.7388,4.7206,4.6841,4.6742,4.5467,4.4638,4.4522,4.3959,4.3598,4.3598,4.3598,4.3598,4.3598,4.3598,4.3532,4.3416,4.2787,4.2042,4.1243,4.0647,4.0343,4.021,3.9564,3.9663,4.0194,3.9564,3.9299,3.9299,3.9299,3.9299,3.9299,3.9299,3.9299,3.9299,0.0,0.0,0.0,0.0,0.0,0.0,0.0,0.0,0.0,0.0,0.0,0.0,0.0,0.0,0.0,0.0,0.0,0.0,0.0,0.0,0.0,1.7482,1.7341,1.7302,1.7414,1.7945,1.8254,1.8253,1.8207,1.8191,1.8191,1.8191,1.8268,1.8391,1.8896,1.9123,1.9137,1.9735,2.0008,2.01,2.0112,0.0,0.0,0.0,0.0,0.0,0.0,0.0,0.0,2.2312,2.2349,2.2214,2.2237,0.0,0.0,0.0,0.0,0.0,2.345,2.4564,2.6073,2.6895,2.7079,2.7279,2.801,2.8352,2.8674,0.0,0.0,0.0,0.0,3.1332,3.1554,3.0683,3.3922,3.7552,4.0359,4.2829,4.437,4.4506,4.6111,4.6923,4.6195,4.6593,4.6643,4.6013,4.5168,4.4423,4.378,4.3648,4.3598,4.3598,4.3598,4.3598,4.3598,4.3598,4.3284,4.2655,4.2539,4.1823,4.0531,4.0459,4.0061,3.9464,3.9348,3.9365,3.9464,3.9348,3.9299,3.9299,3.9299,3.9299,3.9299,3.9299,3.9299,3.9299,0.0,0.0,0.0,0.0,0.0,0.0,0.0,0.0,0.0,0.0,0.0,0.0,0.0,0.0,0.0,0.0,0.0,0.0,0.0,0.0,1.6821,1.7099,1.7697,1.8046,1.8046,1.8222,1.8331,1.8408,1.8269,1.8391,1.8792,1.8391,1.8191,1.8207,1.8498,1.862,1.8681,1.974,2.0202,2.0202,0.0,0.0,0.0,0.0,0.0,0.0,0.0,0.0,0.0,0.0,2.2971,2.2888,2.2801,0.0,0.0,0.0,0.0,0.0,2.4232,2.5461,2.7105,2.8199,2.8481,2.8564,2.8912,2.9334,2.9756,3.0109,3.0192,3.0309,3.0723,3.2042,3.3717,3.5688,3.7028,3.8631,4.1061,4.2019,4.2862,4.3959,4.5081,4.6059,4.6908,4.656,4.6162,4.5814,4.4754,4.3976,4.3615,4.3598,4.3598,4.3598,4.3598,4.3598,4.3598,4.3201,4.2837,4.2489,4.2489,4.1773,4.0409,4.0409,3.9995,3.9299,3.9299,3.9299,3.9299,3.9299,3.9299,3.9299,3.9299,3.9299,3.9348,3.9746,3.9895,3.9895,0.0,0.0,0.0,0.0,0.0,0.0,0.0,0.0,0.0,0.0,0.0,0.0,0.0,0.0,0.0,0.0,0.0,0.0,0.0,1.6821,1.686,1.6862,1.7847,1.8385,1.837,1.8501,1.8532,1.8423,1.8408,1.8775,1.9469,1.8591,1.8283,1.839,1.8253,1.8283,1.8483,1.9762,2.0287,2.0252,0.0,0.0,0.0,0.0,0.0,0.0,0.0,0.0,0.0,0.0,0.0,0.0,0.0,0.0,0.0,2.4429,2.4896,2.5413,2.5195,2.6375,2.7823,2.8514,2.8942,2.942,3.0245,3.0456,3.0725,3.1511,3.1447,3.1281,3.1324,3.2762,3.5317,3.9538,3.9704,4.0082,4.2369,4.2031,4.2337,4.439,4.4716,4.5559,4.7537,4.656,4.5715,4.5549,4.4357,4.3598,4.3598,4.3598,4.3598,4.3598,4.3598,4.3598,4.3598,4.2853,4.2406,4.2224,4.2088,4.1359,4.0144,4.0144,3.9829,3.9299,3.9299,3.9299,3.9299,3.9299,3.9299,3.9315,3.9497,3.9564,3.963,4.0194,4.0409,4.0426,0.0,0.0,0.0,0.0,0.0,0.0,0.0,0.0,0.0,0.0,0.0,0.0,0.0,0.0,0.0,0.0,0.0,0.0,0.0,1.7293,1.7688,1.762,1.7701,1.775,1.7677,1.8641,1.8934,1.8499,1.8854,1.9382,2.0026,1.8789,1.8513,1.9,1.8452,1.8497,1.9093,1.9945,2.022,2.0133,2.0252,0.0,0.0,0.0,0.0,0.0,0.0,0.0,0.0,0.0,0.0,0.0,0.0,0.0,2.533,2.5313,2.5748,2.6079,2.5464,2.6777,2.8033,2.69,2.7598,2.9417,3.2718,3.1951,3.1267,3.4021,3.4061,3.3365,3.2707,3.3249,3.5039,3.8768,4.0961,4.3214,4.6096,4.7007,4.7454,4.7669,4.7686,4.7504,4.7023,4.6262,4.5516,4.4821,4.4059,4.3598,4.3598,4.3598,4.3598,4.3598,4.3598,4.3598,4.3598,4.2853,4.2142,4.1463,4.0845,4.0144,3.9381,3.9381,3.9348,3.9299,3.9299,3.9299,3.9299,3.9299,3.9299,3.9365,4.0061,4.0326,4.0326,4.0393,4.0409,4.0492,0.0,0.0,0.0,0.0,0.0,0.0,0.0,0.0,0.0,0.0,0.0,0.0,0.0,0.0,0.0,0.0,0.0,0.0,0.0,1.7541,1.7521,1.7162,1.749,1.7671,1.7599,1.836,1.8843,1.8997,1.9481,1.9821,2.0028,1.9151,1.8861,1.9039,1.8927,1.9172,1.9708,2.0469,2.0987,2.1245,2.0928,2.1306,0.0,0.0,0.0,0.0,0.0,0.0,0.0,0.0,2.5027,2.5229,2.4754,2.5328,2.6202,2.6152,2.6319,2.6402,2.6014,2.7531,2.9062,2.8422,2.9071,3.0571,3.325,3.3948,3.4346,3.5387,3.6092,3.6307,3.5578,3.6787,3.8493,4.0299,4.2833,4.5102,4.6676,4.7537,4.8001,4.8001,4.7603,4.7206,4.6924,4.5814,4.4986,4.4735,4.4026,4.3598,4.3598,4.3598,4.3598,4.3598,4.3598,4.3598,4.3598,4.2406,4.1662,4.1409,4.1143,4.0415,3.9315,3.9779,3.973,3.9299,3.9299,3.9299,3.9299,3.9299,3.9299,3.9381,4.0111,4.0647,4.1077,4.1541,4.1707,4.174,0.0,0.0,0.0,0.0,0.0,0.0,0.0,0.0,0.0,0.0,0.0,0.0,0.0,0.0,0.0,0.0,0.0,0.0,1.7373,1.7531,1.7354,1.6762,1.714,1.742,1.7526,1.8171,1.875,1.927,1.9812,2.001,1.9922,1.9341,1.9128,1.9271,1.9443,1.9825,2.0354,2.1081,2.1611,2.1968,2.1553,2.2019,0.0,0.0,0.0,0.0,0.0,0.0,0.0,0.0,2.5809,2.6059,2.5579,2.605,2.6759,2.6657,2.6623,2.6589,2.6434,2.752,2.8755,2.9071,2.9956,3.1462,3.4293,3.539,3.609,3.7177,3.7831,3.8129,3.7847,3.9023,4.0359,4.1259,4.3678,4.5781,4.6758,4.7338,4.7653,4.7653,4.7206,4.6709,4.6245,4.5284,4.4589,4.4373,4.388,4.3598,4.3598,4.3598,4.3482,4.3251,4.3251,4.3135,4.2903,4.1707,4.1077,4.1077,4.1077,4.0448,3.9315,3.9829,3.9779,3.9299,3.9299,3.9299,3.9299,3.9299,3.9564,3.9984,4.0293,4.0945,4.1794,4.2307,4.2489,4.2522,0.0,0.0,0.0,0.0,0.0,0.0,0.0,0.0,0.0,0.0,0.0,0.0,0.0,0.0,0.0,0.0,0.0,0.0,1.6595,1.7247,1.7367,1.6641,1.661,1.686,1.7396,1.8127,1.8734,1.9205,1.9741,1.9919,1.9797,1.9254,1.9299,1.9812,1.9952,2.0385,2.1053,2.1721,2.2009,2.2009,2.2028,2.2667,2.3587,0.0,0.0,0.0,0.0,0.0,0.0,0.0,2.6181,2.674,2.5797,2.615,2.6859,2.6742,2.6691,2.6691,2.6623,2.6571,2.687,2.8273,2.9724,3.1942,3.623,3.6016,3.5959,3.9663,3.9255,3.846,3.9183,3.9332,3.9796,4.1177,4.3247,4.5202,4.6676,4.6891,4.6891,4.6891,4.6874,4.6295,4.4821,4.4671,4.439,4.3648,4.3598,4.3598,4.3598,4.3582,4.3251,4.2506,4.2489,4.2125,4.1425,4.0729,4.0409,4.0409,4.0393,4.0011,3.9299,3.9315,3.9315,3.9299,3.9299,3.9299,3.9299,3.9315,4.0133,4.1342,4.0663,4.1276,4.2506,4.2506,4.2506,4.2605,0.0,0.0,0.0,0.0,0.0,0.0,0.0,0.0,0.0,0.0,0.0,0.0,0.0,0.0,0.0,0.0,0.0,0.0,1.7189,1.7358,1.7199,1.6559,1.6528,1.6995,1.8005,1.8938,1.9539,1.9771,1.9917,1.9902,1.9744,1.9723,1.9959,2.0445,2.063,2.1265,2.2219,2.2461,2.2787,2.3128,2.3143,2.376,2.4722,0.0,0.0,0.0,0.0,0.0,0.0,0.0,0.0,0.0,2.6421,2.6539,2.6758,2.6809,2.6758,2.6691,2.6555,2.7625,2.8939,2.9732,3.144,3.3798,3.7153,3.7178,0.0,0.0,4.0763,4.0382,4.0127,4.1309,4.1972,4.0862,4.2932,4.4837,4.5284,4.5798,4.6129,4.6129,4.5665,4.5168,4.4721,4.4224,4.383,4.3615,4.3598,4.3598,4.3598,4.3102,4.2721,4.2489,4.1993,4.1612,4.1409,4.0729,4.0409,4.0393,3.9879,3.9514,3.9315,3.9846,3.9796,3.9299,3.9299,3.9299,3.9348,3.9862,4.0597,4.1413,4.1756,4.244,4.3267,4.3267,4.3267,4.3234,0.0,0.0,0.0,0.0,0.0,0.0,0.0,0.0,0.0,0.0,1.4454,0.0,0.0,0.0,0.0,0.0,0.0,0.0,1.7036,1.7005,1.6957,1.6856,1.6827,1.7381,1.8577,1.9446,2.0023,2.0313,2.0291,2.0119,1.983,2.0119,2.033,2.0444,2.0737,2.1426,2.2359,2.2676,2.3116,2.3629,2.3915,2.4511,2.5252,0.0,0.0,0.0,0.0,0.0,0.0,0.0,0.0,0.0,2.6792,2.6792,2.6724,2.6485,2.6588,2.6742,2.6572,2.7912,2.968,3.1095,3.3089,3.5494,3.8394,3.9193,3.9856,4.1872,4.2026,4.1806,4.169,4.2502,4.2837,4.1823,4.3131,4.4373,4.4655,4.5069,4.5351,4.5351,4.4953,4.4572,4.4291,4.3876,4.3598,4.3598,4.3598,4.3598,4.3598,4.2886,4.2357,4.2059,4.1375,4.0862,4.0564,4.0177,3.9962,3.9962,3.9514,3.9299,3.9315,3.9763,3.973,3.9299,3.9299,3.9299,3.9332,3.9779,4.0531,4.143,4.1877,4.2688,4.3598,4.3598,4.3598,4.3532,0.0,0.0,0.0,0.0,0.0,0.0,0.0,0.0,0.0,0.0,1.4545,1.5109,0.0,0.0,0.0,0.0,0.0,0.0,0.0,1.6398,1.668,1.735,1.7432,1.7961,1.9043,1.9719,2.0313,2.0809,2.0824,2.0576,2.0167,2.0527,2.0516,2.0167,2.0603,2.1195,2.1923,2.2586,2.3182,2.3745,2.445,2.4992,2.5451,2.6035,0.0,0.0,0.0,0.0,0.0,0.0,0.0,0.0,2.6926,2.6909,2.674,2.5942,2.6298,2.6927,2.664,2.7748,2.9623,3.2312,3.4785,3.7302,3.9978,4.164,4.2738,4.3284,4.2969,4.2804,4.3466,4.3035,4.2804,4.3482,4.3598,4.3813,4.4506,4.4589,4.4589,4.4589,4.4589,4.434,4.3664,4.3532,4.3499,4.3499,4.3499,4.3466,4.34,4.2754,4.2042,4.1342,4.0647,3.9978,3.9315,3.9299,3.9299,3.9299,3.9299,3.9299,3.9299,3.9299,3.9299,3.9299,3.9299,3.9299,3.9315,3.9381,4.015,4.1326,4.1458,4.2307,4.3499,4.3565,4.3549,4.3482,0.0,0.0,0.0,0.0,0.0,0.0,0.0,0.0,0.0,0.0,0.0,0.0,0.0,0.0,0.0,0.0,0.0,0.0,0.0,1.6342,1.6625,1.7293,1.8223,1.8752,1.8855,1.9975,2.0633,2.0809,2.1428,2.159,2.1319,2.0948,2.1001,2.14,2.1469,2.1889,2.2616,2.3179,2.3743,2.4266,2.4871,2.543,2.5998,2.6555,2.6842,0.0,0.0,0.0,0.0,0.0,0.0,0.0,2.7039,2.6974,2.674,2.5942,2.6573,2.7365,2.6638,2.8338,3.0825,3.3045,3.6962,4.0564,4.1789,4.2721,4.3069,4.2059,4.2655,4.34,4.3565,4.3466,4.3416,4.3565,4.3598,4.3648,4.3797,4.383,4.383,4.383,4.383,4.3764,4.3615,4.3069,4.2738,4.2738,4.2738,4.2473,4.1893,4.1711,4.1326,4.063,3.9912,3.9464,3.9299,3.9299,3.9299,3.9299,3.9299,3.9299,3.9299,3.9299,3.9299,3.9299,3.9299,3.9299,3.9348,3.9928,4.0343,4.0713,4.1839,4.2456,4.2804,4.3383,4.3234,4.2638,0.0,0.0,0.0,0.0,0.0,0.0,0.0,0.0,0.0,0.0,0.0,0.0,0.0,0.0,0.0,0.0,0.0,0.0,0.0,0.0,1.7086,1.7975,1.8929,1.939,1.9286,2.0557,2.1233,2.1276,2.235,2.2516,2.1838,2.1748,2.1788,2.1881,2.1759,2.2259,2.3207,2.3483,2.4055,2.4851,2.5468,2.589,2.6211,2.6792,2.7006,2.7055,2.7152,0.0,0.0,0.0,0.0,0.0,0.0,0.0,2.674,2.5942,2.642,2.7179,2.6971,2.8803,3.1574,3.5022,3.8162,4.0663,4.1711,4.2258,4.2324,4.1574,4.2555,4.3598,4.3598,4.3598,4.3598,4.3598,4.3598,4.3598,4.3598,4.3598,4.3598,4.3598,4.3598,4.3598,4.3598,4.292,4.2489,4.2489,4.2158,4.1794,4.1425,4.111,4.0746,4.0426,3.968,3.9299,3.9299,3.9299,3.9299,3.9299,3.9299,3.9299,3.9299,3.9299,3.9299,3.9299,3.9299,3.9299,3.9332,3.9713,4.0094,4.0475,4.121,4.1707,4.2009,4.239,4.2291,4.191,0.0,0.0,0.0,0.0,0.0,0.0,0.0,0.0,0.0,0.0,0.0,0.0,0.0,0.0,0.0,0.0,0.0,0.0,0.0,0.0,0.0,1.8791,1.9469,1.9815,1.978,2.1106,2.1783,2.1783,2.3149,2.3302,2.2323,2.2575,2.2505,2.2141,2.1959,2.2484,2.3491,2.3596,2.4249,2.5278,2.5906,2.6227,2.6385,2.6891,2.707,2.707,2.7201,2.7138,2.6992,2.7007,0.0,0.0,0.0,0.0,2.6536,2.5722,2.6047,2.6725,2.6905,2.8908,3.2067,3.6663,3.846,0.0,4.0912,4.1243,4.1276,4.1392,4.2357,4.3218,4.3218,4.3218,4.3251,4.3383,4.34,4.3449,4.3582,4.3598,4.3598,4.3598,4.3598,4.3549,4.3416,4.2738,4.2258,4.2154,4.1574,4.1177,4.1044,4.0613,4.0343,4.021,3.9613,3.9299,3.9299,3.9299,3.9299,3.9299,3.9299,3.9299,3.9299,3.9299,3.9299,3.9299,3.9299,3.9299,3.9299,3.9299,3.9663,4.0227,4.0359,4.0729,4.1243,4.1375,4.1342,4.1243,0.0,0.0,0.0,0.0,0.0,0.0,0.0,0.0,0.0,0.0,1.6065,0.0,0.0,0.0,0.0,0.0,0.0,0.0,0.0,0.0,0.0,1.8972,1.9624,1.9884,1.9726,2.1026,2.1699,2.1699,2.3107,2.3728,2.3547,2.2975,2.2705,2.2687,2.2594,2.2762,2.3112,2.3588,2.4388,2.5387,2.554,2.6103,2.6826,2.6958,2.6975,2.6942,2.7007,2.6992,2.6942,2.7055,2.7039,0.0,0.0,0.0,2.5705,2.4894,2.5594,2.6337,2.506,2.8068,3.2342,0.0,3.7334,3.8742,0.0,0.0,4.0696,0.0,4.1574,4.1678,4.1678,4.1678,4.1893,4.2539,4.2638,4.287,4.3499,4.3598,4.3598,4.3598,4.3598,4.335,4.2704,4.1976,4.1309,4.0713,4.0608,4.026,3.9613,4.0111,4.0111,3.9481,3.9348,3.9299,3.9299,3.9299,3.9299,3.9299,3.9299,3.9299,3.9299,3.9299,3.9299,3.9299,3.9299,3.9299,3.9299,3.9299,3.9365,3.9514,4.016,4.0459,4.058,4.1193,4.1028,4.0542,0.0,0.0,0.0,0.0,0.0,0.0,0.0,0.0,0.0,0.0,0.0,0.0,0.0,0.0,0.0,0.0,0.0,0.0,0.0,0.0,0.0,1.9565,1.9838,2.0101,2.0302,2.1263,2.1939,2.2335,2.3245,2.3739,2.3797,2.3794,2.3629,2.336,2.3417,2.3589,2.3937,2.4503,2.5144,2.5834,2.6156,2.6814,2.7519,2.7097,2.7232,2.7577,2.7148,2.6959,2.6909,2.6975,2.6975,2.6857,2.6398,0.0,0.0,0.0,2.5013,2.5661,2.6487,2.8584,3.1328,0.0,3.5876,3.6738,3.8212,3.8543,3.8626,3.8941,3.9311,3.9957,4.1193,4.1409,4.1496,4.1839,4.1877,4.1993,4.2307,4.2357,4.2357,4.2357,4.2357,4.2224,4.191,4.1259,4.0713,4.0426,4.0028,3.9647,3.9315,3.9613,3.9647,3.9315,3.9299,3.9299,3.9299,3.9299,3.9299,3.9299,3.9299,3.9299,3.9299,3.9299,3.9299,3.9299,3.9299,3.9299,3.9299,3.9299,3.9299,3.9332,3.9663,3.9779,3.9829,4.01,4.0044,3.9779,0.0,0.0,0.0,0.0,0.0,0.0,0.0,0.0,0.0,0.0,0.0,0.0,0.0,0.0,0.0,0.0,0.0,0.0,0.0,0.0,0.0,2.0197,2.0064,2.0313,2.1012,2.1566,2.2139,2.2761,2.3402,2.3739,2.3855,2.4446,2.4491,2.4118,2.4154,2.433,2.4623,2.5082,2.558,2.6155,2.6802,2.7441,2.8,2.7406,2.7586,2.802,2.7215,2.6892,2.6842,2.6893,2.6909,2.679,2.6024,2.5713,0.0,0.0,0.0,2.4575,2.7124,0.0,2.9556,3.2763,3.3945,3.4717,0.0,0.0,3.6887,3.7069,3.7549,3.8427,4.0017,4.0613,4.0928,4.1127,4.116,4.121,4.1392,4.1409,4.1409,4.1409,4.1409,4.1342,4.116,4.068,4.0326,4.0144,3.9613,3.9299,3.9299,3.9299,3.9299,3.9299,3.9299,3.9299,3.9299,3.9299,3.9299,3.9299,3.9299,3.9299,3.9299,3.9299,3.9299,3.9299,3.9299,3.9299,3.9299,3.9299,3.9299,3.9299,3.9299,3.9299,3.9299,3.9299,3.9299,3.9299,0.0,0.0,0.0,0.0,0.0,0.0,0.0,0.0,0.0,0.0,0.0,0.0,1.6231,1.6274,1.6537,1.7201,1.7761,0.0,0.0,0.0,0.0,2.0752,2.027,0.0,2.164,2.1862,2.2229,2.2724,2.3559,2.3982,2.3997,2.4665,2.4954,2.4923,2.4679,2.4565,2.4603,2.4643,2.5202,2.6184,2.7098,2.766,2.7925,2.8014,2.7991,2.7807,2.6991,2.6708,2.6742,2.6859,2.6942,2.6871,2.6199,2.551,2.4788,0.0,0.0,0.0,2.5075,2.61,0.0,2.9323,3.1352,3.3216,0.0,0.0,3.6257,3.697,3.7135,3.7201,3.7317,3.846,3.9647,4.0343,4.0459,4.0663,4.1326,4.1409,4.1409,4.1409,4.1409,4.116,4.0525,4.0426,4.0111,3.9415,3.9315,3.9299,3.9299,3.9299,3.9299,3.9299,3.9299,3.9299,3.9299,3.9299,3.9299,3.9299,3.9299,3.9299,3.9299,3.9299,3.9299,3.9299,3.9299,3.9299,3.9299,3.9299,3.9299,3.9299,3.9299,3.9299,3.9299,3.9299,3.9299,3.9299,0.0,0.0,0.0,0.0,0.0,0.0,0.0,0.0,0.0,0.0,0.0,0.0,0.0,1.6663,1.724,1.847,1.9481,0.0,0.0,0.0,0.0,2.1557,2.1292,2.1555,2.238,2.2571,2.293,2.3528,2.384,2.4024,2.4139,2.4989,2.5157,2.4761,2.5136,2.5282,2.5259,2.5561,2.5852,2.6202,2.7407,2.8216,2.8619,2.8148,2.882,2.9852,2.8524,2.8039,2.8057,2.8163,2.7657,2.6786,2.5554,2.5079,2.4692,2.3294,2.2706,2.2838,0.0,0.0,0.0,2.7888,2.9879,3.1556,3.2087,3.3437,3.4651,3.4932,3.5744,3.639,3.639,3.7201,3.7963,3.8245,3.8278,3.8377,3.8609,3.9056,3.9344,3.9344,3.9752,3.9951,3.973,3.9696,3.958,3.9315,3.9299,3.9299,3.9299,3.9299,3.9299,3.9299,3.9299,3.9299,3.9299,3.9299,3.9299,3.9299,3.9299,3.9299,3.9299,3.9299,3.9299,3.9299,3.9299,3.9299,3.9299,3.9299,3.9299,3.9299,3.9299,3.9299,3.9299,3.9299,3.9299,3.9299,0.0,0.0,0.0,0.0,0.0,0.0,0.0,0.0,0.0,1.5994,0.0,0.0,0.0,0.0,1.7944,1.9401,2.0678,2.1371,2.1333,2.1624,2.1928,2.2229,2.1963,2.2209,2.3041,2.3025,2.3294,2.3861,2.4094,2.4261,2.4354,2.5363,2.559,2.519,2.5875,2.601,2.5747,2.6081,2.6227,2.648,2.8349,2.9361,2.972,2.9171,2.9891,3.098,2.9646,2.9011,2.891,2.9688,2.9245,2.8032,2.6102,2.4935,2.4036,2.2942,0.0,0.0,2.3614,0.0,0.0,0.0,2.8455,3.0125,3.0584,3.1955,3.3255,3.3713,3.4584,3.5346,3.5595,3.6025,3.6522,3.7036,3.7102,3.7102,3.7102,3.7533,3.7822,3.7822,3.8261,3.8642,3.8917,3.8924,3.9033,3.9282,3.9299,3.9299,3.9299,3.9299,3.9299,3.9299,3.9299,3.9299,3.9299,3.9299,3.9183,3.8924,3.9183,3.9183,3.895,3.9199,3.9299,3.9299,3.9299,3.9299,3.9299,3.9299,3.9299,3.9299,3.9299,3.9299,3.9299,3.9299,3.9299,3.9299,0.0,0.0,0.0,0.0,0.0,0.0,0.0,0.0,1.6371,1.6506,0.0,0.0,0.0,0.0,0.0,1.9945,2.1265,2.1985,2.1883,2.1848,2.2109,2.2703,0.0,0.0,2.3565,2.3226,2.3232,2.3638,2.4297,2.4623,2.4659,2.5755,2.629,2.6322,2.685,2.6693,2.6031,2.6031,2.6296,2.6995,2.9926,3.112,3.1136,3.1185,3.1234,3.1154,3.0332,2.9597,2.9295,3.1368,3.1618,3.0598,2.7912,2.5094,2.2803,2.2803,0.0,0.0,0.0,0.0,0.0,0.0,0.0,0.0,3.0275,0.0,3.2136,3.3431,3.3729,3.3978,3.47,3.4833,3.5313,3.6771,3.7036,3.7052,3.7052,3.7052,3.7069,3.7069,3.7102,3.7384,3.8086,3.8179,3.846,3.9183,3.9265,3.9265,3.9232,3.9265,3.9282,3.9299,3.9299,3.9299,3.9299,3.9282,3.8907,3.8228,3.8924,3.8874,3.8245,3.8941,3.9299,3.9299,3.9299,3.9299,3.9299,3.9299,3.9299,3.9299,3.9299,3.9299,3.9299,3.9299,3.9299,3.9299,0.0,0.0,0.0,0.0,0.0,1.7708,1.7758,1.7253,1.6887,0.0,0.0,0.0,1.773,1.9236,2.0524,2.1356,2.2128,2.2783,2.3209,2.3155,2.3188,2.3325,2.3182,2.3257,2.3595,2.3984,2.4214,2.4318,2.4946,2.5256,2.5256,2.5884,2.6167,2.6167,2.6616,2.6706,2.6505,2.6505,2.6893,2.772,3.014,3.1436,3.1991,3.2964,3.3941,3.4682,3.3889,3.3462,3.3317,3.3467,3.2218,3.003,2.6805,2.4441,2.2838,2.2764,0.0,0.0,2.2515,0.0,0.0,0.0,0.0,0.0,2.7734,0.0,3.0634,3.1399,3.1976,3.2536,3.3183,3.3292,3.363,3.4551,3.5164,3.5512,3.5512,3.5976,3.6307,3.6307,3.6787,3.7185,3.7384,3.7417,3.75,3.7682,3.8195,3.8278,3.7731,3.8212,3.8742,3.9282,3.9299,3.9299,3.9299,3.8758,3.8411,3.8186,3.8411,3.8411,3.8245,3.8941,3.9299,3.9299,3.9299,3.9299,3.9299,3.9299,3.9299,3.9299,3.9299,3.9299,3.9299,3.9299,3.9299,3.9299,0.0,0.0,0.0,0.0,0.0,1.7992,1.7777,1.7578,1.7486,0.0,0.0,0.0,1.8678,2.0056,2.119,2.1831,2.242,2.3026,2.3672,2.3653,2.3595,2.3595,2.3815,2.3927,2.3927,2.4547,2.4847,2.4847,2.5427,2.5723,2.5707,2.6209,2.6401,2.635,2.6641,2.6742,2.6691,2.6674,2.7096,2.8041,3.08,3.2325,3.3139,3.4471,3.5481,3.6104,3.5628,3.5267,3.5067,3.5623,3.3515,3.026,2.8045,2.5732,2.3753,2.3454,0.0,0.0,0.0,0.0,0.0,0.0,0.0,0.0,2.7079,2.8035,2.9147,2.9965,3.051,3.1087,3.205,3.2249,3.2481,3.321,3.369,3.4087,3.4386,3.5081,3.5429,3.5114,3.5727,3.6307,3.6622,3.6655,3.6771,3.7085,3.75,3.7698,3.7582,3.8261,3.8858,3.9282,3.9299,3.9299,3.9299,3.8576,3.8063,3.7748,3.8037,3.802,3.7798,3.8808,3.9299,3.9299,3.9299,3.9299,3.9299,3.9299,3.9299,3.9299,3.9299,3.9299,3.9299,3.9299,3.9299,3.9299,0.0,0.0,1.952,1.832,1.8593,1.861,1.7471,1.776,1.8108,0.0,1.8641,1.9178,1.9737,2.0324,2.0948,2.1635,2.2254,2.2882,2.3586,2.3595,2.3638,2.3702,2.4158,2.443,2.4491,2.5012,2.5297,2.5297,2.5815,2.6067,2.6085,2.6606,2.6792,2.6691,2.6809,2.6792,2.6674,2.6623,2.7196,2.8429,3.1675,3.345,3.4269,3.5839,3.6455,3.6455,3.6455,3.6024,3.5725,3.7434,3.4985,3.1083,3.0338,2.798,2.5386,2.4624,2.4392,0.0,0.0,0.0,0.0,0.0,2.6359,0.0,2.7502,2.7512,2.7753,2.8926,2.9168,2.9599,3.0986,3.1234,3.1466,3.2199,3.2404,3.2729,3.3557,3.4237,3.4402,3.3756,3.4319,3.5032,3.5694,3.5827,3.6158,3.682,3.687,3.7251,3.8136,3.8725,3.9133,3.9299,3.9299,3.9299,3.9299,3.8493,3.7765,3.7119,3.7765,3.7748,3.7152,3.8636,3.9299,3.9299,3.9299,3.9299,3.9299,3.9299,3.9299,3.9299,3.9299,3.9299,3.9299,3.9299,3.9299,3.9299,0.0,1.9582,1.911,1.8852,1.8913,1.8913,1.8671,1.8682,1.874,1.8741,1.8746,1.8991,1.9651,1.9831,2.0415,2.159,2.1814,2.2424,2.3685,2.3674,2.3852,2.4379,2.4405,2.4597,2.5031,2.5577,2.5852,2.5852,2.6278,2.6469,2.6486,2.6554,2.6571,2.6537,2.6571,2.6571,2.6537,2.6537,2.7961,3.0369,3.2183,3.3384,3.4436,3.7527,3.8695,3.8695,3.8695,3.8595,3.829,3.7144,3.4917,3.2224,3.007,2.8868,2.781,2.5596,2.5611,0.0,0.0,0.0,0.0,2.5855,2.6121,0.0,2.691,2.6962,2.7027,2.7663,2.779,2.8037,2.8873,2.9022,2.9234,2.993,3.0539,3.1404,3.2713,3.305,3.3083,3.2934,3.358,3.4054,3.4203,3.4767,3.5164,3.5313,3.533,3.6174,3.8112,3.7781,3.8063,3.9265,3.9299,3.9299,3.9299,3.798,3.7251,3.7102,3.7251,3.7251,3.7152,3.8636,3.9299,3.9299,3.9299,3.9299,3.9299,3.9299,3.9299,3.9299,3.9299,3.9299,3.9299,3.9299,3.9299,3.9299,1.9929,1.9459,1.897,1.887,1.8854,1.887,1.8936,1.9157,1.9316,1.9351,1.9249,1.945,2.0124,2.0198,2.0737,2.2089,2.2209,2.2742,2.4008,2.4048,2.4282,2.4867,2.5086,2.5316,2.5596,2.6049,2.6295,2.6295,2.6468,2.6554,2.6554,2.652,2.652,2.6554,2.6502,2.652,2.6571,2.6835,2.8221,3.0413,3.2179,3.3989,3.5911,3.8373,3.9299,3.9299,3.9299,3.9299,3.9093,3.7735,3.5642,3.3332,3.209,3.0705,2.917,2.7189,2.71,2.7359,2.6011,2.5672,2.5863,2.658,2.6724,0.0,0.0,2.6792,2.6759,2.6919,2.6878,2.7038,2.7769,2.7864,2.8078,2.8787,2.9499,3.0096,3.0497,3.179,3.2547,3.2199,3.2796,3.3265,3.3265,3.3905,3.4502,3.4866,3.5247,3.6092,3.7582,3.7665,3.8162,3.9265,3.9299,3.9133,3.8742,3.7649,3.692,3.6555,3.6936,3.7102,3.7152,3.8636,3.9299,3.9299,3.9299,3.9299,3.9299,3.9299,3.9299,3.9299,3.9299,3.9299,3.9299,3.9299,3.9299,3.9299,1.9732,1.9243,1.8751,1.8704,1.8702,1.8781,1.9019,1.9416,1.9726,1.978,1.9864,2.0094,2.0666,2.1036,2.1799,2.3152,2.3483,2.3994,2.4926,2.4958,2.508,2.5354,2.5781,2.6031,2.6103,2.6434,2.6589,2.6589,2.6486,2.6468,2.6468,2.6584,2.6686,2.6738,2.697,2.702,2.6972,2.7564,2.8826,3.0636,3.2369,3.4659,3.717,3.8712,3.9299,3.9299,3.9299,3.9299,3.9166,3.833,3.6479,3.4448,3.4012,3.247,3.0535,2.8852,2.8647,2.8611,2.7082,2.6666,2.6745,2.7298,2.7359,2.7249,0.0,0.0,0.0,2.652,2.6363,0.0,0.0,0.0,2.73,2.7879,2.8539,2.8804,2.826,3.0315,3.1686,3.1234,3.2083,3.2652,3.2497,3.3143,3.3938,3.4833,3.5313,3.5959,3.6854,3.7466,3.8179,3.9067,3.8967,3.8659,3.8186,3.7334,3.6589,3.6009,3.6754,3.7102,3.7152,3.8636,3.9299,3.9299,3.9299,3.9299,3.9299,3.9299,3.9299,3.9299,3.9299,3.9299,3.9299,3.9299,3.9299,3.9299,1.9233,1.8432,1.803,1.8597,1.8702,1.8912,1.9531,1.9648,1.9726,1.978,2.025,2.0636,2.0771,2.2274,2.3804,2.5151,2.6245,2.6964,2.7146,2.6987,2.6619,2.6012,2.5997,2.6173,2.652,2.6572,2.6571,2.6502,2.6382,2.6313,2.6329,2.6924,2.7203,2.7271,2.8528,2.8743,2.8232,2.889,3.0779,3.3354,3.3597,3.4721,3.6463,3.8529,3.9299,3.9299,3.9299,3.9299,3.911,3.7894,3.6842,3.5666,3.3334,3.3081,3.3072,3.0189,3.0067,3.0502,2.8795,2.7736,2.7172,2.7432,2.7233,2.6959,2.6975,0.0,2.6589,2.652,0.0,2.645,0.0,0.0,0.0,0.0,2.7048,2.7514,2.7431,2.826,2.9089,2.9579,3.1454,3.2431,3.178,3.2398,3.3392,3.48,3.4369,3.4651,3.6059,3.6208,3.6887,3.8295,3.7698,3.7632,3.8186,3.682,3.6075,3.6009,3.6754,3.7102,3.7152,3.8636,3.9299,3.9299,3.9299,3.9299,3.9299,3.9299,3.9299,3.9299,3.9299,3.9299,3.9299,3.9299,3.9299,3.9299,1.9662,1.8847,1.8385,1.9297,1.8511,1.8088,1.9026,1.9415,1.9708,2.0058,2.0557,2.1039,2.1446,2.2976,2.448,2.5796,2.7127,2.7876,2.7801,2.8505,2.8391,2.7139,2.7838,2.7942,2.7246,2.7541,2.7485,2.7015,2.7358,2.752,2.752,2.7815,2.7966,2.8071,2.9437,2.9934,2.9779,3.0394,3.1901,3.3822,3.427,3.5337,3.6887,3.8619,3.9299,3.9299,3.9299,3.9299,3.9199,3.8674,3.7228,3.5679,3.5746,3.4516,3.2871,3.1927,3.1536,0.0,2.9541,2.9126,2.9041,2.8776,2.8818,2.8818,2.8391,2.7828,2.7385,2.7281,0.0,0.0,0.0,0.0,0.0,0.0,2.6891,2.7205,2.6735,2.768,2.8658,2.9334,2.988,3.0559,3.1515,3.2266,3.3292,3.4783,3.422,3.4435,3.5926,3.6009,3.6688,3.8136,3.7483,3.7251,3.7566,3.6522,3.5794,3.5379,3.6555,3.7102,3.7152,3.8636,3.9299,3.9299,3.9299,3.9299,3.9299,3.9299,3.9299,3.9299,3.9299,3.9299,3.9299,3.9299,3.9299,3.9299,1.9861,1.8827,1.8069,1.9057,1.8051,1.7532,1.8794,1.9508,2.0065,2.047,2.0955,2.1534,2.2255,2.4271,2.6098,2.7397,2.9128,2.9942,2.9459,3.0387,3.0281,2.8748,2.9452,2.9482,2.8533,2.85,2.8241,2.7674,2.8146,2.8392,2.8392,2.8591,2.8694,2.8818,3.0199,3.0962,3.129,3.1939,3.3176,3.475,3.5297,3.6141,3.7268,3.8752,3.9299,3.9299,3.9299,3.9299,3.9249,3.8913,3.7453,3.5983,3.7103,3.5586,3.3414,3.3506,0.0,0.0,3.0485,3.0227,3.0278,2.9782,2.9868,2.9965,2.9418,2.8801,2.827,2.7945,2.735,0.0,0.0,0.0,0.0,0.0,0.0,2.6928,0.0,2.7153,0.0,2.8738,2.8738,2.9367,3.1135,3.1785,3.2713,3.4187,3.3789,3.4137,3.5628,3.5893,3.6589,3.7864,3.7185,3.7003,3.7417,3.6274,3.5628,3.5512,3.6589,3.7218,3.745,3.8735,3.9299,3.9299,3.9299,3.9299,3.9299,3.9299,3.9299,3.9299,3.9299,3.9299,3.9299,3.9299,3.9299,3.9299,1.935,1.7672,1.6414,1.7163,1.718,1.7638,1.9232,2.0321,2.0975,2.107,2.1599,2.2271,2.3062,2.6684,2.9616,3.1014,3.343,3.4361,3.3102,3.2961,3.2311,3.0955,3.0255,3.0127,3.0588,2.9223,2.8453,2.8359,2.8392,2.8392,2.8409,2.9069,2.9363,2.945,3.0903,3.1967,3.2685,3.3408,3.4982,3.7003,3.7036,3.7069,3.7268,3.8752,3.9299,3.9299,3.9299,3.9299,3.911,3.787,3.7394,3.7125,3.5963,3.5843,3.5934,3.4728,3.4197,3.3666,3.1993,3.0883,3.0128,2.985,2.9558,2.9349,2.9472,2.9368,2.904,2.8254,2.8015,2.7691,0.0,0.0,0.0,0.0,0.0,0.0,0.0,0.0,2.6627,2.7284,2.8539,2.9678,3.0456,3.0555,3.1189,3.2669,3.2752,3.3398,3.4849,3.5611,3.6357,3.7119,3.6423,3.6721,3.8136,3.6025,3.5644,3.7036,3.7085,3.7483,3.8195,3.8941,3.9299,3.9299,3.9299,3.9299,3.9299,3.9299,3.9299,3.9299,3.9299,3.9299,3.9299,3.9299,3.9299,3.9299,1.9126,1.8029,1.7332,1.8347,1.78,1.7669,1.8966,2.0546,2.2244,2.4043,2.5119,2.6349,2.805,3.033,3.2087,3.2948,3.4749,3.5035,3.3183,3.4349,3.4102,3.1829,3.183,3.1742,3.142,3.0377,2.9569,2.9069,2.9549,2.9798,2.9798,3.0009,3.0125,3.0191,3.1669,3.3011,3.417,3.4419,3.5528,3.7019,3.6042,3.6241,3.7152,3.7649,3.7831,3.7963,3.895,3.9299,3.9216,3.8797,3.8043,3.7361,3.7861,3.6942,3.5796,3.6266,3.5736,3.4807,3.374,3.3478,3.3212,3.1968,3.1764,3.171,3.1048,3.0035,2.9313,2.957,2.8801,2.7964,0.0,0.0,0.0,0.0,0.0,0.0,0.0,0.0,2.6516,2.6732,2.8334,2.9334,2.9118,3.039,3.1631,3.2636,3.3143,3.3856,3.4849,3.5595,3.634,3.7085,3.687,3.7201,3.8195,3.6986,3.6357,3.639,3.7367,3.7715,3.7516,3.8752,3.9299,3.9299,3.9299,3.9299,3.9299,3.9299,3.9299,3.9299,3.9299,3.9299,3.9299,3.9299,3.9299,3.9299,1.8744,1.8184,1.7845,1.8528,1.8385,1.8504,1.9432,2.1406,2.358,2.5786,2.7232,2.8833,3.0961,3.2705,3.3978,3.4642,3.6048,3.613,3.4263,3.5678,3.5685,3.365,3.3896,3.395,3.3705,3.2127,3.1056,3.0576,3.0506,3.0506,3.0506,3.0506,3.0506,3.0539,3.1504,3.3027,3.4899,3.4899,3.6042,3.7731,3.5992,3.5694,3.6357,3.6622,3.687,3.7301,3.8785,3.9299,3.9299,3.9299,3.8695,3.8116,3.9027,3.8134,3.6909,3.7519,3.711,3.6259,3.5357,3.5367,3.5287,3.4024,3.3872,3.3714,3.2591,3.1574,3.0751,3.0496,2.964,2.8767,2.8117,0.0,0.0,0.0,0.0,0.0,0.0,2.652,2.6502,2.6502,2.7794,2.8611,2.8448,2.9669,3.0874,3.1835,3.2597,3.3342,3.4071,3.5562,3.6622,3.7085,3.7367,3.7847,3.8576,3.7599,3.7003,3.6804,3.7765,3.7963,3.7533,3.8768,3.9299,3.9299,3.9299,3.9299,3.9299,3.9299,3.9299,3.9299,3.9299,3.9299,3.9299,3.9299,3.9299,3.9299,1.8371,1.8272,1.8099,1.7921,1.9048,2.0154,2.0671,2.2921,2.5059,2.6483,2.8094,2.9923,3.203,3.4039,3.5499,3.6214,3.7475,3.7683,3.6329,3.6928,3.7012,3.6263,3.6196,3.648,3.7102,3.4203,3.2702,3.2702,3.1222,3.0506,3.0506,3.0506,3.0506,3.0506,3.0506,3.2116,3.4783,3.4783,3.6439,3.8901,3.6787,3.5528,3.4982,3.576,3.6489,3.7301,3.8785,3.9299,3.9299,3.9299,3.9299,3.9299,3.9299,3.9299,3.9166,3.846,3.8261,3.7998,3.68,3.6446,3.6286,3.5836,3.5633,3.5222,3.4057,3.3806,3.3237,3.1132,3.0672,3.0138,2.8458,0.0,0.0,0.0,0.0,0.0,0.0,0.0,2.6536,2.6502,2.7016,2.7627,2.8325,2.84,2.8969,3.039,3.1184,3.1946,3.2785,3.5495,3.7069,3.7102,3.7864,3.8593,3.9299,3.7914,3.7549,3.8186,3.8245,3.8245,3.8245,3.8941,3.9299,3.9299,3.9299,3.9299,3.9299,3.9299,3.9299,3.9299,3.9299,3.9299,3.9299,3.9299,3.9299,3.9299,1.9991,2.0882,2.1741,2.2133,2.2357,2.2509,2.2651,2.5058,2.7696,3.0042,3.2205,3.4547,3.7103,3.7891,3.8264,3.8463,3.8801,3.843,3.702,3.7576,3.7659,3.697,3.6372,3.6381,3.7085,3.4203,3.2702,3.2702,3.1222,3.0506,3.0506,3.0506,3.0506,3.0506,3.0506,3.1537,3.3243,3.3243,3.4319,3.5976,3.5413,3.5065,3.5032,3.634,3.6953,3.7301,3.8785,3.9299,3.9299,3.9299,3.9299,3.9299,3.9299,3.9299,3.9265,3.9083,3.9033,3.8834,3.7983,3.7734,3.7469,3.642,3.6115,3.5904,3.5205,3.4629,3.4075,3.352,3.2961,3.213,3.0637,3.0516,0.0,0.0,0.0,0.0,0.0,0.0,2.7247,2.6708,2.6705,2.6784,2.6845,2.7802,2.8969,3.039,3.1184,3.2392,3.4237,3.5578,3.6539,3.7085,3.8344,3.9116,3.9299,3.8934,3.856,3.8228,3.8758,3.8725,3.8245,3.8941,3.9299,3.9299,3.9299,3.9299,3.9299,3.9299,3.9299,3.9299,3.9299,3.9299,3.9299,3.9299,3.9299,3.9299,2.1468,2.2743,2.3936,2.4264,2.5408,2.6066,2.5376,2.632,2.8187,3.1252,3.3417,3.5488,3.7608,3.8718,3.9299,3.9299,3.9299,3.8844,3.7709,3.8288,3.837,3.7659,3.7492,3.7632,3.8046,3.5794,3.4303,3.3657,3.2183,3.1139,3.0506,3.0506,3.0506,3.0506,3.0506,3.1321,3.2785,3.4071,3.4717,3.4982,3.5959,3.6158,0.0,3.7152,3.7781,3.8162,3.9,3.9299,3.9299,3.9299,3.9299,3.9299,3.9299,3.9299,3.9299,3.9299,3.9299,3.9216,3.8775,3.8676,3.8503,3.7794,3.7603,3.7394,3.6541,3.6041,3.5576,3.4959,3.4262,3.3507,3.2614,3.2039,0.0,0.0,0.0,0.0,0.0,0.0,2.7637,2.7198,2.6774,2.6451,2.6313,2.6706,2.7677,2.945,2.9963,3.0742,3.1984,3.4551,3.6042,3.6141,3.788,3.8984,3.9299,3.8974,3.8609,3.8228,3.8941,3.8907,3.8245,3.8941,3.9299,3.9299,3.9299,3.9299,3.9299,3.9299,3.9299,3.9299,3.9299,3.9299,3.9299,3.9299,3.9299,3.9299,2.3141,2.4328,2.5284,2.5269,2.7879,2.964,2.8553,2.7871,2.8588,3.1769,3.3582,3.5051,3.6315,3.8155,3.9299,3.9299,3.9299,3.9033,3.8394,3.8924,3.9017,3.8377,3.8967,3.9299,3.9299,3.7765,3.629,3.4899,3.3326,3.1851,3.0506,3.0506,3.0526,3.0568,3.0593,3.1432,3.2979,3.5477,3.5893,3.5081,3.7218,3.7682,3.7201,3.803,3.8742,3.9299,3.9299,3.9299,3.9299,3.9299,3.9299,3.9299,3.9299,3.9299,3.9299,3.9299,3.9299,3.9299,3.9299,3.9299,3.9299,3.9299,3.9299,3.902,3.7903,3.7694,3.7366,3.6041,3.5311,3.4774,3.4448,3.3295,0.0,0.0,0.0,0.0,2.9648,2.8987,2.836,2.8002,2.7258,0.0,2.6329,2.5659,2.612,2.8243,2.831,2.8459,2.8939,3.316,3.5446,3.5197,3.7152,3.851,3.9149,3.8626,3.8311,3.8228,3.8941,3.8907,3.8245,3.8941,3.9249,3.9166,3.9265,3.9299,3.9299,3.9299,3.9299,3.9299,3.9299,3.9299,3.9299,3.9299,3.9299,3.9299,2.6073,2.6631,2.6838,2.6678,2.8505,3.0479,3.1855,3.2922,3.396,3.5065,3.663,3.7902,3.8636,3.9067,3.9299,3.9299,3.9299,3.9249,3.9133,3.9232,3.9249,3.9116,3.9232,3.9299,3.9299,3.7251,3.5777,3.4899,3.2806,3.135,3.0506,3.0506,3.063,3.0834,3.1123,3.2021,3.3363,3.3434,3.4005,3.5032,3.6655,3.7218,3.7251,3.8576,3.9199,3.9299,3.9299,3.9299,3.9299,3.9299,3.9299,3.9299,3.9299,3.9299,3.9299,3.9299,3.9299,3.9299,3.9299,3.9299,3.9299,3.9299,3.9299,3.9232,3.902,3.898,3.8747,3.7891,3.7635,3.7195,3.6037,3.4292,3.2972,0.0,0.0,3.2643,3.3136,3.2567,3.1411,2.9566,2.8636,2.7663,2.6429,2.6124,2.6667,2.8276,2.7829,2.879,3.179,3.2801,3.4319,3.6655,3.7698,3.8278,3.8394,3.8858,3.8791,3.8228,3.8941,3.8907,3.8245,3.8941,3.8984,3.8427,3.905,3.9299,3.9299,3.9299,3.9299,3.9299,3.9299,3.9299,3.9299,3.9299,3.9299,3.9299,2.7046,2.7169,2.7483,2.8527,3.0289,3.227,3.4386,3.6187,3.6962,3.6108,3.6655,3.7261,3.7575,3.8619,3.9299,3.9299,3.9299,3.9299,3.9299,3.9299,3.9133,3.8742,3.8725,3.8725,3.8725,3.7698,3.6406,3.4899,3.3931,3.2518,3.0712,3.0814,3.1021,3.1351,3.2142,3.2832,3.3469,3.4535,3.5396,3.6174,3.7649,3.8228,3.8311,3.9033,3.9299,3.9299,3.9299,3.9299,3.9299,3.9299,3.9299,3.9299,3.9299,3.9299,3.9299,3.9299,3.9299,3.9299,3.9299,3.9299,3.9299,3.9299,3.9299,3.9299,3.9299,3.9299,3.9199,3.8825,3.8477,3.7799,3.6502,3.5121,3.4225,3.4314,3.3638,3.3455,3.4526,3.4041,3.3016,3.1537,2.9992,2.8622,2.7505,2.6669,2.6501,2.7197,2.6932,2.781,3.0348,3.189,3.369,3.5893,3.7052,3.7996,3.8758,3.8742,3.8742,3.8758,3.9133,3.9116,3.8775,3.9149,3.9116,3.8775,3.9149,3.9299,3.9299,3.9299,3.9299,3.9299,3.9299,3.9299,3.9299,3.9299,3.9299,3.9299,2.7821,2.7551,2.8015,3.044,3.2169,3.3913,3.5935,3.7992,3.8669,3.692,3.6704,3.6704,3.6704,3.8271,3.9299,3.9299,3.9299,3.9299,3.9299,3.9299,3.905,3.846,3.8268,3.8186,3.8186,3.8063,3.697,3.4899,3.4898,3.3662,3.1251,0.0,3.1257,3.1821,3.3034,3.3768,3.418,3.622,3.7284,3.7665,3.8834,3.9299,3.9299,3.9299,3.9299,3.9299,3.9299,3.9299,3.9299,3.9299,3.9299,3.9299,3.9299,3.9299,3.9299,3.9299,3.9299,3.9299,3.9299,3.9299,3.9299,3.9299,3.9299,3.9299,3.9299,3.9299,3.9299,3.9299,3.8825,3.8032,3.6727,3.5969,3.5502,3.5348,3.4515,3.4297,3.5435,3.5235,3.4545,3.3461,3.1361,2.9712,2.8923,2.7247,2.6384,2.6848,2.675,2.7379,2.9006,3.1392,3.3398,3.4849,3.634,3.7582,3.8602,3.8477,3.8642,3.9083,3.9232,3.9232,3.9083,3.9232,3.9216,3.9083,3.9232,3.9299,3.9299,3.9299,3.9299,3.9299,3.9299,3.9299,3.9299,3.9299,3.9299,3.9299,2.9654,2.892,2.9,3.2186,3.3434,3.4445,3.5826,3.789,3.9232,3.9017,3.9,3.9,3.9,3.9183,3.9299,3.9299,3.9299,3.9299,3.9299,3.9299,3.9265,3.9199,3.856,3.8186,3.8186,3.7549,3.6456,3.4899,3.4243,3.3377,3.2327,0.0,3.0839,3.202,3.3302,3.4826,3.6503,3.6927,3.7864,3.9116,3.9249,3.9299,3.9299,3.9299,3.9299,3.9299,3.9299,3.9299,3.9299,3.9299,3.9299,3.9299,3.9299,3.9299,3.9299,3.9299,3.9299,3.9299,3.9299,3.9299,3.9299,3.9299,3.9299,3.9299,3.9299,3.9299,3.9299,3.9299,3.9249,3.8778,3.7369,3.7037,3.6596,3.5328,3.6071,3.6812,3.692,3.7442,3.7044,3.4956,3.2762,3.1101,3.0373,2.7808,2.6996,2.895,2.8539,2.9102,3.1184,3.2183,3.3398,3.4849,3.634,3.6854,3.6307,3.8212,3.8891,3.8328,3.8974,3.8941,3.8344,3.9017,3.895,3.8344,3.9017,3.9299,3.9299,3.9299,3.9299,3.9299,3.9299,3.9299,3.9299,3.9299,3.9299,3.9299,3.1263,3.1216,3.1866,3.4526,3.5121,3.5874,3.7707,3.8735,3.9299,3.9299,3.9299,3.9299,3.9299,3.9299,3.9299,3.9299,3.9299,3.9299,3.9299,3.9299,3.8917,3.8013,3.7698,3.7334,3.6903,3.6605,3.6158,3.5562,3.4934,3.4431,3.402,3.2672,3.259,3.3696,3.5506,3.669,3.7385,3.8111,3.8768,3.9299,3.9299,3.9299,3.9299,3.9299,3.9299,3.9299,3.9299,3.9299,3.9299,3.9299,3.9299,3.9299,3.9299,3.9299,3.9299,3.9299,3.9299,3.9299,3.9299,3.9299,3.9299,3.9299,3.9299,3.9299,3.9299,3.9299,3.9299,3.9299,3.9299,3.9116,3.8572,3.7742,3.7261,3.7559,3.736,3.7451,3.8304,3.8659,3.803,3.5827,3.3607,3.1984,3.1234,2.8555,2.7926,3.0522,2.8853,2.8691,3.082,3.1631,3.2729,3.4187,3.6108,3.697,3.6671,3.8437,3.9149,3.8858,3.9166,3.9149,3.8858,3.9183,3.9149,3.8874,3.9183,3.9299,3.9299,3.9299,3.9299,3.9299,3.9299,3.9299,3.9299,3.9299,3.9299,3.9299,3.3249,3.3354,3.4146,3.6728,3.6705,3.7003,3.9,3.9299,3.9299,3.9299,3.9299,3.9299,3.9299,3.9299,3.9299,3.9299,3.9299,3.9299,3.9299,3.9299,3.8752,3.7483,3.7218,3.6754,3.6025,3.6009,3.6009,3.6009,3.5623,3.5481,3.5582,3.4785,3.4592,3.503,3.7155,3.8001,3.7911,3.8899,3.9299,3.9299,3.9299,3.9299,3.9299,3.9299,3.9299,3.9299,3.9299,3.9299,3.9299,3.9299,3.9299,3.9299,3.9299,3.9299,3.9299,3.9299,3.9299,3.9299,3.9299,3.9299,3.9299,3.9299,3.9299,3.9299,3.9299,3.9299,3.9299,3.9299,3.9299,3.9299,3.9299,3.8444,3.7947,3.8543,3.8129,3.7963,3.8586,3.9033,3.8486,3.6257,3.4237,3.2812,3.2293,2.9615,2.9118,3.2012,3.0145,2.9652,3.1388,3.2161,3.3061,3.4087,3.6274,3.7334,3.7102,3.8569,3.9299,3.9299,3.9299,3.9299,3.9299,3.9299,3.9299,3.9299,3.9299,3.9299,3.9299,3.9299,3.9299,3.9299,3.9299,3.9299,3.9299,3.9299,3.9299,3.9299,3.5713,3.5081,3.5178,3.8662,3.8046,3.7582,3.9083,3.9299,3.9299,3.9299,3.9299,3.9299,3.9299,3.9299,3.9299,3.9299,3.9299,3.9299,3.9299,3.9299,3.8984,3.8228,3.75,3.6754,3.6025,3.6009,3.6009,3.6009,3.5992,3.6265,3.6775,3.6966,3.6496,3.5566,3.7585,3.8367,3.8245,3.9,3.9299,3.9299,3.9299,3.9299,3.9299,3.9299,3.9299,3.9299,3.9299,3.9299,3.9299,3.9299,3.9299,3.9299,3.9299,3.9299,3.9299,3.9299,3.9299,3.9299,3.9299,3.9299,3.9299,3.9299,3.9299,3.9299,3.9299,3.9299,3.9299,3.9299,3.9299,3.9299,3.9299,3.9282,3.8818,3.7367,3.8328,3.8785,3.7334,3.8377,3.8486,3.6257,3.4684,3.3773,3.3756,3.1123,3.0609,3.3541,3.3083,3.2967,3.3707,3.4452,3.4866,3.4883,3.7036,3.7847,3.7119,3.8569,3.9299,3.9299,3.9299,3.9299,3.9299,3.9299,3.9299,3.9299,3.9299,3.9299,3.9299,3.9299,3.9299,3.9299,3.9299,3.9299,3.9299,3.9299,3.9299,3.9299,3.6671,3.7286,3.7974,3.91,3.8917,3.8768,3.9232,3.9299,3.9299,3.9299,3.9299,3.9299,3.9299,3.9299,3.9299,3.9299,3.9299,3.9299,3.9299,3.9299,3.8768,3.75,3.7235,3.6522,3.528,3.5247,3.5744,3.6754,3.6257,3.6469,3.7425,3.841,3.8475,3.7778,3.8656,3.9014,3.8984,3.9199,3.9458,3.972,3.972,3.972,3.9729,3.9961,3.9747,3.9325,3.9616,3.9537,3.9299,3.9299,3.9299,3.9299,3.9299,3.9299,3.9299,3.9299,3.9299,3.9299,3.9299,3.9299,3.9299,3.9299,3.9299,3.9299,3.9299,3.9299,3.9299,3.9299,3.9299,3.9299,3.9299,3.9299,3.9149,3.8685,3.9,3.9133,3.8685,3.8129,3.7168,3.5446,3.3938,3.3265,3.374,3.205,3.1896,3.4369,3.3392,3.3033,3.3756,3.4982,3.5413,3.4916,3.7052,3.7864,3.7119,3.8569,3.9299,3.9299,3.9299,3.9299,3.9299,3.9299,3.9299,3.9299,3.9299,3.9299,3.9299,3.9299,3.9299,3.9299,3.9299,3.9299,3.9299,3.9299,3.9299,3.9299,3.7814,3.8685,3.9299,3.9299,3.9299,3.9299,3.9299,3.9067,3.8901,3.8901,3.8669,3.846,3.846,3.846,3.8702,3.9249,3.9299,3.9183,3.8917,3.8901,3.8228,3.6754,3.6688,3.6125,3.4932,3.4899,3.5479,3.6688,3.692,3.756,3.8553,3.9501,3.9675,3.9211,3.9425,3.9432,3.9299,3.9299,3.9432,3.9694,3.9849,3.9901,3.9952,4.0269,4.0037,3.9563,3.9824,3.9642,3.9299,3.9299,3.9299,3.9299,3.9299,3.9299,3.9299,3.9299,3.9299,3.9299,3.9299,3.9299,3.9299,3.9299,3.9299,3.9299,3.9299,3.9299,3.9299,3.9299,3.9299,3.9299,3.9299,3.9299,3.9299,3.9299,3.9299,3.9116,3.8543,3.7682,3.6555,3.5081,3.4087,3.3806,3.4551,3.3789,3.3955,3.5595,3.5131,3.4965,3.5429,3.5794,3.6042,3.6141,3.7748,3.8394,3.793,3.8851,3.9299,3.9299,3.9299,3.9299,3.9299,3.9299,3.9299,3.9299,3.9299,3.9299,3.9299,3.9299,3.9299,3.9299,3.9299,3.9299,3.9299,3.9299,3.9299,3.9299,3.8868,3.9199,3.9249,3.9299,3.9299,3.9282,3.9232,3.8642,3.8169,3.8119,3.7582,3.7168,3.7119,3.7152,3.7715,3.9033,3.9149,3.8884,3.8245,3.8186,3.754,3.6141,3.6075,3.5711,3.4916,3.4899,3.5263,3.6009,3.7902,3.9177,3.9868,4.0228,4.0262,3.9961,3.9901,3.9668,3.9352,3.9299,3.9325,3.9405,3.9781,3.9935,4.0011,4.0343,4.0262,3.9935,3.9935,3.9694,3.9325,3.9299,3.9299,3.9299,3.9299,3.9299,3.9299,3.9299,3.9299,3.9299,3.9299,3.9299,3.9299,3.9299,3.9299,3.9299,3.9299,3.9299,3.9299,3.9299,3.9299,3.9299,3.9299,3.9299,3.9299,3.9299,3.9216,3.8685,3.7301,3.7019,3.6439,3.5048,3.4949,3.5263,3.6009,3.6075,3.6357,3.7052,3.7748,3.8103,3.8103,3.687,3.682,3.8245,3.895,3.9299,3.9299,3.9299,3.9299,3.9299,3.9299,3.9299,3.9299,3.9299,3.9299,3.9299,3.9299,3.9299,3.9299,3.9299,3.9299,3.9299,3.9299,3.9299,3.9299,3.9299,3.9299,3.9299,3.745,3.8079,3.8642,3.9199,3.9299,3.9116,3.8543,3.8328,3.8013,3.7433,3.7715,3.7748,3.7168,3.7615,3.7864,3.7632,3.7615,3.7798,3.8179,3.8186,3.7798,3.6887,3.6837,3.6241,3.4932,3.4899,3.5263,3.6009,3.8145,3.9279,3.9443,4.0102,4.0514,4.0693,3.9816,3.9563,3.9746,3.9432,3.9635,4.0145,4.0245,4.0458,4.0789,4.1163,4.089,4.0269,4.0269,4.0054,3.972,3.9405,3.9299,3.9299,3.9299,3.9299,3.9299,3.9299,3.9299,3.9299,3.9299,3.9299,3.9299,3.9299,3.9299,3.9299,3.9299,3.9299,3.9299,3.9299,3.9299,3.9299,3.9299,3.9299,3.9299,3.9299,3.837,3.75,3.7152,3.6125,3.5297,3.4932,3.5396,3.6025,3.6771,3.6837,3.692,3.7102,3.7268,3.7367,3.7367,3.7566,3.8096,3.9017,3.9216,3.9299,3.9299,3.9299,3.9299,3.9299,3.9299,3.9299,3.9299,3.9299,3.9299,3.9299,3.9299,3.9299,3.9299,3.9299,3.9299,3.9299,3.9299,3.9299,3.9299,3.9299,3.9299,3.9299,3.7466,3.8195,3.8825,3.9232,3.9033,3.8775,3.8709,3.8129,3.7566,3.7152,3.7168,3.692,3.6174,3.6456,3.6539,3.6125,3.6721,3.7284,3.7682,3.7384,3.7036,3.6622,3.6274,3.5727,3.4916,3.4899,3.5343,3.6226,3.7617,3.8551,3.9032,3.9275,3.9581,3.9916,3.9319,3.9175,3.9371,3.9518,3.9687,3.9935,4.0252,4.0538,4.0795,4.1386,4.1209,4.0659,4.0466,4.0187,3.9849,3.9432,3.9299,3.9299,3.9299,3.9299,3.9299,3.9299,3.9299,3.9299,3.9299,3.9299,3.9299,3.9299,3.9299,3.9299,3.9299,3.9299,3.9299,3.9299,3.9299,3.9299,3.9299,3.9299,3.9299,3.9299,3.8046,3.7102,3.7102,3.5827,3.5148,3.5827,3.6257,3.692,3.7996,3.8096,3.8096,3.8096,3.8096,3.8096,3.8096,3.8477,3.8901,3.9282,3.9299,3.9299,3.9299,3.9299,3.9299,3.9299,3.9299,3.9299,3.9299,3.9299,3.9299,3.9299,3.9299,3.9299,3.9299,3.9299,3.9299,3.9299,3.9299,3.9299,3.9299,3.9299,3.9299,3.9299,3.788,3.8526,3.9017,3.9116,3.8709,3.8543,3.9067,3.8063,3.7201,3.697,3.6489,3.5843,3.4982,3.4998,3.5015,3.4916,3.6059,3.687,3.7102,3.6406,3.6059,3.6158,3.5462,3.5015,3.4899,3.4899,3.5347,3.6256,3.682,3.7573,3.8476,3.8328,3.847,3.8794,3.8857,3.888,3.8914,3.9615,3.9772,3.9625,4.017,4.0473,4.0659,4.134,4.1386,4.1047,4.0635,4.0262,3.991,3.9537,3.9352,3.9299,3.9299,3.9299,3.9299,3.9299,3.9299,3.9299,3.9299,3.9299,3.9299,3.9299,3.9299,3.9299,3.9299,3.9299,3.9299,3.9299,3.9299,3.9299,3.9299,3.9299,3.9265,3.9149,3.7897,3.6936,3.6936,3.586,3.5578,3.6953,3.7301,3.7914,3.9183,3.9299,3.9299,3.9299,3.9299,3.9299,3.9299,3.9415,3.9481,3.9481,3.9365,3.9299,3.9299,3.9415,3.9415,3.9299,3.9299,3.9365,3.9464,3.9348,3.9365,3.9464,3.9348,3.9299,3.9299,3.9299,3.9299,3.9299,3.9299,3.9299,3.9299,3.9299,3.9299,3.9299,3.7003,3.7367,3.7649,3.8261,3.8775,3.8967,3.846,3.8195,3.7599,3.634,3.6622,3.6406,3.5048,3.5462,3.5578,3.4949,3.5098,3.5777,3.7036,3.6406,3.629,3.6903,3.6224,3.5545,3.4916,3.4899,3.4973,3.5143,3.6469,3.7204,3.7369,3.8227,3.8825,3.9213,3.9227,3.9412,3.9721,3.9841,4.0221,4.0717,4.049,4.0802,4.1431,4.1542,4.156,4.1453,4.1047,4.0676,4.0269,3.9918,3.959,3.9299,3.9299,3.9299,3.9299,3.9299,3.9299,3.9299,3.9299,3.9299,3.9299,3.9299,3.9299,3.9299,3.9299,3.9299,3.9299,3.9299,3.9299,3.9299,3.9299,3.9299,3.91,3.8477,3.7135,3.6174,3.6174,3.5976,3.6158,3.7003,3.8195,3.905,3.9282,3.9299,3.9299,3.9299,3.9299,3.9299,3.9299,3.9895,4.0243,4.0243,3.963,3.9299,3.9299,3.9928,3.9928,3.9299,3.9299,3.963,4.021,3.958,3.9647,4.0194,3.9564,3.9299,3.9299,3.9299,3.9299,3.9299,3.9299,3.9299,3.9299,3.9299,3.9299,3.9299,3.7483,3.7673,3.793,3.8659,3.8411,3.8261,3.8709,3.846,3.7814,3.6738,3.6903,3.6539,3.5048,3.5197,3.5263,3.4932,3.4899,3.5363,3.6439,3.5827,3.5744,3.6489,3.5794,3.5247,3.4899,3.4899,3.4977,3.5165,3.6039,3.6563,3.6793,3.7266,3.792,3.8631,3.8473,3.8962,3.9887,3.9685,4.0019,4.0659,4.0473,4.0754,4.1295,4.1515,4.1604,4.156,4.114,4.0731,4.0368,3.9995,3.9642,3.9299,3.9299,3.9299,3.9299,3.9299,3.9299,3.9299,3.9299,3.9299,3.9299,3.9299,3.9299,3.9299,3.9299,3.9299,3.9299,3.9299,3.9299,3.9299,3.9299,3.9299,3.9067,3.8328,3.7301,3.6738,3.7135,3.6854,3.7019,3.8146,3.8901,3.9299,3.9299,3.9299,3.9299,3.9299,3.9663,3.9895,3.9895,4.0547,4.0945,4.0945,4.0613,4.0431,4.0431,4.0763,4.0763,4.0431,4.0431,4.0613,4.0928,4.058,4.0415,4.0393,4.0044,3.9663,3.9299,3.9299,3.9299,3.9299,3.9299,3.9299,3.9299,3.9299,3.9299,3.9299,3.7788,3.807,3.8328,3.8735,3.8129,3.798,3.9133,3.8808,3.8195,3.7466,3.7218,3.6605,3.5297,3.4998,3.4899,3.4899,3.4899,3.5131,3.5711,3.5214,3.523,3.5976,3.5297,3.4899,3.4899,3.4899,3.5024,3.5287,3.5705,3.6054,3.6364,3.6544,3.7045,3.7848,3.776,3.8486,3.9745,3.9437,3.9775,4.0538,4.0343,4.058,4.1024,4.134,4.1515,4.156,4.114,4.0731,4.0368,3.9995,3.9642,3.9299,3.9299,3.9299,3.9299,3.9299,3.9299,3.9299,3.9299,3.9299,3.9299,3.9299,3.9299,3.9299,3.9299,3.9299,3.9299,3.9299,3.9299,3.9299,3.9299,3.9299,3.9067,3.8328,3.7748,3.7566,3.8103,3.7715,3.7897,3.9381,3.9564,3.963,3.9779,3.9796,3.9796,3.9796,4.0299,4.0613,4.0613,4.1293,4.1711,4.1922,4.1728,4.1562,4.1409,4.1562,4.1562,4.1409,4.1409,4.148,4.1645,4.1491,4.1127,4.0613,4.0475,3.9978,3.9299,3.9299,3.9299,3.9299,3.9299,3.9299,3.9299,3.9299,3.9299,3.9299,3.7052,3.7748,3.8013,3.7384,3.8295,3.9183,3.9282,3.9249,3.8941,3.8228,3.7533,3.6804,3.6009,3.5313,3.4899,3.4899,3.4899,3.4916,3.4982,3.4932,3.523,3.5976,3.5297,3.4899,3.4899,3.4899,3.4923,3.4947,3.5577,3.5929,3.595,3.6652,3.7005,3.7112,3.7775,3.8544,3.9322,3.9307,3.9935,4.0907,4.0221,4.037,4.1001,4.1024,4.1295,4.156,4.114,4.0731,4.0368,3.9995,3.9642,3.9299,3.9299,3.9299,3.9299,3.9299,3.9299,3.9299,3.9299,3.9299,3.9299,3.9299,3.9299,3.9299,3.9299,3.9299,3.9299,3.9299,3.9299,3.9299,3.9299,3.9299,3.9067,3.8328,3.8136,3.8146,3.8186,3.8136,3.8676,4.0144,4.0326,4.0547,4.1193,4.1259,4.1259,4.1259,4.1309,4.1342,4.1342,4.2009,4.2721,4.3416,4.2771,4.2075,4.1425,4.2059,4.2059,4.1409,4.1409,4.1744,4.239,4.1695,4.1375,4.1293,4.0663,3.9978,3.9299,3.9299,3.9299,3.9299,3.9299,3.9299,3.9299,3.9299,3.9299,3.9299,3.7549,3.7649,3.7582,3.7765,3.8261,3.8758,3.9232,3.9299,3.905,3.8311,3.7963,3.7516,3.6771,3.6439,3.6257,3.6257,3.6257,3.6257,3.6257,3.5843,3.5495,3.533,3.5048,3.4899,3.4899,3.4899,3.4899,3.4899,3.5362,3.5594,3.5594,3.6097,3.6693,3.7352,3.6932,3.7836,3.9638,3.8935,3.9412,4.0611,4.0336,4.0531,4.1001,4.1001,4.1094,4.1249,4.134,4.0813,4.0104,4.0162,3.9799,3.9299,3.9299,3.9299,3.9299,3.9299,3.9299,3.9299,3.9299,3.9299,3.9299,3.9299,3.9299,3.9299,3.9299,3.9299,3.9299,3.9299,3.9299,3.9299,3.9299,3.9299,3.9067,3.8328,3.8576,3.8874,3.8874,3.9272,3.9918,4.0895,4.1011,4.1127,4.1392,4.1409,4.1409,4.1409,4.1811,4.2059,4.2059,4.2771,4.33,4.3582,4.3317,4.3035,4.2754,4.3035,4.3035,4.2754,4.2754,4.2903,4.3168,4.2886,4.2258,4.1409,4.1127,4.0365,3.9299,3.9299,3.9299,3.9299,3.9299,3.9299,3.9299,3.9299,3.9299,3.9299,3.7615,3.7649,3.7533,3.7814,3.8063,3.846,3.9199,3.91,3.8858,3.8576,3.8344,3.803,3.75,3.7251,3.7102,3.7102,3.7102,3.7102,3.7102,3.6406,3.5678,3.4932,3.4899,3.4899,3.4899,3.4899,3.4899,3.4899,3.5258,3.5402,3.5402,3.5732,3.6376,3.7213,3.6444,3.724,3.9131,3.8454,3.8836,3.9897,4.001,4.0286,4.0645,4.0645,4.0717,4.0843,4.1001,4.0566,3.991,4.0011,3.9722,3.9299,3.9299,3.9299,3.9299,3.9299,3.9299,3.9299,3.9299,3.9299,3.9299,3.9299,3.9299,3.9299,3.9299,3.9299,3.9299,3.9299,3.9299,3.9299,3.9299,3.9299,3.9133,3.8626,3.9166,3.9647,3.9647,4.0276,4.0961,4.1674,4.1728,4.1827,4.2059,4.2075,4.2075,4.2075,4.2555,4.2837,4.2837,4.3317,4.3598,4.3598,4.3598,4.3598,4.3598,4.3598,4.3598,4.3598,4.3598,4.3598,4.3598,4.3598,4.292,4.1711,4.1508,4.0729,3.963,3.9398,3.9299,3.9299,3.9299,3.9448,3.9647,3.9647,3.9779,3.9945,3.697,3.7673,3.798,3.7235,3.7715,3.846,3.9199,3.8676,3.8477,3.9199,3.8659,3.8228,3.8228,3.7566,3.7119,3.7119,3.7119,3.7119,3.7102,3.6406,3.5678,3.4932,3.4899,3.4899,3.4899,3.4899,3.4899,3.4899,3.5218,3.5402,3.5402,3.5749,3.6097,3.6502,3.6502,3.6901,3.7611,3.7968,3.8381,3.8841,3.9159,3.9537,3.9901,3.9901,4.0121,4.0351,4.002,3.9901,3.9824,3.9432,3.9299,3.9299,3.9299,3.9299,3.9299,3.9299,3.9299,3.9299,3.9299,3.9299,3.9299,3.9299,3.9299,3.9299,3.9299,3.9299,3.9299,3.9299,3.9299,3.9299,3.9299,3.9299,3.9315,3.9315,3.9928,4.0409,4.0426,4.0978,4.1662,4.2406,4.2506,4.2787,4.3515,4.3598,4.3598,4.3598,4.3598,4.3598,4.3598,4.3598,4.3598,4.3598,4.3598,4.3598,4.3598,4.3598,4.3598,4.3598,4.3598,4.3598,4.3598,4.3598,4.3184,4.2456,4.1711,4.1028,4.0359,3.9613,3.9315,3.9315,3.9315,3.9763,4.0426,4.0426,4.0829,4.1309,3.697,3.7673,3.798,3.7235,3.8129,3.905,3.9265,3.9116,3.905,3.9265,3.9116,3.8984,3.8984,3.8785,3.8652,3.8652,3.8652,3.8195,3.7168,3.6903,3.6208,3.4949,3.4899,3.4899,3.4899,3.4899,3.4899,3.4899,3.5001,3.5048,3.5048,3.5148,3.5504,3.6075,3.5832,3.6429,3.7638,3.8003,3.8381,3.8799,3.9453,3.9798,3.9901,3.9901,3.9961,4.007,4.0212,3.9927,3.9511,3.9668,3.9537,3.9299,3.9299,3.9299,3.9299,3.9299,3.9299,3.9299,3.9299,3.9299,3.9299,3.9299,3.9299,3.9299,3.9299,3.9299,3.9299,3.9299,3.9299,3.9299,3.9299,3.973,4.0078,4.0078,4.026,4.0729,4.174,4.1607,4.186,4.3118,4.3267,4.335,4.3582,4.3598,4.3598,4.3598,4.3598,4.3598,4.3598,4.3598,4.3598,4.3598,4.3598,4.3598,4.3598,4.3598,4.3598,4.3598,4.3598,4.3598,4.3598,4.3598,4.3184,4.2473,4.2258,4.1773,4.1044,4.0376,4.0332,4.0729,4.0276,4.0481,4.111,4.111,4.1243,4.1375,3.7334,3.7871,3.8079,3.759,3.8261,3.8941,3.9265,3.905,3.8984,3.9265,3.9299,3.9299,3.9299,3.9299,3.9299,3.9299,3.9299,3.8685,3.7201,3.7102,3.6439,3.4965,3.4899,3.4899,3.4899,3.4899,3.4899,3.4899,3.4899,3.4899,3.4899,3.4899,3.5195,3.5688,3.5498,3.5904,3.6759,3.7291,3.7749,3.8129,3.8906,3.94,3.9668,3.9668,3.9668,3.9694,3.9901,3.9687,3.9325,3.959,3.9511,3.9299,3.9299,3.9299,3.9299,3.9299,3.9299,3.9299,3.9299,3.9299,3.9299,3.9299,3.9299,3.9299,3.9299,3.9299,3.9299,3.9299,3.9299,3.9299,3.9299,3.9663,4.0061,4.0359,4.0613,4.1094,4.1955,4.2175,4.2489,4.3085,4.3416,4.3598,4.3598,4.3598,4.3598,4.3598,4.3598,4.3598,4.3598,4.3598,4.3598,4.3598,4.3598,4.3598,4.3598,4.3598,4.3598,4.3598,4.3598,4.3598,4.3598,4.3598,4.335,4.292,4.2622,4.2241,4.1761,4.1077,4.0878,4.0994,4.0845,4.1044,4.1458,4.1711,4.2009,4.2224,3.7947,3.8261,3.8295,3.8202,3.8261,3.8526,3.9199,3.8725,3.8543,3.9216,3.9299,3.9299,3.9299,3.9299,3.9299,3.9299,3.9299,3.8685,3.7201,3.7102,3.6439,3.4965,3.4899,3.4899,3.4899,3.4899,3.4899,3.4899,3.4899,3.4899,3.4899,3.4899,3.5071,3.5402,3.5402,3.5424,3.5498,3.6266,3.6807,3.7219,3.798,3.8692,3.9299,3.9299,3.9299,3.9299,3.9299,3.9299,3.9299,3.9299,3.9299,3.9299,3.9299,3.9299,3.9299,3.9299,3.9299,3.9299,3.9299,3.9299,3.9299,3.9299,3.9299,3.9299,3.9299,3.9299,3.9299,3.9299,3.9299,3.9299,3.9299,3.9348,3.9647,4.0376,4.0994,4.1458,4.1591,4.2688,4.3267,4.2655,4.3184,4.3598,4.3598,4.3598,4.3598,4.3598,4.3598,4.3598,4.3598,4.3598,4.3598,4.3598,4.3598,4.3598,4.3598,4.3598,4.3598,4.3598,4.3598,4.3598,4.3598,4.3598,4.3598,4.3565,4.2886,4.2589,4.2539,4.1794,4.1177,4.0729,4.1293,4.1529,4.1662,4.234,4.3019,4.3499,3.8146,3.8659,3.8874,3.8311,3.8676,3.9133,3.9282,3.9166,3.9133,3.9282,3.9299,3.9299,3.9299,3.9299,3.9299,3.9299,3.9299,3.8685,3.7201,3.7102,3.6439,3.4965,3.4899,3.4899,3.4899,3.4899,3.4899,3.4899,3.4899,3.4899,3.4899,3.4899,3.5071,3.5402,3.5402,3.5543,3.5861,3.6899,3.7405,3.7576,3.8641,3.9166,3.9299,3.9299,3.9299,3.9299,3.9299,3.9299,3.9299,3.9299,3.9299,3.9299,3.9299,3.9299,3.9299,3.9299,3.9299,3.9299,3.9299,3.9299,3.9299,3.9299,3.9299,3.9299,3.9299,3.9299,3.9299,3.9299,3.9299,3.9299,3.9299,3.9779,4.0393,4.1077,4.1309,4.1794,4.2953,4.2886,4.2886,4.33,4.3499,4.3598,4.3598,4.3598,4.3598,4.3598,4.3598,4.3598,4.3598,4.3598,4.3598,4.3598,4.3598,4.3598,4.3598,4.3598,4.3598,4.3598,4.3598,4.3598,4.3598,4.3598,4.3598,4.3582,4.3416,4.335,4.33,4.2555,4.2535,4.2853,4.2423,4.2605,4.3135,4.33,4.3449,4.3582,3.8659,3.905,3.9183,3.8775,3.905,3.9299,3.9299,3.9299,3.9299,3.9299,3.9299,3.9183,3.8808,3.8775,3.8626,3.8278,3.8901,3.8536,3.6688,3.6903,3.6439,3.4965,3.4899,3.4899,3.4899,3.4899,3.4899,3.4899,3.4899,3.4899,3.4899,3.4899,3.4977,3.5165,3.5165,3.5448,3.598,3.6597,3.7235,3.7945,3.8539,3.9,3.9299,3.9299,3.9299,3.9299,3.9299,3.9299,3.9299,3.9299,3.9299,3.9299,3.9299,3.9299,3.9299,3.9299,3.9299,3.9299,3.9299,3.9299,3.9299,3.9299,3.9299,3.9299,3.9299,3.9299,3.9299,3.9299,3.9299,3.9299,3.9299,3.9613,4.0227,4.1243,4.1409,4.1778,4.292,4.3035,4.3035,4.3069,4.3383,4.3598,4.3598,4.3598,4.3598,4.3598,4.3598,4.3598,4.3598,4.3598,4.3598,4.3598,4.3598,4.3598,4.3598,4.3598,4.3598,4.3598,4.3598,4.3598,4.3598,4.3598,4.3598,4.3598,4.3598,4.3598,4.3565,4.3184,4.3035,4.3069,4.3035,4.3035,4.3118,4.3466,4.3598,4.3598,3.9183,3.9299,3.9299,3.9299,3.9299,3.9299,3.9299,3.9299,3.9299,3.9299,3.9299,3.9083,3.846,3.8394,3.8096,3.7367,3.8394,3.8288,3.6324,3.6655,3.6307,3.4965,3.4899,3.4899,3.4899,3.4899,3.4899,3.4899,3.4899,3.4899,3.4899,3.4899,3.4899,3.4899,3.4899,3.5313,3.6009,3.6141,3.6986,3.8202,3.8344,3.8742,3.9299,3.9299,3.9299,3.9299,3.9299,3.9299,3.9299,3.9299,3.9299,3.9299,3.9299,3.9299,3.9299,3.9299,3.9299,3.9299,3.9299,3.9299,3.9299,3.9299,3.9299,3.9299,3.9299,3.9299,3.9332,3.9464,3.9398,3.9332,3.9464,3.9381,3.9779,4.1177,4.1409,4.1678,4.2555,4.3201,4.3367,4.2754,4.3218,4.3598,4.3598,4.3598,4.3598,4.3598,4.3598,4.3598,4.3598,4.3598,4.3598,4.3598,4.3598,4.3598,4.3598,4.3598,4.3598,4.3598,4.3598,4.3598,4.3598,4.3598,4.3598,4.3598,4.3598,4.3598,4.3598,4.3598,4.3234,4.2738,4.335,4.3218,4.2754,4.3367,4.3598,4.3598,3.9282,3.9299,3.9299,3.9299,3.9299,3.9299,3.9299,3.9299,3.9299,3.9299,3.9299,3.9265,3.9166,3.9149,3.8841,3.8129,3.8245,3.7963,3.7019,3.6456,3.5777,3.4932,3.4899,3.4899,3.4899,3.4899,3.4899,3.4899,3.4899,3.4899,3.4899,3.4899,3.4899,3.4899,3.4899,3.5313,3.6042,3.6688,3.7433,3.8278,3.8874,3.9216,3.9299,3.9299,3.9299,3.9299,3.9299,3.9299,3.9299,3.9299,3.9299,3.9299,3.9299,3.9299,3.9299,3.9299,3.9299,3.9299,3.9299,3.9299,3.9299,3.9299,3.9299,3.9299,3.9299,3.9299,3.9481,4.0127,3.9746,3.9497,4.0144,3.973,3.9779,4.1177,4.1409,4.1877,4.3251,4.3532,4.3565,4.3449,4.3532,4.3598,4.3598,4.3598,4.3598,4.3598,4.3598,4.3598,4.3598,4.3598,4.3598,4.3598,4.3598,4.3598,4.3598,4.3598,4.3598,4.3598,4.3598,4.3598,4.3598,4.3598,4.3598,4.3598,4.3598,4.3598,4.3598,4.3598,4.3532,4.3449,4.3565,4.3532,4.3449,4.3565,4.3598,4.3598,3.9299,3.9299,3.9299,3.9299,3.9299,3.9299,3.9299,3.9299,3.9299,3.9299,3.9299,3.9,3.8146,3.7698,3.7317,3.7003,3.7367,3.7102,3.5959,3.5959,3.5678,3.4932,3.4899,3.4899,3.4899,3.4899,3.4899,3.4899,3.4899,3.4899,3.4899,3.4899,3.4899,3.4899,3.4899,3.5313,3.6059,3.6787,3.7533,3.8252,3.9017,3.9299,3.9299,3.9299,3.9299,3.9299,3.9299,3.9299,3.9299,3.9299,3.9299,3.9299,3.9299,3.9299,3.9299,3.9299,3.9299,3.9299,3.9299,3.9299,3.9299,3.9299,3.9299,3.9415,3.9829,3.9912,4.0011,4.0343,4.0144,4.0011,4.0343,4.0144,4.026,4.1243,4.1728,4.2373,4.3449,4.3598,4.3598,4.3598,4.3598,4.3598,4.3598,4.3598,4.3598,4.3598,4.3598,4.3598,4.3598,4.3598,4.3598,4.3598,4.3598,4.3598,4.3598,4.3598,4.3598,4.3598,4.3598,4.3598,4.3598,4.3598,4.3598,4.3598,4.3598,4.3598,4.3598,4.3598,4.3598,4.3598,4.3598,4.3598,4.3598,4.3598,4.3598,4.3598]}]]